.

MPMG - Transparência

Contracheque - Verbas indenizatórias e outras remunerações temporárias - Tabela III (Resolução nº 200/2019) - Pós Resolução CNMP 200/2019

Período: 2024 - Janeiro

Ordem Matrícula Nome Cargo Lotação Verbas Indenizatórias *1 Outras Remunerações Temporárias *2 Data de Referência
Auxílio Alimentação Auxílio Creche Auxílio Saúde Auxílio Transporte Estagiário Indenizações Indenizações e Diligênias Adicionais de Periculosidade e Insalubridade Gratificações Outras Remunerações
1 498900 ABDON MARCIO BARBOSA DA SILVA OFICIAL DO MP ABRE CAMPO - COMARCA; ABRE CAMPO-PJ-01PJ 1.978,00 0,00 605,00 0,00 6.125,47 0,00 0,00 0,00 0,00 31/01/2024
2 293600 ABELARDO GUIMARAES CASTRO PROMOT.ENTRANC.ESPECIAL BELO HORIZONTE - COMARCA; BH-18PJ VIOLENCIA DOMESTICA-GAB 044PJ 1.978,00 0,00 3.571,05 0,00 17.855,23 0,00 0,00 0,00 545,58 31/01/2024
3 1636200 ABRAAO SANTANA DOMINGOS ESTAGIARIO BELO HORIZONTE; COORD DE INCLUSAO E MOBILIZACAO SOCIAIS 0,00 0,00 0,00 180,00 0,00 0,00 0,00 0,00 0,00 31/01/2024
4 99200 ADALBERTO DE PAULA CHRISTO LEITE PROMOT.ENTRANC.ESPECIAL SÃO JOÃO DEL REI - COMARCA; SAO JOAO DEL REI-PJ-02PJ 1.978,00 0,00 3.571,05 0,00 0,00 0,00 0,00 0,00 0,00 31/01/2024
5 177800 ADALBERTO MENEZES FARIA SAMORA OFICIAL DO MP BELO HORIZONTE - COMARCA; DIRET DE PLANOS PROJETOS E PROGRAMAS INST 1.978,00 0,00 605,00 0,00 6.213,67 0,00 0,00 0,00 0,00 31/01/2024
6 306400 ADALBERTO MOREIRA GONCALVES ANALISTA DO MP BELO HORIZONTE - COMARCA; BH-24PJ JUIZO REG BARREIRO-SECRETARIA 1.978,00 0,00 605,00 0,00 5.998,28 0,00 0,00 0,00 0,00 31/01/2024
7 100400 ADELAIDE CRISTINA DE CARVALHO MACHADO PROCURADOR DE JUSTICA BELO HORIZONTE - COMARCA; GABINETE DE PROCURADOR DE JUSTIÇA - SALA 708 1.978,00 0,00 1.488,14 0,00 19.235,16 0,00 0,00 0,00 734,68 31/01/2024
8 96500 ADELIA LAGE DE OLIVEIRA PROCURADOR DE JUSTICA BELO HORIZONTE - COMARCA; GABINETE DE PROCURADOR DE JUSTIÇA - SALA 403 1.978,00 0,00 1.623,43 0,00 24.043,95 0,00 0,00 0,00 734,68 31/01/2024
9 49200 ADEMAR PEREIRA PROMOTOR 2A ENTRANCIA MACHADO - COMARCA; MACHADO-PJ-01PJ 1.978,00 0,00 3.392,49 0,00 24.043,95 0,00 0,00 0,00 734,68 31/01/2024
10 179300 ADENISE AUXILIADORA SOUZA SAD OFICIAL DO MP BARBACENA - COMARCA; BARBACENA-PJ-06PJ 1.978,00 0,00 605,00 0,00 5.977,03 0,00 0,00 0,00 0,00 31/01/2024
11 272200 ADILSON BATISTA ORNELAS OFICIAL DO MP LAVRAS - COMARCA; LAVRAS-PJ-SECRETARIA 1.978,00 0,00 605,00 0,00 6.245,57 0,00 0,00 0,00 0,00 31/01/2024
12 143000 ADILSON DE OLIVEIRA NASCIMENTO PROCURADOR DE JUSTICA BELO HORIZONTE - COMARCA; GABINETE DE PROCURADOR DE JUSTIÇA - SALA 614 1.978,00 0,00 3.759,00 0,00 20.825,46 0,00 0,00 0,00 636,33 31/01/2024
13 380100 ADILSON GONCALVES DE MELO JUNIOR ANALISTA DO MP ARAXÁ - COMARCA; ARAXA-PJ-05PJ 1.978,00 0,00 605,00 0,00 6.189,97 0,00 0,00 0,00 0,00 31/01/2024
14 148800 ADILSON JANUARIO OFICIAL DO MP BELO HORIZONTE - COMARCA; BH-22PJ PES COM DEF E IDOSOS-SECRETARIA 1.978,00 0,00 605,00 0,00 5.205,27 0,00 0,00 0,00 0,00 31/01/2024
15 322601 ADMILSON SILVEIRA ANALISTA DO MP SAO JOAO DO PARAISO COMARCA; SAO JOAO DO PARAISO-PJ-UNPJ 1.978,00 1.146,58 605,00 0,00 5.924,93 0,00 0,00 0,00 0,00 31/01/2024
16 1673100 ADRIA PATRICIA SIMAO DE OLIVEIRA SANTOS ESTAGIARIO BELO HORIZONTE; BH-09PJ AUDITORIA MILITAR-GAB 075PJ 0,00 0,00 0,00 180,00 0,00 0,00 0,00 0,00 0,00 31/01/2024
17 333700 ADRIANA ABRITTA TEIXEIRA OFICIAL DO MP BELO HORIZONTE - COMARCA; DIRET DE PESSOAL DO MINISTERIO PUBLICO - DPMP 1.978,00 0,00 605,00 0,00 5.776,81 0,00 0,00 0,00 0,00 31/01/2024
18 468500 ADRIANA APARECIDA FIRMINO ANALISTA DO MP CARATINGA - COMARCA; CARATINGA-PJ-04PJ 1.978,00 0,00 605,00 0,00 5.924,93 0,00 0,00 0,00 0,00 31/01/2024
19 326100 ADRIANA AUGUSTA AMARAL BELO OFICIAL DO MP BARBACENA - COMARCA; BARBACENA-PJ-05PJ 1.978,00 0,00 605,00 0,00 5.776,81 0,00 0,00 0,00 0,00 31/01/2024
20 363000 ADRIANA CARVALHO PEREIRA E SILVA COSTA PROMOTOR 2A ENTRANCIA ALÉM PARAÍBA - COMARCA; ALEM PARAIBA-PJ-02PJ 1.978,00 0,00 3.273,91 0,00 11.308,31 0,00 0,00 0,00 0,00 31/01/2024
21 605700 ADRIANA COSTA LIRA OFICIAL DO MP BELO HORIZONTE - COMARCA; CAO-EDUCACAO 1.978,00 0,00 605,00 0,00 6.253,74 0,00 0,00 0,00 0,00 31/01/2024
22 541100 ADRIANA CRISTINA DE OLIVEIRA OFICIAL DO MP EXTREMA - COMARCA; EXTREMA-PJ-01PJ 1.978,00 0,00 605,00 0,00 6.125,47 0,00 0,00 0,00 0,00 31/01/2024
23 254800 ADRIANA DAS GRACAS FERNANDES ANALISTA DO MP UBERABA - COMARCA; UBERABA-PJ-07PJ 1.978,00 0,00 605,00 0,00 6.014,39 0,00 0,00 0,00 0,00 31/01/2024
24 217400 ADRIANA DE CARVALHO CATAO BRAGA ASSESSOR ADMINISTRATIVO III BELO HORIZONTE - COMARCA; DIV FISCAL ADM CONT TERCEIRIZACAO 1.978,00 0,00 605,00 0,00 0,00 0,00 0,00 0,00 0,00 31/01/2024
25 434600 ADRIANA FERREIRA DA SILVA ANALISTA DO MP BELO HORIZONTE - COMARCA; BH-14PJ DEFESA CONSUMIDOR-GAB 112PJ 1.978,00 0,00 605,00 0,00 6.091,94 0,00 0,00 0,00 0,00 31/01/2024
26 499800 ADRIANA FERREIRA TIAGO OFICIAL DO MP SALINAS - COMARCA; SALINAS-PJ-02PJ 1.978,00 1.146,58 605,00 0,00 5.047,92 0,00 0,00 0,00 0,00 31/01/2024
27 543400 ADRIANA GUIMARAES NUNES DE PAULA ANALISTA DO MP PATROCÍNIO - COMARCA; PATROCINIO-PJ-01PJ 1.978,00 2.293,16 605,00 0,00 0,00 0,00 0,00 0,00 0,00 31/01/2024
28 471500 ADRIANA HORTA DE CARVALHO RODRIGUES DE SOUSA ANALISTA DO MP BELO HORIZONTE - COMARCA; CAO-FUNDACOES-ASSESSORIA JURIDICA 1.978,00 0,00 605,00 0,00 0,00 0,00 0,00 0,00 0,00 31/01/2024
29 314300 ADRIANA JULIA DE SOUZA PROMOT.ENTRANC.ESPECIAL BELO HORIZONTE - COMARCA; BH-26 CRIME CONT CRIAN ADOL-GAB 169PJ 1.978,00 1.146,58 3.571,05 0,00 17.855,23 0,00 0,00 0,00 545,58 31/01/2024
30 1471700 ADRIANA MARTINS DE ALBUQUERQUE ESTAGIARIO BELO HORIZONTE; PROC JUST ATUACAO TRIBUNAIS SUPERIORES-GAB004 0,00 0,00 0,00 180,00 0,00 0,00 0,00 0,00 0,00 31/01/2024
31 480700 ADRIANA MOREIRA DE AVELLAR CEZILIO OFICIAL DO MP BELO HORIZONTE - COMARCA; BH-12PJ JUIZO CRIMINAL-SECRETARIA 1.978,00 0,00 605,00 0,00 6.253,74 0,00 0,00 0,00 0,00 31/01/2024
32 326000 ADRIANA PEREIRA CARNEIRO RESENDE OFICIAL DO MP BELO HORIZONTE - COMARCA; BH-25PJ DEFESA DA EDUCACAO-SECRETARIA 1.978,00 0,00 605,00 0,00 5.776,81 0,00 0,00 0,00 0,00 31/01/2024
33 502200 ADRIANA PETRUCCI DAVINA OFICIAL DO MP PATROCÍNIO - COMARCA; PATROCINIO-PJ-01PJ 1.978,00 1.146,58 605,00 0,00 6.254,73 0,00 0,00 0,00 0,00 31/01/2024
34 685200 ADRIANA PRATES DOS SANTOS PROMOTOR SUBSTITUTO CARMO DO PARANAÍBA - COMARCA; CARMO DO PARANAIBA-PJ-02PJ 1.978,00 0,00 1.989,55 0,00 16.114,35 0,00 0,00 0,00 492,38 31/01/2024
35 201900 ADRIANA REIS PIMENTA OFICIAL DO MP TEÓFILO OTONI - COMARCA; TEOFILO OTONI-PJ-03PJ 1.978,00 0,00 605,00 0,00 5.123,17 0,00 0,00 0,00 0,00 31/01/2024
36 278700 ADRIANA RODRIGUES PINTO COELHO AMARAL ANALISTA DO MP BELO HORIZONTE - COMARCA; CGMP-DIR ESTAGIO PROBATORIO E ORIENT 1.978,00 0,00 605,00 0,00 5.167,75 0,00 0,00 0,00 0,00 31/01/2024
37 468000 ADRIANA SANTOS DE SANTANA MOREIRA ANALISTA DO MP GOVERNADOR VALADARES - COMARCA; GAECO REGIONAL DE GOVERNADOR VALADARES 1.978,00 0,00 605,00 0,00 6.221,18 0,00 0,00 0,00 0,00 31/01/2024
38 290900 ADRIANA TORRES BECK PROMOT.ENTRANC.ESPECIAL BELO HORIZONTE - COMARCA; BH-23PJ INFRACIONAL-GAB COOPJ 1.978,00 0,00 3.571,05 0,00 11.903,48 0,00 0,00 0,00 545,58 31/01/2024
39 194700 ADRIANA TSUKIDE OFICIAL DO MP UBERABA - COMARCA; COORD REG BACIAS PARANAIBA BAIXO RIO GRANDE 1.978,00 0,00 605,00 0,00 5.977,03 0,00 0,00 0,00 0,00 31/01/2024
40 291500 ADRIANA VITAL DO VALLE PROMOT.ENTRANC.ESPECIAL SÃO JOÃO DEL REI - COMARCA; SAO JOAO DEL REI-PJ-06PJ 1.978,00 0,00 3.571,05 0,00 0,00 0,00 0,00 0,00 0,00 31/01/2024
41 212900 ADRIANO ARANTES BOZOLA PROMOT.ENTRANC.ESPECIAL UBERLÂNDIA - COMARCA; UBERLANDIA-PJ-21PJ 1.978,00 0,00 3.571,05 0,00 18.885,89 0,00 0,00 0,00 577,07 31/01/2024
42 716000 ADRIANO ARRUDA TEIXEIRA ESTAGIARIO UBERLANDIA; UBERLANDIA-PJ-16PJ 0,00 0,00 0,00 162,00 0,00 0,00 0,00 0,00 0,00 31/01/2024
43 174200 ADRIANO BOTELHO ESTRELA PROMOT.ENTRANC.ESPECIAL BELO HORIZONTE - COMARCA; BH-12PJ JUIZO CRIMINAL-GAB 095PJ 1.978,00 0,00 2.029,28 0,00 14.605,47 0,00 0,00 0,00 608,56 31/01/2024
44 465500 ADRIANO CASSIANO MATOS ANALISTA DO MP ARAXÁ - COMARCA; ARAXA-PJ-02PJ 1.978,00 0,00 605,00 0,00 5.924,93 0,00 0,00 0,00 0,00 31/01/2024
45 500500 ADRIANO DE ALMEIDA SILVA OFICIAL DO MP UBERABA - COMARCA; UBERABA-PJ-12PJ 1.978,00 1.146,58 605,00 0,00 6.254,73 0,00 0,00 0,00 0,00 31/01/2024
46 187200 ADRIANO DE FREITAS MARON OFICIAL DO MP PONTE NOVA - COMARCA; PONTE NOVA-PJ-03PJ 1.978,00 0,00 605,00 0,00 4.767,97 0,00 0,00 0,00 0,00 31/01/2024
47 344000 ADRIANO DUTRA GOMES DE FARIA PROMOT.ENTRANC.ESPECIAL VESPASIANO - COMARCA; VESPASIANO-PJ-04PJ 1.978,00 0,00 3.571,05 0,00 17.855,23 0,00 0,00 0,00 545,58 31/01/2024
48 477900 ADRIANO FERREIRA DE ALMEIDA OFICIAL DO MP TAIOBEIRAS - COMARCA; TAIOBEIRAS-PJ-UNPJ 1.978,00 0,00 605,00 0,00 6.211,29 0,00 0,00 0,00 0,00 31/01/2024
49 269101 ADRIANO PEREIRA SILVA ANALISTA DO MP BELO HORIZONTE - COMARCA; GABINETE DE PROCURADOR DE JUSTIÇA - SALA 913 1.978,00 0,00 605,00 0,00 5.776,81 0,00 0,00 0,00 0,00 31/01/2024
50 414200 ADRIANO RODRIGUES FERNANDES ANALISTA DO MP CARANDAÍ - COMARCA; CARANDAI-PJ-UNPJ 1.978,00 0,00 605,00 0,00 5.776,81 0,00 0,00 0,00 0,00 31/01/2024
51 715300 ADRIANO SCHER DORNELAS 2O. SARGENTO BELO HORIZONTE - COMARCA; NUCLEO DE COMBATE AOS CRIMES AMBIENTAIS 0,00 0,00 0,00 180,00 0,00 0,00 0,00 0,00 0,00 31/01/2024
52 536700 ADRIELLE COSTA MARIA MOURAO FIGUEIREDO OFICIAL DO MP SERRO - COMARCA; SERRO-PJ-SECRETARIA 1.978,00 1.146,58 605,00 0,00 0,00 0,00 0,00 0,00 0,00 31/01/2024
53 1570400 ADRIELLEN ALVES ARAUJO ESTAGIARIO MONTES CLAROS; MONTES CLAROS-PJ-14PJ 0,00 0,00 0,00 180,00 0,00 0,00 0,00 0,00 0,00 31/01/2024
54 1500100 ADRIELLY BIANQUY ALVES DA SILVA ESTAGIARIO LAJINHA; LAJINHA-PJ-UNPJ 0,00 0,00 0,00 108,00 0,00 0,00 0,00 0,00 0,00 31/01/2024
55 514300 ADRIENE DAMASCENO BRAGA ANALISTA DO MP ALFENAS - COMARCA; ALFENAS-PJ-03PJ 1.978,00 0,00 605,00 0,00 5.924,93 0,00 0,00 0,00 0,00 31/01/2024
56 254600 ADRIENE DOMINGUES COSTA ANALISTA DO MP BELO HORIZONTE - COMARCA; SUPER DE GESTAO DE PESSOAS-LOTACAO TEMPORARIA
57 252001 ADRIENE GOMES BARRETO ANALISTA DO MP BELO HORIZONTE - COMARCA; BH-19PJ SAUDE-SECRETARIA 047PJ 1.978,00 0,00 605,00 0,00 6.160,10 0,00 0,00 0,00 0,00 31/01/2024
58 84100 ADROALDO JUNQUEIRA AYRES NETO PROMOT.ENTRANC.ESPECIAL UBERABA - COMARCA; UBERABA-PJ-12PJ 1.978,00 0,00 3.571,05 0,00 16.029,30 0,00 0,00 0,00 734,68 31/01/2024
59 714800 ADSON GUSTAVO DE OLIVEIRA ASSESSOR PROCURADOR JUSTICA BELO HORIZONTE - COMARCA; GABINETE DE PROCURADOR DE JUSTIÇA - SALA 803 0,00 0,00 0,00 162,00 0,00 0,00 0,00 0,00 0,00 31/01/2024
60 724600 AECIO BRAS SILVA JUNIOR ASSESSOR PROMOTOR JUSTICA BAMBUÍ - COMARCA; BAMBUI-PJ-UNPJ 0,00 0,00 0,00 180,00 0,00 0,00 0,00 0,00 0,00 31/01/2024
61 162700 AECIO RABELO PROMOTOR 2A ENTRANCIA LAVRAS - COMARCA; LAVRAS-PJ-04PJ 1.978,00 0,00 2.624,54 0,00 17.941,59 0,00 0,00 0,00 548,22 31/01/2024
62 97600 AFONSO HENRIQUE DE MIRANDA TEIXEIRA PROCURADOR DE JUSTICA BELO HORIZONTE - COMARCA; CAO-CONFLITOS AGRARIOS 1.978,00 0,00 3.166,59 0,00 24.043,95 0,00 0,00 0,00 734,68 31/01/2024
63 610000 AGENOR ANDRADE LEAO PROMOT.ENTRANC.ESPECIAL TEÓFILO OTONI - COMARCA; TEOFILO OTONI-PJ-05PJ 1.978,00 0,00 3.571,05 0,00 17.855,23 0,00 0,00 0,00 545,58 31/01/2024
64 302500 AGENOR JOSE DA SILVA JUNIOR ANALISTA DO MP JUIZ DE FORA - COMARCA; JUIZ DE FORA-PJ-07PJ 1.978,00 1.146,58 605,00 0,00 5.998,28 0,00 0,00 0,00 0,00 31/01/2024
65 344100 AGNALDO LUCAS COTRIM PROMOT.ENTRANC.ESPECIAL POUSO ALEGRE - COMARCA; POUSO ALEGRE-PJ-02PJ 1.978,00 0,00 3.311,41 0,00 17.855,22 0,00 0,00 0,00 545,58 31/01/2024
66 67400 AIDA FERNANDES LISBOA MARINHO PROCURADOR DE JUSTICA BELO HORIZONTE - COMARCA; GABINETE DE PROCURADOR DE JUSTIÇA - SALA 604 1.978,00 0,00 3.759,00 0,00 24.043,95 0,00 0,00 0,00 734,68 31/01/2024
67 1561000 AILANA LAUREN DE PAIVA MATA ESTAGIARIO MIRADOURO; MIRADOURO-PJ-UNPJ 0,00 0,00 0,00 198,00 0,00 0,00 0,00 0,00 41,67 31/01/2024
68 357500 AILSON WAGNER DE ALENCAR SILVA OFICIAL DO MP BELO HORIZONTE - COMARCA; BH-12PJ JUIZO CRIMINAL-SECRETARIA 1.978,00 0,00 605,00 0,00 5.560,92 0,00 0,00 0,00 0,00 31/01/2024
69 366400 AILTON ALEXSSANDRO ALVES OFICIAL DO MP PARÁ DE MINAS - COMARCA; PARA DE MINAS-PJ-05PJ 1.978,00 0,00 605,00 0,00 0,00 0,00 0,00 0,00 0,00 31/01/2024
70 318900 AILTON DE CASTRO RIBEIRO JUNIOR OFICIAL DO MP CANDEIAS - COMARCA; CANDEIAS-PJ-UNPJ 1.978,00 0,00 605,00 0,00 5.776,81 0,00 0,00 0,00 0,00 31/01/2024
71 533100 AIMARA DE BRITTO DIAS LEITE CABALEIRO PROMOTOR SUBSTITUTO CONTAGEM - COMARCA; CONTAGEM-PJ-10PJ 1.978,00 1.146,58 3.222,87 0,00 5.371,45 0,00 0,00 0,00 492,38 31/01/2024
72 439100 AIRTON BATISTA COSTA NETO NEPOMUCENO PROMOTOR 2A ENTRANCIA ITUIUTABA - COMARCA; ITUIUTABA-PJ-04PJ 1.978,00 1.146,58 3.392,49 0,00 16.962,47 0,00 0,00 0,00 518,30 31/01/2024
73 712000 AIRTON FERREIRA SILVA ESTAGIARIO FRUTAL; FRUTAL-PJ-01PJ 0,00 0,00 0,00 180,00 0,00 0,00 0,00 0,00 0,00 31/01/2024
74 341600 ALAM BAENA BERTOLLA DOS SANTOS PROMOTOR 2A ENTRANCIA ARAGUARI - COMARCA; ARAGUARI-PJ-03PJ 1.978,00 0,00 3.392,49 0,00 16.962,47 0,00 0,00 0,00 518,30 31/01/2024
75 175700 ALAN CARRIJO RAMOS PROMOTOR 1A ENTRANCIA PRATÁPOLIS - COMARCA; PRATAPOLIS-PJ-UNPJ 1.978,00 0,00 3.222,87 0,00 17.044,51 0,00 0,00 0,00 520,80 31/01/2024
76 1638100 ALAN FAGNER XAVIER BATISTA ESTAGIARIO JUIZ DE FORA; JUIZ DE FORA-PJ-11PJ 0,00 0,00 0,00 180,00 0,00 0,00 0,00 0,00 0,00 31/01/2024
77 1577200 ALAN FELIPE GUIMARAES MOREIRA ESTAGIARIO SETE LAGOAS; SETE LAGOAS-PJ-05PJ 0,00 0,00 0,00 180,00 0,00 0,00 0,00 0,00 0,00 31/01/2024
78 464400 ALAN MONTEIRO GASPAR ANALISTA DO MP SETE LAGOAS - COMARCA; SETE LAGOAS-PJ-08PJ 1.978,00 0,00 605,00 0,00 0,00 0,00 0,00 0,00 0,00 31/01/2024
79 1591400 ALANA BARCELOS DA ROCHA ESTAGIARIO SANTA LUZIA; SANTA LUZIA-PJ-01PJ 0,00 0,00 0,00 54,00 375,00 0,00 0,00 0,00 0,00 31/01/2024
80 492000 ALANA DE CASTRO FREITAS OFICIAL DO MP BELO HORIZONTE - COMARCA; SECRETARIA DO PROCON-MG 1.978,00 0,00 605,00 0,00 5.950,13 0,00 0,00 0,00 0,00 31/01/2024
81 306700 ALANA MARCIA DE OLIVEIRA OFICIAL DO MP BELO HORIZONTE - COMARCA; DIRETORIA DE ADMINISTRACAO FINANCEIRA 1.978,00 0,00 605,00 0,00 5.776,81 0,00 0,00 0,00 0,00 31/01/2024
82 1523000 ALANA REZENDE BELTRAME ESTAGIARIO DIVINOPOLIS; DIVINOPOLIS-PJ-05PJ 0,00 0,00 0,00 180,00 0,00 0,00 0,00 0,00 0,00 31/01/2024
83 324500 ALANMAR COUTINHO COSTA OFICIAL DO MP LEOPOLDINA - COMARCA; LEOPOLDINA-PJ-02PJ 1.978,00 0,00 605,00 0,00 5.776,81 0,00 0,00 0,00 0,00 31/01/2024
84 170800 ALBERTO BOGLIOLO SIRIHAL PROCURADOR DE JUSTICA BELO HORIZONTE - COMARCA; GABINETE DE PROCURADOR DE JUSTIÇA - SALA 414 1.978,00 1.146,58 3.759,00 0,00 20.825,46 0,00 0,00 0,00 636,33 31/01/2024
85 407300 ALBERTO LUIZ SOARES DE OLIVEIRA ANALISTA DO MP BELO HORIZONTE - COMARCA; DIRETORIA DE PROJETOS DE EDIFICACOES 1.978,00 0,00 605,00 0,00 0,00 0,00 0,00 0,00 0,00 31/01/2024
86 118200 ALBERTO PEREIRA DA COSTA OFICIAL DO MP DORES DO INDAIÁ - COMARCA; DORES DO INDAIA-PJ-UNPJ 1.978,00 0,00 605,00 0,00 5.205,26 0,00 0,00 0,00 0,00 31/01/2024
87 72000 ALBINO VITORIO BERNARDO PROCURADOR DE JUSTICA BELO HORIZONTE - COMARCA; GABINETE DE PROCURADOR DE JUSTIÇA-SALA1112-T3 1.978,00 0,00 1.623,43 0,00 24.043,95 0,00 0,00 0,00 734,68 31/01/2024
88 660700 ALCIDEZIO JOSE DE OLIVEIRA BISPO JUNIOR PROMOT.ENTRANC.ESPECIAL CARATINGA - COMARCA; CARATINGA-PJ-01PJ 1.978,00 1.146,58 3.571,05 0,00 17.855,22 0,00 0,00 0,00 545,58 31/01/2024
89 282400 ALCILENE MARISE DE ARAUJO ANALISTA DO MP BELO HORIZONTE - COMARCA; BH-23PJ INF-FISC MED SOC FEC 1.978,00 0,00 605,00 0,00 0,00 0,00 0,00 0,00 0,00 31/01/2024
90 396400 ALCIONE DE FREITAS E SILVA ANALISTA DO MP BELO HORIZONTE - COMARCA; ASSESS JUR DO CONS SUPERIOR DO MINISTERIO PUB 1.978,00 0,00 605,00 0,00 0,00 0,00 0,00 0,00 0,00 31/01/2024
91 657400 ALCIONE MARIA FERREIRA ASSESSOR PROCURADOR JUSTICA BELO HORIZONTE - COMARCA; GABINETE DE PROCURADOR DE JUSTICA - SALA 313 1.978,00 1.146,58 605,00 0,00 0,00 0,00 0,00 0,00 0,00 31/01/2024
92 161600 ALCIONE NERY SOUZA ASSESSOR ADMINISTRATIVO III BELO HORIZONTE - COMARCA; BH-18PJ DIREITOS HUMANOS-SECRETARIA 1.978,00 0,00 605,00 0,00 0,00 0,00 0,00 0,00 0,00 31/01/2024
93 92000 ALCIR ARANTES PROMOT.ENTRANC.ESPECIAL UBERABA - COMARCA; UBERABA-PJ-03PJ 1.978,00 0,00 3.246,86 0,00 22.441,02 0,00 0,00 0,00 734,68 31/01/2024
94 376000 ALDA GOMES LANA OFICIAL DO MP BELO HORIZONTE - COMARCA; BH-18PJ VIOLENCIA DOMESTICA-SECRETARIA 1.978,00 0,00 605,00 0,00 5.776,81 0,00 0,00 0,00 0,00 31/01/2024
95 148000 ALDA MARTINS SIMOES OFICIAL DO MP BELO HORIZONTE - COMARCA; BH-23PJ CIVEL- FISC ENT AB POL 1.978,00 0,00 605,00 0,00 0,00 0,00 0,00 0,00 0,00 31/01/2024
96 457700 ALDERICO DE CARVALHO JUNIOR PROMOTOR 2A ENTRANCIA BELO HORIZONTE - COMARCA; PROC JUST ATUACAO TRIBUNAIS SUPERIORES-GAB002 1.978,00 2.293,16 3.392,49 0,00 16.962,47 0,00 0,00 0,00 518,30 31/01/2024
97 318400 ALDO CREPALDI JUNIOR OFICIAL DO MP BELO HORIZONTE - COMARCA; DIVISAO DE MATERIAIS 1.978,00 0,00 605,00 0,00 5.776,81 0,00 0,00 0,00 0,00 31/01/2024
98 1434100 ALECSANDER CARDOSO ESTAGIARIO ANDRADAS; ANDRADAS-PJ-02PJ 0,00 0,00 0,00 180,00 0,00 0,00 0,00 0,00 0,00 31/01/2024
99 604500 ALENIZE APARECIDA RODRIGUES HENRIQUE OFICIAL DO MP RIO NOVO - COMARCA; RIO NOVO-PJ-SECRETARIA 1.978,00 0,00 605,00 0,00 0,00 0,00 0,00 0,00 0,00 31/01/2024
100 1663400 ALESANDY DOS SANTOS FERNANDES ESTAGIARIO IPATINGA; IPATINGA-PJ-04PJ 0,00 0,00 0,00 180,00 0,00 0,00 0,00 0,00 0,00 31/01/2024
101 197900 ALESSA DE SOUSA E SILVA OFICIAL DO MP OLIVEIRA - COMARCA; OLIVEIRA-PJ-02PJ 1.978,00 0,00 605,00 0,00 6.213,67 0,00 0,00 0,00 0,00 31/01/2024
102 428500 ALESSANDRA ALVES DINIZ OFICIAL DO MP BELO HORIZONTE - COMARCA; CENTRAL DE APOIO TECNICO-SECRETARIA 1.978,00 0,00 605,00 0,00 5.863,81 0,00 0,00 0,00 0,00 31/01/2024
103 1464000 ALESSANDRA BORGES GONCALVES ESTAGIARIO ITUIUTABA; ITUIUTABA-PJ-06PJ 0,00 0,00 0,00 180,00 0,00 0,00 0,00 0,00 0,00 31/01/2024
104 286801 ALESSANDRA BOTELHO JUNQUEIRA DE MENEZES ANALISTA DO MP PASSOS - COMARCA; PASSOS-PJ-05PJ 1.978,00 1.146,58 605,00 0,00 0,00 0,00 0,00 0,00 0,00 31/01/2024
105 307000 ALESSANDRA CRISTINA SANTOS MENDES ANALISTA DO MP BELO HORIZONTE - COMARCA; BH-18PJ VIOLENCIA DOMESTICA-SECRETARIA 1.978,00 0,00 605,00 0,00 5.550,10 0,00 0,00 0,00 0,00 31/01/2024
106 264400 ALESSANDRA DE SOUZA SANTOS ANALISTA DO MP BELO HORIZONTE - COMARCA; SECRETARIA DE ASSUNTOS INTERNACIONAIS 1.978,00 0,00 605,00 0,00 0,00 0,00 0,00 0,00 0,00 31/01/2024
107 717700 ALESSANDRA DIAS DE OLIVEIRA COSTA PROMOTOR SUBSTITUTO CONTAGEM - COMARCA; CONTAGEM-PJ-20PJ 0,00 0,00 0,00 108,00 0,00 0,00 0,00 0,00 0,00 31/01/2024
108 441500 ALESSANDRA DRUMMOND DE FIGUEIREDO ROSSI ANALISTA DO MP BELO HORIZONTE - COMARCA; DIRETORIA DE PROJETOS DE EDIFICACOES 1.978,00 0,00 605,00 0,00 0,00 0,00 0,00 0,00 0,00 31/01/2024
109 524000 ALESSANDRA LUCIOLI DE BARROS ANALISTA DO MP BELO HORIZONTE - COMARCA; BH-19PJ SAUDE--SECRETARIA 1.978,00 0,00 605,00 0,00 5.924,93 0,00 0,00 0,00 0,00 31/01/2024
110 479900 ALESSANDRA MARA ANDRADE DE FARIA OFICIAL DO MP UBERABA - COMARCA; UBERABA-PJ-09PJ 1.978,00 0,00 605,00 0,00 6.254,73 0,00 0,00 0,00 0,00 31/01/2024
111 226700 ALESSANDRA MARA VASCONCELOS REZENDE OFICIAL DO MP CONSELHEIRO LAFAIETE - COMARCA; CONSELHEIRO LAFAIETE-PJ-07PJ 1.978,00 0,00 605,00 0,00 6.091,94 0,00 0,00 0,00 0,00 31/01/2024
112 196500 ALESSANDRA MARIA RIBEIRO LUCIANO OFICIAL DO MP RIO PARANAÍBA - COMARCA; RIO PARANAIBA-PJ-UNPJ 1.978,00 0,00 605,00 0,00 0,00 0,00 0,00 0,00 0,00 31/01/2024
113 290500 ALESSANDRA PINTO CASSIANO PROMOTOR 2A ENTRANCIA BOA ESPERANÇA - COMARCA; BOA ESPERANCA-PJ-02PJ 1.978,00 0,00 2.813,94 0,00 16.962,47 0,00 0,00 0,00 518,30 31/01/2024
114 651700 ALESSANDRA PROFIRIO SOUZA OFICIAL DO MP NOVA ERA - COMARCA; NOVA ERA-PJ-UNPJ 1.978,00 0,00 605,00 0,00 6.101,88 0,00 0,00 0,00 0,00 31/01/2024
115 384900 ALESSANDRA RODRIGUES ANALISTA DO MP VISCONDE DO RIO BRANCO - COMARCA; VISCONDE DO RIO BRANCO-PJ-03PJ 1.978,00 1.146,58 605,00 0,00 5.338,75 0,00 0,00 0,00 0,00 31/01/2024
116 390000 ALESSANDRA SPADANO MASSARA VASCONCELOS OFICIAL DO MP BETIM - COMARCA; BETIM-PJ-10PJ 1.978,00 0,00 605,00 0,00 0,00 0,00 0,00 0,00 0,00 31/01/2024
117 426500 ALESSANDRO CAMPOS DE PAIVA ANALISTA DO MP BELO HORIZONTE - COMARCA; DIR CRIACAO E MIDIAS 1.978,00 0,00 605,00 0,00 0,00 0,00 0,00 0,00 0,00 31/01/2024
118 623400 ALESSANDRO DE OLIVEIRA REZENDE ANALISTA DO MP BELO HORIZONTE - COMARCA; DIRET DE INFORMACAO E CONHECIMENTO-DINC/CEAF 1.978,00 0,00 605,00 0,00 5.974,31 0,00 0,00 0,00 0,00 31/01/2024
119 174100 ALESSANDRO GARCIA SILVA PROMOT.ENTRANC.ESPECIAL DIVINÓPOLIS - COMARCA; DIVINOPOLIS-PJ-12PJ 1.978,00 0,00 3.030,40 0,00 13.143,72 0,00 0,00 0,00 602,42 31/01/2024
120 308201 ALESSANDRO RAMOS MACHADO PROMOTOR 2A ENTRANCIA SÃO GONÇALO DO SAPUCAÍ - COMARCA; SAO GONCALO DO SAPUCAI-PJ-02PJ 1.978,00 0,00 3.392,49 0,00 16.962,47 0,00 0,00 0,00 518,30 31/01/2024
121 665700 ALESSANDRO ROGERIO DIAS DE OLIVEIRA PROMOT.ENTRANC.ESPECIAL PATOS DE MINAS - COMARCA; PATOS DE MINAS-PJ-07PJ 1.978,00 1.146,58 2.326,90 0,00 17.855,23 0,00 0,00 0,00 545,58 31/01/2024
122 420600 ALESSANDRO SILVA OFICIAL DO MP VISCONDE DO RIO BRANCO - COMARCA; VISCONDE DO RIO BRANCO-PJ-02PJ 1.978,00 0,00 605,00 0,00 6.025,03 0,00 0,00 0,00 0,00 31/01/2024
123 171100 ALESSIA ALVES DE ALVARENGA SANTA BARBARA PROMOT.ENTRANC.ESPECIAL CONSELHEIRO LAFAIETE - COMARCA; CONSELHEIRO LAFAIETE-PJ-06PJ 1.978,00 0,00 3.571,05 0,00 17.171,68 0,00 0,00 0,00 605,41 31/01/2024
124 375301 ALETHEIA PATRICIA ASSIS MORAIS MOREIRA ANALISTA DO MP ITABIRA - COMARCA; ITABIRA-PJ-02PJ 1.978,00 1.146,58 605,00 0,00 5.776,81 0,00 0,00 0,00 0,00 31/01/2024
125 382300 ALEX CARVALHO LIMA ANALISTA DO MP UBERLÂNDIA - COMARCA; UBERLANDIA-PJ-14PJ 1.978,00 1.146,58 605,00 0,00 5.338,75 0,00 0,00 0,00 0,00 31/01/2024
126 195201 ALEX DE CASTRO PEREIRA ANALISTA DO MP UBERABA - COMARCA; UBERABA-PJ-09PJ 1.978,00 0,00 605,00 0,00 5.167,75 0,00 0,00 0,00 0,00 31/01/2024
127 358900 ALEX DE PAULA LANZA ASSESSOR ADMINISTRATIVO IV BELO HORIZONTE - COMARCA; DIR CONTEUDO JORNALISTICO 1.978,00 1.146,58 605,00 0,00 0,00 0,00 0,00 0,00 0,00 31/01/2024
128 171400 ALEX FERNANDES SANTIAGO PROMOT.ENTRANC.ESPECIAL JUIZ DE FORA - COMARCA; JUIZ DE FORA-PJ-08PJ 1.978,00 1.146,58 2.868,05 0,00 19.813,47 0,00 0,00 0,00 605,41 31/01/2024
129 685300 ALEX RAFAEL BITTENCOURT PROMOTOR SUBSTITUTO LEOPOLDINA - COMARCA; LEOPOLDINA-PJ-04PJ 1.978,00 0,00 947,00 0,00 16.114,35 0,00 0,00 0,00 492,38 31/01/2024
130 178400 ALEX RODRIGO SALDANHA GUIMARAES OFICIAL DO MP BELO HORIZONTE - COMARCA; DIRETORIA DE SISTEMAS DE INFORMACAO 1.978,00 0,00 605,00 0,00 0,00 0,00 0,00 0,00 0,00 31/01/2024
131 715700 ALEX SANDRO AMORIM LEAO ESTAGIARIO VARGINHA; VARGINHA-PJ-07PJ 1.978,00 0,00 0,00 0,00 0,00 0,00 0,00 0,00 0,00 31/01/2024
132 314100 ALEX SOARES NACIF PROMOT.ENTRANC.ESPECIAL CONTAGEM - COMARCA; CONTAGEM-PJ-15PJ 1.978,00 0,00 2.031,77 0,00 15.474,53 0,00 0,00 0,00 545,58 31/01/2024
133 413500 ALEX VILELA OLIVEIRA ANALISTA DO MP GOVERNADOR VALADARES - COMARCA; COORD REG PJ DEF EDU DIR CRIANCA ADOL RIODOCE 1.978,00 0,00 605,00 0,00 5.840,90 0,00 0,00 0,00 0,00 31/01/2024
134 264300 ALEXANDRA FATIMA SARAIVA SOARES ANALISTA DO MP BELO HORIZONTE - COMARCA; CENTRAL DE APOIO TECN-SETOR DE MEIO AMBIENTE 1.978,00 0,00 605,00 0,00 0,00 0,00 0,00 0,00 0,00 31/01/2024
135 488000 ALEXANDRA LARA PAIS DE CARVALHO ANALISTA DO MP SABARÁ - COMARCA; SABARA-PJ-04PJ 1.978,00 0,00 605,00 0,00 5.924,93 0,00 0,00 0,00 0,00 31/01/2024
136 1539700 ALEXANDRA REALINA MENDES DE ARAUJO ESTAGIARIO RIBEIRAO DAS NEVES; RIBEIRAO DAS NEVES-PJ-05PJ 0,00 0,00 0,00 180,00 0,00 0,00 0,00 0,00 0,00 31/01/2024
137 256300 ALEXANDRA SANTOS GOMES OFICIAL DO MP BELO HORIZONTE - COMARCA; DIRETORIA GESTAO COMPRAS LICITACOES 1.978,00 0,00 605,00 0,00 0,00 0,00 0,00 0,00 0,00 31/01/2024
138 236300 ALEXANDRE ALVES DE OLIVEIRA PROMOT.ENTRANC.ESPECIAL BELO HORIZONTE - COMARCA; BH-12PJ JUIZO CRIMINAL-GAB 101PJ 1.978,00 0,00 1.244,63 0,00 12.556,24 0,00 0,00 0,00 0,00 31/01/2024
139 403300 ALEXANDRE AUGUSTO RODRIGUES ANALISTA DO MP ÁGUAS FORMOSAS - COMARCA; AGUAS FORMOSAS-PJ-UNPJ 1.978,00 2.293,16 605,00 0,00 0,00 0,00 0,00 0,00 0,00 31/01/2024
140 640900 ALEXANDRE BARBOSA MASCARENHAS ANALISTA DO MP BETIM - COMARCA; BETIM-PJ-02PJ 1.978,00 0,00 605,00 0,00 0,00 0,00 0,00 0,00 0,00 31/01/2024
141 311700 ALEXANDRE BARCELOS RESENDE OFICIAL DO MP BELO HORIZONTE - COMARCA; BH-17PJ PATRIMONIO PUBLICO-SECRETARIA 1.978,00 1.146,58 605,00 0,00 5.830,52 0,00 0,00 0,00 534,46 31/01/2024
142 293700 ALEXANDRE BRASILEIRO DE QUEIROZ PROMOT.ENTRANC.ESPECIAL BELO HORIZONTE - COMARCA; BH-12PJ JUIZO CRIMINAL-GAB 092PJ 1.978,00 0,00 3.571,05 0,00 10.713,13 0,00 0,00 0,00 545,58 31/01/2024
143 285600 ALEXANDRE CAMPOS DE OLIVEIRA OFICIAL DO MP UBERABA - COMARCA; COORD REG BACIAS PARANAIBA BAIXO RIO GRANDE 1.978,00 0,00 605,00 0,00 6.221,18 0,00 0,00 0,00 0,00 31/01/2024
144 509200 ALEXANDRE CAPUANO DE REZENDE ANALISTA DO MP BELO HORIZONTE - COMARCA; BH-07PJ 03 TRIBUNAL DO JURI-GAB 061PJ 1.978,00 0,00 605,00 0,00 0,00 0,00 0,00 0,00 0,00 31/01/2024
145 229400 ALEXANDRE CARLOS BOTREL SUPERINTENDENTE BELO HORIZONTE - COMARCA; SUPERINTENDENCIA DOS ORGAOS COLEGIADOS 1.978,00 0,00 605,00 0,00 6.014,39 0,00 0,00 0,00 0,00 31/01/2024
146 411900 ALEXANDRE CARVALHO SANTOS RIBEIRO ANALISTA DO MP OLIVEIRA - COMARCA; OLIVEIRA-PJ-02PJ 1.978,00 1.146,58 605,00 0,00 5.840,90 0,00 0,00 0,00 0,00 31/01/2024
147 641600 ALEXANDRE DA SILVA ASSUNCAO OFICIAL DO MP BELO HORIZONTE - COMARCA; SERVICO MEDICO-DEPTO PERIC MEDICA SAUDE OCUP 1.978,00 1.146,58 605,00 0,00 0,00 0,00 0,00 0,00 0,00 31/01/2024
148 201200 ALEXANDRE DE ALENCAR CORDEIRO OFICIAL DO MP ÁGUAS FORMOSAS - COMARCA; AGUAS FORMOSAS-PJ-UNPJ 1.978,00 0,00 605,00 0,00 6.125,47 0,00 0,00 0,00 0,00 31/01/2024
149 288200 ALEXANDRE DE VASCONCELOS COSTA KER ANALISTA DO MP BELO HORIZONTE - COMARCA; BH-03PJ EMPRESARIAL-SECRETARIA 1.978,00 0,00 605,00 0,00 5.167,75 0,00 0,00 0,00 0,00 31/01/2024
150 445000 ALEXANDRE DIOGENES OLIVEIRA ANALISTA DO MP SALINAS - COMARCA; SALINAS-PJ-02PJ 1.978,00 1.146,58 605,00 0,00 0,00 0,00 0,00 0,00 0,00 31/01/2024
151 665800 ALEXANDRE FIGUEIREDO MORATO PROMOT.ENTRANC.ESPECIAL MANHUAÇU - COMARCA; MANHUACU-PJ-05PJ 1.978,00 0,00 892,88 0,00 11.903,49 0,00 0,00 0,00 0,00 31/01/2024
152 1444200 ALEXANDRE FURTADO DE MACEDO CASTRO ESTAGIARIO BELO HORIZONTE; BH-17PJ PATRIMONIO PUBLICO-GAB 120PJ 0,00 0,00 0,00 108,00 0,00 0,00 0,00 0,00 0,00 31/01/2024
153 1475100 ALEXANDRE LABOSSIERE DE ALMEIDA MUZZI ESTAGIARIO BELO HORIZONTE; DIVISAO DE MANUTENCAO PREDIAL 0,00 0,00 0,00 360,00 0,00 0,00 0,00 0,00 0,00 31/01/2024
154 463400 ALEXANDRE LEAL WINKELSTROTER ANALISTA DO MP TEÓFILO OTONI - COMARCA; TEOFILO OTONI-PJ-04PJ 1.978,00 0,00 605,00 0,00 6.221,18 0,00 0,00 0,00 0,00 31/01/2024
155 96600 ALEXANDRE LIBERO BARONI PROMOT.ENTRANC.ESPECIAL SETE LAGOAS - COMARCA; SETE LAGOAS-PJ-04PJ 1.978,00 0,00 3.571,05 0,00 6.930,87 0,00 0,00 0,00 635,33 31/01/2024
156 615700 ALEXANDRE LUIZ DE CASTRO MACIEL ANALISTA DO MP BELO HORIZONTE - COMARCA; BH-08PJ JUIZADO ESPECIAL-GAB 163PJ 1.978,00 1.146,58 605,00 0,00 5.727,44 0,00 0,00 0,00 0,00 31/01/2024
157 1677900 ALEXANDRE MAGNO DE CARVALHO GONCALVES ESTAGIARIO BELO HORIZONTE; PROC. JUSTICA DIR. DIFUSOS E COLETIVOS-SEC 0,00 0,00 0,00 180,00 0,00 0,00 0,00 0,00 0,00 31/01/2024
158 356900 ALEXANDRE MOISES MENDONCA E ARAUJO OFICIAL DO MP UBERABA - COMARCA; UBERABA-PJ-13PJ 1.978,00 1.146,58 605,00 0,00 0,00 0,00 0,00 0,00 0,00 31/01/2024
159 232100 ALEXANDRE MOTTA BENEVIDES PROMOT.ENTRANC.ESPECIAL BELO HORIZONTE - COMARCA; BH-02PJ FAMILIA-GAB 034PJ 1.978,00 0,00 2.922,17 0,00 9.294,39 0,00 0,00 0,00 608,56 31/01/2024
160 633300 ALEXANDRE NONATO MARTINS OFICIAL DO MP CAMPESTRE - COMARCA; CAMPESTRE-PJ-UNPJ 1.978,00 0,00 605,00 0,00 6.000,57 0,00 0,00 0,00 0,00 31/01/2024
161 469900 ALEXANDRE PEREIRA GUEDES ANALISTA DO MP CATAGUASES - COMARCA; CATAGUASES-PJ-03PJ 1.978,00 0,00 605,00 0,00 5.924,93 0,00 0,00 0,00 0,00 31/01/2024
162 208700 ALEXANDRE RESENDE FRAGA ANALISTA DO MP BELO HORIZONTE - COMARCA; BH-19PJ SAUDE-SECRETARIA 130PJ 1.978,00 0,00 605,00 0,00 5.167,75 0,00 0,00 0,00 473,71 31/01/2024
163 156900 ALEXANDRE REZENDE GRILLO PROMOTOR 2A ENTRANCIA CAMBUÍ - COMARCA; CAMBUI-PJ-02PJ 1.978,00 0,00 3.392,49 0,00 18.822,81 0,00 0,00 0,00 575,14 31/01/2024
164 216401 ALEXANDRE RIBEIRO DE LIMA MAIORINO ANALISTA DO MP UBERABA - COMARCA; UBERABA-PJ-03PJ 1.978,00 0,00 605,00 0,00 5.167,75 0,00 0,00 0,00 0,00 31/01/2024
165 475100 ALEXANDRE TEOTONIO COSTA ANALISTA DO MP ARAGUARI - COMARCA; ARAGUARI-PJ-01PJ 1.978,00 0,00 605,00 0,00 5.924,93 0,00 0,00 0,00 0,00 31/01/2024
166 339000 ALEXANDRE VITOR CARDOSO OFICIAL DO MP BELO HORIZONTE - COMARCA; BH-23PJ INFRACIONAL-SEC EXP 1.978,00 0,00 605,00 0,00 6.245,57 0,00 0,00 0,00 0,00 31/01/2024
167 694000 ALEXANDRO ANTONIO PORTO E SOUZA INVESTIGADOR DE POLICIA 2 BELO HORIZONTE - COMARCA; GAECO - SETOR POLICIAL CIVIL 1.978,00 0,00 0,00 0,00 0,00 0,00 0,00 0,00 0,00 31/01/2024
168 1428500 ALEXIA ESTEFANIE ALVES LEANDRO ESTAGIARIO BELO HORIZONTE; BH-19PJ SAUDE-GAB 130PJ 0,00 0,00 0,00 108,00 0,00 0,00 0,00 0,00 0,00 31/01/2024
169 726800 ALEXIA MORAES ESTAGIARIO BELO HORIZONTE; PROCURADORIA DE JUSTIÇA CÍVEL 1.978,00 0,00 605,00 0,00 4.872,71 0,00 0,00 0,00 0,00 31/01/2024
170 623100 ALEXSANDER BATISTA AGUIAR COORDENADOR II BELO HORIZONTE - COMARCA; DIRETORIA DE SUPORTE E MANUTENCAO 1.978,00 1.146,58 605,00 0,00 5.420,89 0,00 0,00 0,00 0,00 31/01/2024
171 717800 ALEXSANDER SIQUEIRA SILVA PROMOTOR SUBSTITUTO NOVA ERA - COMARCA; NOVA ERA-PJ-UNPJ 0,00 0,00 0,00 180,00 0,00 0,00 0,00 0,00 0,00 31/01/2024
172 1481100 ALEXSANDRA GONCALVES DA SILVA ESTAGIARIO BELO HORIZONTE; CAO-FUNDACOES 0,00 0,00 0,00 180,00 0,00 0,00 0,00 0,00 0,00 31/01/2024
173 513300 ALFSON MIRANDA BRAGA ANALISTA DO MP BELO HORIZONTE - COMARCA; BH-12PJ JUIZO CRIMINAL-GAB 087PJ 1.978,00 0,00 605,00 0,00 0,00 0,00 0,00 0,00 0,00 31/01/2024
174 157000 ALI MAHMOUD FAYEZ AYOUB PROMOTOR 2A ENTRANCIA GUAXUPÉ - COMARCA; GUAXUPE-PJ-02PJ 1.978,00 0,00 3.392,49 0,00 21.720,87 0,00 0,00 0,00 663,69 31/01/2024
175 1524600 ALICE BRAGA MOREIRA DAVI ESTAGIARIO MERCES; MERCES-PJ-UNPJ 0,00 0,00 0,00 180,00 0,00 0,00 0,00 0,00 0,00 31/01/2024
176 1687600 ALICE DE CAMPOS ALVES ESTAGIARIO BELO HORIZONTE; NUCLEO DE ACORDOS DE NAO PERSECUCAO PENAL BH 0,00 0,00 0,00 180,00 0,00 0,00 0,00 0,00 0,00 31/01/2024
177 485300 ALICE DE MELLO VILELA PROMOT.ENTRANC.ESPECIAL CONTAGEM - COMARCA; CONTAGEM-PJ-06PJ 1.978,00 0,00 1.082,28 0,00 13.093,83 0,00 0,00 0,00 545,58 31/01/2024
178 1634100 ALICE DE MELO CAMPOS ESTAGIARIO CARATINGA; CARATINGA-PJ-05PJ 0,00 0,00 0,00 270,00 0,00 0,00 0,00 0,00 0,00 31/01/2024
179 705200 ALICE FARIA CUNHA ESTAGIARIO PATROCINIO; PATROCINIO-PJ-05PJ 1.978,00 0,00 605,00 0,00 0,00 0,00 0,00 0,00 0,00 31/01/2024
180 1644100 ALICE LUIZA RODRIGUES DIAS ESTAGIARIO BELO HORIZONTE; DIR CRIACAO E MIDIAS 0,00 0,00 0,00 180,00 0,00 0,00 0,00 0,00 0,00 31/01/2024
181 618400 ALICE MAGALHAES MACEDO DE CARVALHO ANALISTA DO MP IPATINGA - COMARCA; IPATINGA-PJ-10PJ 1.978,00 1.146,58 605,00 0,00 5.974,31 0,00 0,00 0,00 0,00 31/01/2024
182 707000 ALICE MARIA RIBEIRO DINIZ ASSESSOR PROMOTOR JUSTICA BELO HORIZONTE - COMARCA; PROC JUST ATUACAO TRIBUNAIS SUPERIORES-GAB003 0,00 0,00 0,00 180,00 0,00 0,00 0,00 0,00 0,00 31/01/2024
183 1585500 ALICE MARIANA DA SILVA ESTAGIARIO TRES CORACOES; TRES CORACOES-PJ-06PJ 0,00 0,00 0,00 162,00 0,00 0,00 0,00 0,00 0,00 31/01/2024
184 471000 ALICE TITONELI MOREIRA ANALISTA DO MP MIRADOURO - COMARCA; MIRADOURO-PJ-UNPJ 1.978,00 1.146,58 605,00 0,00 0,00 0,00 0,00 0,00 0,00 31/01/2024
185 1596200 ALICIA GABRIELLA ALVES COSTA MAXIMO ESTAGIARIO BETIM; BETIM-PJ-05PJ 0,00 0,00 0,00 180,00 0,00 0,00 0,00 0,00 0,00 31/01/2024
186 731600 ALICIA PAULA RODRIGUES DE LIMA ASSESSOR PROMOTOR JUSTICA TIROS - COMARCA; TIROS-PJ-UNPJ 0,00 0,00 0,00 72,00 0,00 0,00 0,00 0,00 0,00 31/01/2024
187 725800 ALINE ALBIERI FRANCISCO ASSESSOR PROMOTOR JUSTICA BELO HORIZONTE - COMARCA; CAO-ORDEM ECONOMICA E TRIBUTARIA-ASSESS TECN 0,00 0,00 0,00 180,00 0,00 0,00 0,00 0,00 0,00 31/01/2024
188 733200 ALINE APARECIDA DO PRADO TERRITO ASSESSOR ADMINISTRATIVO II BELO HORIZONTE - COMARCA; ESCRITORIO DE PROTECAO DE DADOS PESSOAIS 0,00 0,00 0,00 18,00 0,00 0,00 0,00 0,00 0,00 31/01/2024
189 1612300 ALINE APARECIDA SOARES FERREIRA ESTAGIARIO BELO HORIZONTE; COORD REG SAUDE MACRORREGIAO SANITARIA CENTRO
190 622400 ALINE BALBINO PORTUGAL LOPES ANALISTA DO MP TRÊS PONTAS - COMARCA; TRES PONTAS-PJ-03PJ 1.978,00 1.146,58 605,00 0,00 5.974,31 0,00 0,00 0,00 0,00 31/01/2024
191 373000 ALINE BOTELHO RESENDE OFICIAL DO MP JUIZ DE FORA - COMARCA; JUIZ DE FORA-PJ-22PJ 1.978,00 0,00 605,00 0,00 0,00 0,00 0,00 0,00 0,00 31/01/2024
192 758600 ALINE BRAGA MESSIAS ASSESSOR PROMOTOR JUSTICA BELO HORIZONTE - COMARCA; BH-02PJ FAMILIA 1.438,54 0,00 605,00 0,00 0,00 0,00 0,00 0,00 0,00 31/01/2024
193 1538700 ALINE CORREA DA SILVA ESTAGIARIO CONTAGEM; CONTAGEM-PJ-18PJ 0,00 0,00 0,00 108,00 0,00 0,00 0,00 0,00 0,00 31/01/2024
194 699800 ALINE CRISTINA DE OLIVEIRA AMARAL BARBOSA ASSESSOR PROCURADOR JUSTICA BELO HORIZONTE - COMARCA; GABINETE DE PROCURADOR DE JUSTIÇA - SALA 904 1.978,00 0,00 605,00 0,00 0,00 0,00 0,00 0,00 0,00 31/01/2024
195 407700 ALINE CRISTINA RODRIGUES PEREIRA COORDENADOR II BELO HORIZONTE - COMARCA; DIRETORIA DE PROJETOS DE EDIFICACOES 1.978,00 0,00 605,00 0,00 5.338,75 0,00 0,00 0,00 0,00 31/01/2024
196 193100 ALINE CRISTINA SENA OLIVEIRA OFICIAL DO MP UBERLÂNDIA - COMARCA; UBERLANDIA-PJ-03PJ 1.978,00 1.146,58 605,00 0,00 5.977,03 0,00 0,00 0,00 0,00 31/01/2024
197 554200 ALINE CRISTINA SILVA SOUZA OFICIAL DO MP TIROS - COMARCA; TIROS-PJ-UNPJ 1.978,00 0,00 605,00 0,00 0,00 0,00 0,00 0,00 0,00 31/01/2024
198 505500 ALINE DA CUNHA MARREIROS OLIVEIRA ANALISTA DO MP EUGENÓPOLIS - COMARCA; EUGENOPOLIS-PJ-UNPJ 1.978,00 2.293,16 605,00 0,00 0,00 0,00 0,00 0,00 0,00 31/01/2024
199 433500 ALINE DE MELO QUEIROZ OFICIAL DO MP BELO HORIZONTE - COMARCA; ASSESSORIA JURIDICA DO PROCON-MG 1.978,00 1.146,58 605,00 0,00 0,00 0,00 0,00 0,00 0,00 31/01/2024
200 691100 ALINE DE MELO SOUZA ASSESSOR PROCURADOR JUSTICA BELO HORIZONTE - COMARCA; GABINETE DE PROCURADOR DE JUSTIÇA - SALA 401 1.978,00 0,00 605,00 0,00 0,00 0,00 0,00 0,00 0,00 31/01/2024
201 542700 ALINE DE SOUSA ALBINO ANALISTA DO MP CONTAGEM - COMARCA; CONTAGEM-PJ-09PJ 1.978,00 0,00 605,00 0,00 5.924,93 0,00 0,00 0,00 0,00 31/01/2024
202 330000 ALINE DIORIO MAYRINK OFICIAL DO MP BELO HORIZONTE - COMARCA; SUPER DE GESTAO DE PESSOAS-LOTACAO TEMPORARIA 1.978,00 0,00 605,00 0,00 6.249,73 0,00 0,00 0,00 0,00 31/01/2024
203 706700 ALINE DOS SANTOS JESUS SILVA ESTAGIARIO BELO HORIZONTE; DSMT-LABORATORIO DE MANUTENCAO 1.978,00 0,00 605,00 0,00 0,00 0,00 0,00 0,00 0,00 31/01/2024
204 499000 ALINE FERREIRA LOPES ANALISTA DO MP TEÓFILO OTONI - COMARCA; TEOFILO OTONI-PJ-09PJ 1.978,00 0,00 605,00 0,00 5.924,93 0,00 0,00 0,00 0,00 31/01/2024
205 405300 ALINE LAIA CARDOZO SUPERINTENDENTE BELO HORIZONTE - COMARCA; SUPERINTENDENCIA LOGISTICA SERVICOS 1.978,00 0,00 605,00 0,00 5.826,79 0,00 0,00 0,00 0,00 31/01/2024
206 1549400 ALINE MARCAL ALEIXO ESTAGIARIO CONTAGEM; CONTAGEM-PJ-05PJ 0,00 0,00 0,00 180,00 0,00 0,00 0,00 0,00 0,00 31/01/2024
207 278200 ALINE MARCIA FARIA BARBOSA FERNANDES OFICIAL DO MP BARBACENA - COMARCA; BARBACENA-PJ-SECRETARIA 1.978,00 0,00 605,00 0,00 5.889,24 0,00 0,00 0,00 0,00 31/01/2024
208 1490300 ALINE MENDES CARDOZO ESTAGIARIO CURVELO; CURVELO-PJ-03PJ 0,00 0,00 0,00 126,00 0,00 0,00 0,00 0,00 0,00 31/01/2024
209 389000 ALINE NERI NOBRE ANALISTA DO MP MONTES CLAROS - COMARCA; COORD REG PJ DEF EDUC DIR CRIANCA ADOL NORTE 1.978,00 0,00 605,00 0,00 5.749,43 0,00 0,00 0,00 0,00 31/01/2024
210 294600 ALINE PATRICIA SILVA VIEIRA OFICIAL DO MP UBERLÂNDIA - COMARCA; UBERLANDIA-PJ-03PJ 1.978,00 0,00 605,00 0,00 6.118,78 0,00 1.771,66 0,00 0,00 31/01/2024
211 420000 ALINE RODRIGUES CAMOROPIN ANALISTA DO MP SABARÁ - COMARCA; SABARA-PJ-02PJ 1.978,00 0,00 605,00 0,00 5.840,90 0,00 0,00 0,00 0,00 31/01/2024
212 1615200 ALINE RODRIGUES DOS SANTOS ESTAGIARIO ITAMBACURI; ITAMBACURI-PJ-02PJ 0,00 0,00 0,00 180,00 0,00 0,00 0,00 0,00 0,00 31/01/2024
213 715800 ALINE SANTOS PEDROSA MAIA BARBOSA ASSESSOR PROCURADOR JUSTICA BELO HORIZONTE - COMARCA; GABINETE DE PROCURADOR DE JUSTIÇA - SALA 1010 1.978,00 0,00 605,00 0,00 0,00 0,00 0,00 0,00 0,00 31/01/2024
214 699600 ALINE SEPULVEDA ROSA PIRES ASSESSOR PROCURADOR JUSTICA BELO HORIZONTE - COMARCA; GABINETE DE PROCURADOR DE JUSTIÇA - SALA 905 1.978,00 0,00 605,00 0,00 4.229,23 0,00 0,00 0,00 387,68 31/01/2024
215 408300 ALINE SILVA ARAUJO DE PAULA ANALISTA DO MP SÃO SEBASTIÃO DO PARAÍSO - COMARCA; SAO SEBASTIAO DO PARAISO-PJ-02PJ 1.978,00 0,00 605,00 0,00 5.840,90 0,00 0,00 0,00 0,00 31/01/2024
216 665900 ALINE SILVA BARROS PROMOTOR 2A ENTRANCIA FRUTAL - COMARCA; FRUTAL-PJ-02PJ 1.978,00 0,00 2.248,58 0,00 16.962,47 0,00 0,00 0,00 518,30 31/01/2024
217 1554300 ALINE SILVA MONTOVANI ESTAGIARIO VARGINHA; GAECO REGIONAL DE VARGINHA 0,00 0,00 0,00 162,00 0,00 0,00 0,00 0,00 0,00 31/01/2024
218 734300 ALINE TAVARES GURGEL ASSESSOR ADMINISTRATIVO III BELO HORIZONTE - COMARCA; SECRETARIA-GERAL 1.978,00 0,00 605,00 0,00 0,00 0,00 0,00 0,00 0,00 31/01/2024
219 425400 ALINE TRINDADE DE FREITAS CAMPOS OFICIAL DO MP BELO HORIZONTE - COMARCA; PROMOT ESTADUAL DE DEF PATRI CULT E TUR DE MG 1.978,00 0,00 605,00 0,00 0,00 0,00 0,00 0,00 0,00 31/01/2024
220 753900 ALINI PEREIRA DE ALMEIDA ASSESSOR PROMOTOR JUSTICA CAMPOS GERAIS - COMARCA; CAMPOS GERAIS-PJ-01PJ 1.978,00 0,00 605,00 0,00 0,00 0,00 0,00 0,00 0,00 31/01/2024
221 1587800 ALINITY DA SILVA CORREIA ESTAGIARIO CARANGOLA; CARANGOLA-PJ-03PJ 0,00 0,00 0,00 126,00 0,00 0,00 0,00 0,00 0,00 31/01/2024
222 1699700 ALISON LUIZ DE OLIVEIRA ESTAGIARIO BELO HORIZONTE; DIRET DE INFORMACAO E CONHECIMENTO-DINC/CEAF 0,00 0,00 0,00 180,00 0,00 0,00 0,00 0,00 0,00 31/01/2024
223 517200 ALISSOM PEREIRA DA SILVA ANALISTA DO MP BORDA DA MATA - COMARCA; BORDA DA MATA-PJ-UNPJ 1.978,00 1.146,58 605,00 0,00 5.776,81 0,00 0,00 0,00 0,00 31/01/2024
224 1676900 ALISSON FERNANDES PEREIRA ESTAGIARIO LAVRAS; LAVRAS-PJ-01PJ 0,00 0,00 0,00 180,00 0,00 0,00 0,00 0,00 0,00 31/01/2024
225 442400 ALISSON LABRE ANALISTA DO MP VARGINHA - COMARCA; VARGINHA-PJ-03PJ 1.978,00 0,00 605,00 0,00 5.870,43 0,00 0,00 0,00 0,00 31/01/2024
226 707000 ALLAN HENRIQUE DE MORAIS ESTAGIARIO MATIAS BARBOSA; MATIAS BARBOSA-PJ-UNPJ 0,00 0,00 0,00 180,00 0,00 0,00 0,00 0,00 0,00 31/01/2024
227 643800 ALLAN PAUL FONSECA DE CASTRO OFICIAL DO MP CONTAGEM - COMARCA; CONTAGEM-PJ-SECRETARIA 1.978,00 1.146,58 605,00 0,00 4.366,19 0,00 0,00 0,00 400,23 31/01/2024
228 612900 ALLAN VINICIUS VIEIRA ARAUJO COORDENADOR II BELO HORIZONTE - COMARCA; DIRETORIA DE GESTAO DOCUMENTAL 1.978,00 0,00 605,00 0,00 5.420,89 0,00 0,00 0,00 0,00 31/01/2024
229 1406800 ALLANA LUISA PIRES DA CUNHA ESTAGIARIO TRES MARIAS; TRES MARIAS-PJ-UNPJ 0,00 0,00 0,00 180,00 0,00 0,00 0,00 0,00 0,00 31/01/2024
230 729100 ALLANA MOREIRA ARQUETTI GUALTER LEITE ESTAGIARIO MESQUITA; MESQUITA-PJ-UNPJ 1.978,00 0,00 605,00 0,00 0,00 0,00 0,00 0,00 0,00 31/01/2024
231 349000 ALLEC RODRIGUES VIEIRA OFICIAL DO MP CAPINÓPOLIS - COMARCA; CAO-CIVEL 1.978,00 0,00 605,00 0,00 5.776,81 0,00 0,00 0,00 0,00 31/01/2024
232 532400 ALLENDER BARRETO LIMA DA SILVA PROMOTOR 2A ENTRANCIA CAETÉ - COMARCA; CAETE-PJ-01PJ 1.978,00 0,00 947,00 0,00 0,00 0,00 0,00 0,00 0,00 31/01/2024
233 297300 ALLYSON SALIBA MONTEIRO LAIZO ANALISTA DO MP CONSELHEIRO LAFAIETE - COMARCA; CONSELHEIRO LAFAIETE-PJ-03PJ 1.978,00 1.146,58 605,00 0,00 5.998,28 0,00 0,00 0,00 0,00 31/01/2024
234 68900 ALMIR ALVES MOREIRA PROCURADOR DE JUSTICA BELO HORIZONTE - COMARCA; GABINETE DE PROCURADOR DE JUSTIÇA - SALA 1012 1.978,00 0,00 3.111,57 0,00 24.043,95 0,00 0,00 0,00 734,68 31/01/2024
235 226601 ALMIR GERALDO GUIMARAES PROMOTOR 2A ENTRANCIA MATEUS LEME - COMARCA; MATEUS LEME-PJ-02PJ 1.978,00 2.293,16 3.392,49 0,00 10.177,49 0,00 0,00 0,00 518,30 31/01/2024
236 303700 ALMIR LOPES LOURES ANALISTA DO MP BELO HORIZONTE - COMARCA; CENTRAL DE APOIO TECN-SETOR DE MEIO AMBIENTE 1.978,00 0,00 605,00 0,00 5.998,28 0,00 0,00 0,00 0,00 31/01/2024
237 743900 ALMIR MOREIRA DOS SANTOS ANALISTA DO MP BELO HORIZONTE - COMARCA; DIRETORIA DE ADMINISTRACAO FINANCEIRA 1.978,00 0,00 605,00 0,00 0,00 0,00 0,00 0,00 0,00 31/01/2024
238 440700 ALOISIO CUNHA SOARES JUNIOR PROMOTOR 2A ENTRANCIA PATROCÍNIO - COMARCA; PATROCINIO-PJ-04PJ 1.978,00 0,00 3.208,90 0,00 10.177,49 0,00 0,00 0,00 518,30 31/01/2024
239 90600 ALOISIO RABELO DE REZENDE PROMOT.ENTRANC.ESPECIAL VARGINHA - COMARCA; VARGINHA-PJ-01PJ 1.978,00 0,00 3.571,05 0,00 16.003,90 0,00 0,00 0,00 733,51 31/01/2024
240 696600 ALOIZIO MARTINS JALES JUNIOR ASSESSOR PROMOTOR JUSTICA CAMPESTRE - COMARCA; CAMPESTRE-PJ-SECRETARIA 1.978,00 0,00 605,00 0,00 3.171,92 0,00 0,00 0,00 0,00 31/01/2024
241 515900 ALTAIR NEVES JUNIOR OFICIAL DO MP BELO HORIZONTE - COMARCA; BH-01PJ FAZENDA PUBLICA-SECRETARIA 1.978,00 0,00 605,00 0,00 6.057,50 0,00 0,00 0,00 0,00 31/01/2024
242 290800 ALUISIA BERALDO RIBEIRO PROMOT.ENTRANC.ESPECIAL UBERLÂNDIA - COMARCA; UBERLANDIA-PJ-14PJ 1.978,00 0,00 1.785,77 0,00 0,00 0,00 0,00 0,00 0,00 31/01/2024
243 233300 ALVARINDO BATISTA ANALISTA DO MP BELO HORIZONTE - COMARCA; DIR CRIACAO E MIDIAS 1.978,00 1.031,92 605,00 0,00 0,00 0,00 0,00 0,00 0,00 31/01/2024
244 1440700 ALVARO AUGUSTO RODRIGUES E SILVA ESTAGIARIO UBERLANDIA; UBERLANDIA-PJ-13PJ 0,00 0,00 0,00 72,00 916,67 0,00 0,00 0,00 0,00 31/01/2024
245 741700 ALVARO CALAZANS DE SOUZA NETO PROMOTOR SUBSTITUTO ITAMARANDIBA - COMARCA; ITAMARANDIBA-PJ-UNPJ 1.978,00 0,00 1.900,59 0,00 0,00 0,00 0,00 0,00 0,00 31/01/2024
246 750400 ALVARO HENRIQUE FERREIRA DA SILVA OFICIAL DO MP COMARCA - JUATUBA; JUATUBA-PJ-UNPJ 1.978,00 0,00 605,00 0,00 0,00 0,00 0,00 0,00 0,00 31/01/2024
247 1599600 ALYNE MARIA EMERICK RABELO ESTAGIARIO MANHUMIRIM; MANHUMIRIM-PJ-02PJ 0,00 0,00 0,00 180,00 0,00 0,00 0,00 0,00 0,00 31/01/2024
248 1633600 ALYNE NEVES BARBOSA ESTAGIARIO RIO PIRACICABA; RIO PIRACICABA-PJ-UNPJ 0,00 0,00 0,00 180,00 0,00 0,00 0,00 0,00 0,00 31/01/2024
249 344400 ALYSSON CARDOZO CEMBRANEL PROMOT.ENTRANC.ESPECIAL BELO HORIZONTE - COMARCA; BH-17PJ PATRIMONIO PUBLICO-GAB 119PJ 1.978,00 0,00 2.029,28 0,00 17.855,22 0,00 0,00 0,00 545,58 31/01/2024
250 274100 ALYSSON CARVALHO VIDAL DE LACERDA OFICIAL DO MP MANHUAÇU - COMARCA; MANHUACU-PJ-01PJ 1.978,00 0,00 605,00 0,00 0,00 0,00 0,00 0,00 0,00 31/01/2024
251 621000 AMANDA BASTOS ALVES ANALISTA DO MP BELO HORIZONTE - COMARCA; BH-07PJ 02 TRIBUNAL DO JURI-GAB 066PJ 1.978,00 0,00 605,00 0,00 0,00 0,00 0,00 0,00 0,00 31/01/2024
252 706000 AMANDA BRAZ DE SOUSA ESTAGIARIO NOVA SERRANA; NOVA SERRANA-PJ-01PJ 0,00 0,00 0,00 180,00 0,00 0,00 0,00 0,00 0,00 31/01/2024
253 1630500 AMANDA CAROLINA CRUZ DE SOUZA ESTAGIARIO SANTA LUZIA; SANTA LUZIA-PJ-07PJ 0,00 0,00 0,00 162,00 0,00 0,00 0,00 0,00 0,00 31/01/2024
254 727800 AMANDA CAVALCANTE FERREIRA SOUTO ESTAGIARIO NOVA LIMA; NOVA LIMA-PJ-02PJ 1.978,00 0,00 605,00 0,00 0,00 0,00 0,00 0,00 0,00 31/01/2024
255 1697400 AMANDA CHRISTINA MATTOS CORDEIRO ESTAGIARIO BELO HORIZONTE; BH-18PJ VIOLENCIA DOMESTICA-GAB 177PJ 0,00 0,00 0,00 180,00 0,00 0,00 0,00 0,00 0,00 31/01/2024
256 1614400 AMANDA CORREA BRAGA ESTAGIARIO BELO HORIZONTE; BH-18PJ DIREITOS HUMANOS-GAB 126PJ 0,00 0,00 0,00 180,00 0,00 0,00 0,00 0,00 0,00 31/01/2024
257 521700 AMANDA CRISTINA AGUIAR MACHADO OFICIAL DO MP CONGONHAS - COMARCA; CONGONHAS-PJ-01PJ 1.978,00 0,00 605,00 0,00 0,00 0,00 0,00 0,00 0,00 31/01/2024
258 1613700 AMANDA CRISTINA BARBOSA DE ANDRADE ESTAGIARIO POUSO ALEGRE; POUSO ALEGRE-PJ-02PJ 0,00 0,00 0,00 180,00 0,00 0,00 0,00 0,00 0,00 31/01/2024
259 733500 AMANDA CRISTINA GONCALVES ASSESSOR ADMINISTRATIVO I PARACATU - COMARCA; COORD REG AP COM INCL MOB SOCIAIS NOROESTE MG 0,00 0,00 0,00 18,00 0,00 0,00 0,00 0,00 0,00 31/01/2024
260 713900 AMANDA DE ARAUJO CARVALHO ASSESSOR PROMOTOR JUSTICA ARAÇUAÍ - COMARCA; ARACUAI-PJ-01PJ 0,00 0,00 0,00 162,00 0,00 0,00 0,00 0,00 0,00 31/01/2024
261 613400 AMANDA DE ASSIS IUNES SANTOS ANALISTA DO MP CONGONHAS - COMARCA; CONGONHAS-PJ-01PJ 1.978,00 0,00 605,00 0,00 5.974,31 0,00 0,00 0,00 547,65 31/01/2024
262 1628100 AMANDA DE MELO GONCALVES ESTAGIARIO MURIAE; MURIAE-PJ-07PJ 0,00 0,00 0,00 180,00 0,00 0,00 0,00 0,00 0,00 31/01/2024
263 1568800 AMANDA DE MENEZES FERREIRA ESTAGIARIO BELO HORIZONTE; GABINETE DE PROCURADOR DE JUSTIÇA - SALA 803 0,00 0,00 0,00 18,00 0,00 0,00 0,00 0,00 0,00 31/01/2024
264 695900 AMANDA DE OLIVEIRA ASSESSOR PROCURADOR JUSTICA BELO HORIZONTE - COMARCA; PROC JUST ATUACAO TRIBUNAIS SUPERIORES-GAB004 1.978,00 0,00 605,00 0,00 5.991,41 0,00 0,00 0,00 0,00 31/01/2024
265 520800 AMANDA DE SOUZA MACHADO ANALISTA DO MP BAEPENDI - COMARCA; BAEPENDI-PJ-UNPJ 1.978,00 0,00 605,00 0,00 5.924,93 0,00 0,00 0,00 0,00 31/01/2024
266 663900 AMANDA DENISE GONCALVES DA SILVA ASSESSOR ADMINISTRATIVO I BELO HORIZONTE - COMARCA; SECRETARIA DO PROCON-MG 1.978,00 0,00 605,00 0,00 4.872,71 0,00 0,00 0,00 0,00 31/01/2024
267 1479900 AMANDA DILASCIO RIBEIRO FICHE ESTAGIARIO SAO JOAO DEL REI; SAO JOAO DEL REI-PJ-01PJ 0,00 0,00 0,00 180,00 0,00 0,00 0,00 0,00 0,00 31/01/2024
268 1583100 AMANDA ESTEFFANY VIANA E SILVA ESTAGIARIO RIO PARDO DE MINAS; RIO PARDO DE MINAS-PJ-UNPJ 0,00 0,00 0,00 162,00 0,00 0,00 0,00 0,00 61,67 31/01/2024
269 1572100 AMANDA GABRIELA GONCALVES DE MIRANDA ESTAGIARIO BETIM; BETIM-PJ-04PJ 0,00 0,00 0,00 180,00 0,00 0,00 0,00 0,00 0,00 31/01/2024
270 713800 AMANDA INSAVRALDE DA SILVA ESTAGIARIO BELO HORIZONTE; BH-14PJ DEFESA CONSUMIDOR
271 1551900 AMANDA LUIZA NUNES SOARES ESTAGIARIO BELO HORIZONTE; BH-18PJ VIOLENCIA DOMESTICA-GAB 007PJ
272 754800 AMANDA MAGALHAES DE CARVALHO E SILVA ASSESSOR PROCURADOR JUSTICA BELO HORIZONTE - COMARCA; GABINETE DE PROCURADOR DE JUSTIÇA - SALA 1008 1.978,00 0,00 605,00 0,00 0,00 0,00 0,00 0,00 0,00 31/01/2024
273 666000 AMANDA MERLINI DUTRA OSIPE PROMOTOR 2A ENTRANCIA ITURAMA - COMARCA; ITURAMA - 03ª PJ 1.978,00 1.146,58 2.435,14 0,00 12.439,15 0,00 0,00 0,00 518,30 31/01/2024
274 1559600 AMANDA PAULA LOPES PALMEIRA ESTAGIARIO RIBEIRAO DAS NEVES; RIBEIRAO DAS NEVES-PJ-07PJ 0,00 0,00 0,00 72,00 0,00 0,00 0,00 0,00 0,00 31/01/2024
275 1607200 AMANDA PEDROSO SILVA ESTAGIARIO BELO HORIZONTE; BH-13PJ JUIZO DE TOXICOS-GAB 006PJ 0,00 0,00 0,00 126,00 0,00 0,00 0,00 0,00 0,00 31/01/2024
276 703400 AMANDA RAMOS ESTAGIARIO BELO HORIZONTE; PROC. JUSTICA CIVEL 0,00 0,00 0,00 180,00 0,00 0,00 0,00 0,00 0,00 31/01/2024
277 1663700 AMANDA RIBEIRO MARTINS OLIVEIRA ESTAGIARIO ITANHOMI; ITANHOMI-PJ-UNPJ 0,00 0,00 0,00 180,00 0,00 0,00 0,00 0,00 0,00 31/01/2024
278 1661900 AMANDA SILVA MEDEIROS ESTAGIARIO CAMPINA VERDE; CAMPINA VERDE-PJ-UNPJ 0,00 0,00 0,00 180,00 0,00 0,00 0,00 0,00 0,00 31/01/2024
279 1695000 AMANDA TRINDADE LINS CARDOSO ESTAGIARIO GOVERNADOR VALADARES; GAECO REGIONAL DE GOVERNADOR VALADARES 0,00 0,00 0,00 270,00 0,00 0,00 0,00 0,00 0,00 31/01/2024
280 1468200 AMANDA VIEIRA FREIRE ESTAGIARIO BELO HORIZONTE; BH-13PJ JUIZO DE TOXICOS-GAB 079PJ 0,00 0,00 0,00 54,00 0,00 0,00 0,00 0,00 0,00 31/01/2024
281 543100 AMANDA VIEIRA FREITAS ANALISTA DO MP VARGINHA - COMARCA; COORD REG DEF ORDEM ECON TRIB VARGINHA 1.978,00 0,00 605,00 0,00 0,00 0,00 0,00 0,00 0,00 31/01/2024
282 1609000 AMANDA VITORIA ALVES NOCA ESTAGIARIO PATROCINIO; PATROCINIO-PJ-02PJ 0,00 0,00 0,00 180,00 0,00 0,00 0,00 0,00 0,00 31/01/2024
283 434400 AMARILIS ASSIS SIMAO CURCIO ANALISTA DO MP BELO HORIZONTE - COMARCA; DIRETORIA GESTAO COMPRAS LICITACOES 1.978,00 0,00 605,00 0,00 0,00 0,00 0,00 0,00 0,00 31/01/2024
284 652000 AMAURI SILVA ALVES ASSESSOR ADMINISTRATIVO III BELO HORIZONTE - COMARCA; DIRETORIA GESTAO COMPRAS LICITACOES 1.978,00 0,00 605,00 0,00 6.211,29 0,00 0,00 0,00 569,37 31/01/2024
285 1642100 AMAURY BAETA MAINENTI ESTAGIARIO BELO HORIZONTE; COORD CONTROLE CONST-SECRETARIA 0,00 0,00 0,00 180,00 0,00 0,00 0,00 0,00 0,00 31/01/2024
286 58000 AMELIA GUARIZE DE CASTRO OFICIAL DO MP JUIZ DE FORA - COMARCA; JUIZ DE FORA-PJ-SECRETARIA 1.978,00 0,00 605,00 0,00 5.573,16 0,00 0,00 0,00 0,00 31/01/2024
287 324301 AMERICA SUELI FERREIRA DA SILVA ANALISTA DO MP UBERLÂNDIA - COMARCA; UBERLANDIA-PJ-02PJ 1.978,00 0,00 605,00 0,00 5.776,81 0,00 0,00 0,00 0,00 31/01/2024
288 273300 AMUJACY DE BRITO ASSIZ OFICIAL DO MP BELO HORIZONTE - COMARCA; BH-12PJ JUIZO CRIMINAL-SECRETARIA 1.978,00 0,00 605,00 0,00 0,00 0,00 0,00 0,00 0,00 31/01/2024
289 482200 ANA ALICE LOPES ACHTSCHIN ANALISTA DO MP BELO HORIZONTE - COMARCA; PROC JUST ATUACAO TRIBUNAIS SUPERIORES-GAB005 1.978,00 0,00 605,00 0,00 5.931,65 0,00 0,00 0,00 0,00 31/01/2024
290 490400 ANA AMELIA PAULINO GARCIA OFICIAL DO MP CONTAGEM - COMARCA; CONTAGEM-PJ-SECRETARIA 1.978,00 1.146,58 605,00 0,00 0,00 0,00 0,00 0,00 0,00 31/01/2024
291 671300 ANA BARBARA CANEDO OLIVEIRA PROMOT.ENTRANC.ESPECIAL GOVERNADOR VALADARES - COMARCA; GOVERNADOR VALADARES-PJ-17PJ 1.978,00 0,00 947,00 0,00 13.093,83 0,00 0,00 0,00 545,58 31/01/2024
292 1646500 ANA BEATRIZ ALVES DA SILVA ESTAGIARIO MATEUS LEME; MATEUS LEME-PJ-02PJ 0,00 0,00 0,00 180,00 0,00 0,00 0,00 0,00 0,00 31/01/2024
293 714900 ANA BEATRIZ LOBATO ALVES DE CARVALHO ASSESSOR PROCURADOR JUSTICA BELO HORIZONTE - COMARCA; GABINETE DE PROCURADOR DE JUSTIÇA - SALA 414 0,00 0,00 0,00 180,00 0,00 0,00 0,00 0,00 0,00 31/01/2024
294 710100 ANA BEATRIZ PEREIRA LIBERATO DOS SANTOS ESTAGIARIO BELO HORIZONTE; BH-07PJ TRIBUNAL DO JURI 1.978,00 0,00 605,00 0,00 5.286,53 0,00 0,00 0,00 0,00 31/01/2024
295 1515700 ANA BEATRIZ VIANA DA SILVA ESTAGIARIO JOAO MONLEVADE; JOAO MONLEVADE-PJ-02PJ 0,00 0,00 0,00 180,00 0,00 0,00 0,00 0,00 0,00 31/01/2024
296 723200 ANA CAROLINA AMABILE ALVES INVESTIGADOR DE POLICIA 2 0,00 0,00 0,00 144,00 0,00 0,00 0,00 0,00 0,00 31/01/2024
297 279100 ANA CAROLINA ARAUJO PEREIRA ANALISTA DO MP BELO HORIZONTE - COMARCA; DIRETORIA DE PROJETOS DE EDIFICACOES 1.978,00 0,00 605,00 0,00 0,00 0,00 0,00 0,00 0,00 31/01/2024
298 1568600 ANA CAROLINA CARVALHO DOMINGUES ESTAGIARIO LAVRAS; LAVRAS-PJ-05PJ 0,00 0,00 0,00 180,00 0,00 0,00 0,00 0,00 0,00 31/01/2024
299 653300 ANA CAROLINA CYRNE DINIZ ASSESSOR ADMINISTRATIVO III BELO HORIZONTE - COMARCA; CENTRAL DE APOIO TECNICO-SETOR CONTABIL -954,55 0,00 605,00 0,00 0,00 0,00 0,00 0,00 0,00 31/01/2024
300 359400 ANA CAROLINA DE ABREU FARIA ASSESSOR ADMINISTRATIVO IV BELO HORIZONTE - COMARCA; SUPERINTENDÊNCIA DE ENGENHARIA E ARQUITETURA 1.978,00 1.146,58 605,00 0,00 5.795,29 0,00 0,00 0,00 531,23 31/01/2024
301 408500 ANA CAROLINA DE CASTRO CARVALHO ANALISTA DO MP BARBACENA - COMARCA; BARBACENA - SECRETARIA DAS PJS CRIMINAIS 1.978,00 1.146,58 605,00 0,00 5.840,90 0,00 0,00 0,00 0,00 31/01/2024
302 1560500 ANA CAROLINA DE FREITAS PAULINO ESTAGIARIO JUIZ DE FORA; JUIZ DE FORA-PJ-16PJ 0,00 0,00 0,00 180,00 0,00 0,00 0,00 0,00 0,00 31/01/2024
303 1542400 ANA CAROLINA DE OLIVEIRA FROES ESTAGIARIO NOVA LIMA; NOVA LIMA-PJ-03PJ 0,00 0,00 0,00 162,00 0,00 0,00 0,00 0,00 0,00 31/01/2024
304 1551800 ANA CAROLINA DE OLIVEIRA GOMES ESTAGIARIO BELO HORIZONTE; BH-08PJ JUIZADO ESPECIAL-SECRETARIA 0,00 0,00 0,00 180,00 0,00 0,00 0,00 0,00 0,00 31/01/2024
305 688000 ANA CAROLINA DE OLIVEIRA PINTO ASSESSOR PROCURADOR JUSTICA BELO HORIZONTE - COMARCA; GABINETE DE PROCURADOR DE JUSTIÇA - SALA 1011 1.978,00 0,00 605,00 0,00 0,00 0,00 0,00 0,00 0,00 31/01/2024
306 598900 ANA CAROLINA DUARTE DA SILVA INVESTIGADOR DE POLICIA 2 BELO HORIZONTE - COMARCA; PROC JUST ESP ACOES COMP ORIG CRIMINAL-SEC 1.978,00 0,00 0,00 0,00 0,00 0,00 0,00 0,00 163,80 31/01/2024
307 420200 ANA CAROLINA FERNANDES SILVA ANALISTA DO MP BELO HORIZONTE - COMARCA; GABINETE DE PROCURADOR DE JUSTIÇA - SALA 704 1.978,00 0,00 605,00 0,00 0,00 0,00 0,00 0,00 0,00 31/01/2024
308 522100 ANA CAROLINA FERNANDINO VIDAL PEREIRA SANTOS OFICIAL DO MP BELO HORIZONTE - COMARCA; CAO-CRIANCAS E ADOLESCENTES-SECRETARIA 1.978,00 0,00 605,00 0,00 6.057,50 0,00 0,00 0,00 0,00 31/01/2024
309 1609600 ANA CAROLINA FERREIRA SOARES ESTAGIARIO CONTAGEM; CONTAGEM-PJ-25PJ 0,00 0,00 0,00 162,00 0,00 0,00 0,00 0,00 0,00 31/01/2024
310 716001 ANA CAROLINA FIGUEIREDO SILVA ASSESSOR ADMINISTRATIVO II BELO HORIZONTE - COMARCA; PROC JUST ATUACAO TRIBUNAIS SUPERIORES-GAB003 1.978,00 0,00 605,00 0,00 0,00 0,00 0,00 0,00 0,00 31/01/2024
311 244700 ANA CAROLINA GARCIA COSTA PROMOT.ENTRANC.ESPECIAL BELO HORIZONTE - COMARCA; BH-23PJ INFRACIONAL-GAB 147PJ 1.978,00 0,00 3.571,05 0,00 18.885,89 0,00 0,00 0,00 577,07 31/01/2024
312 1618200 ANA CAROLINA GONCALVES DE MELO ESTAGIARIO LAMBARI; LAMBARI-PJ-UNPJ 0,00 0,00 0,00 180,00 0,00 0,00 0,00 0,00 0,00 31/01/2024
313 502400 ANA CAROLINA GONCALVES FERNANDES ANALISTA DO MP IPATINGA - COMARCA; IPATINGA-PJ-01PJ 1.978,00 2.293,16 605,00 0,00 5.924,93 0,00 0,00 0,00 0,00 31/01/2024
314 723400 ANA CAROLINA GONCALVES GARCIA ESTAGIARIO BUENOPOLIS; BUENOPOLIS-PJ-UNPJ 1.978,00 0,00 605,00 0,00 5.991,41 0,00 0,00 0,00 0,00 31/01/2024
315 529900 ANA CAROLINA GONCALVES PECANHA CHEQUER ANALISTA DO MP MANHUAÇU - COMARCA; MANHUACU-PJ-04PJ 1.978,00 2.293,16 605,00 0,00 0,00 0,00 0,00 0,00 0,00 31/01/2024
316 1546300 ANA CAROLINA MARQUES RAMOS ESTAGIARIO BRUMADINHO; BRUMADINHO-PJ-02PJ 0,00 0,00 0,00 180,00 0,00 0,00 0,00 0,00 0,00 31/01/2024
317 431900 ANA CAROLINA MOTTA GUATIMOSIM ANALISTA DO MP BELO HORIZONTE - COMARCA; ASSESSORIA JURIDICO-ADMINISTRATIVA 1.978,00 1.146,58 605,00 0,00 6.091,94 0,00 0,00 0,00 558,43 31/01/2024
318 1491200 ANA CAROLINA OLIVEIRA DINIZ ESTAGIARIO CONTAGEM; CONTAGEM-PJ-03PJ 0,00 0,00 0,00 162,00 0,00 0,00 0,00 0,00 0,00 31/01/2024
319 1580400 ANA CAROLINA PEREIRA DOS SANTOS ESTAGIARIO BELO HORIZONTE; CENT ESTAD COOPERACAO TECNICO-JURIDICA
320 1461800 ANA CAROLINA PORTO SEGURO CAMPOS COELHO ESTAGIARIO BELO HORIZONTE; BH-26 CRIME CONT CRIAN ADOL-GAB 169PJ 0,00 0,00 0,00 36,00 0,00 0,00 0,00 0,00 0,00 31/01/2024
321 1524500 ANA CAROLINA VASCONCELOS VALADARES GRAVITO ESTAGIARIO BELO HORIZONTE; BH-23PJ CIVEL-GAB 162PJ 0,00 0,00 0,00 90,00 0,00 0,00 0,00 0,00 0,00 31/01/2024
322 490600 ANA CAROLINA XAVIER GODOY ANALISTA DO MP BELO HORIZONTE - COMARCA; BH-18PJ VIOLENCIA DOMESTICA-GAB 007PJ 1.978,00 2.293,16 605,00 0,00 5.924,93 0,00 0,00 0,00 0,00 31/01/2024
323 313700 ANA CAROLINA ZAMBOM PINTO COELHO PROMOT.ENTRANC.ESPECIAL BELO HORIZONTE - COMARCA; COORD ESTADUAL DE DEFESA DA EDUCACAO 1.978,00 1.146,58 1.677,54 0,00 17.855,23 0,00 0,00 0,00 545,58 31/01/2024
324 1573900 ANA CAROLINE DA CRUZ ESTAGIARIO NOVA LIMA; NOVA LIMA-PJ-02PJ 0,00 0,00 0,00 162,00 0,00 0,00 0,00 0,00 0,00 31/01/2024
325 1602300 ANA CAROLINE DA SILVA ESTAGIARIO POUSO ALEGRE; POUSO ALEGRE-PJ-08PJ 0,00 0,00 0,00 180,00 0,00 0,00 0,00 0,00 0,00 31/01/2024
326 1660600 ANA CAROLINE DE OLIVEIRA ESTAGIARIO BONFIM; BONFIM-PJ-UNPJ 0,00 0,00 0,00 180,00 0,00 0,00 0,00 0,00 0,00 31/01/2024
327 600300 ANA CAROLINE PEREIRA DINIZ ANALISTA DO MP BELO HORIZONTE - COMARCA; PROC JUST ESP ACOES COMP ORIG CRIMINAL-SEC 1.978,00 1.146,58 605,00 0,00 5.924,93 0,00 0,00 0,00 0,00 31/01/2024
328 615800 ANA CAROLINE PEREIRA OLIVEIRA OFICIAL DO MP ALFENAS - COMARCA; ALFENAS-PJ-06PJ 1.978,00 0,00 605,00 0,00 5.945,31 0,00 0,00 0,00 0,00 31/01/2024
329 1689100 ANA CECILIA FERREIRA DIAS ESTAGIARIO BOCAIUVA; BOCAIUVA-PJ-02PJ 0,00 0,00 0,00 180,00 0,00 0,00 0,00 0,00 0,00 31/01/2024
330 229202 ANA CECILIA JUNQUEIRA GOUVEA PROMOT.ENTRANC.ESPECIAL RIBEIRÃO DAS NEVES - COMARCA; RIBEIRAO DAS NEVES-PJ-08PJ 1.978,00 0,00 2.759,82 0,00 5.951,74 0,00 0,00 0,00 545,58 31/01/2024
331 324800 ANA CECILIA MENDES DA SILVA OFICIAL DO MP OURO FINO - COMARCA; OURO FINO-PJ-01PJ 1.978,00 0,00 605,00 0,00 0,00 0,00 0,00 0,00 0,00 31/01/2024
332 1668300 ANA CECILIA PIMENTA SILVA ESTAGIARIO BOCAIUVA; BOCAIUVA-PJ-03PJ 0,00 0,00 0,00 180,00 0,00 0,00 0,00 0,00 0,00 31/01/2024
333 1563200 ANA CLARA ANTUNES DA SILVA FRASSI ESTAGIARIO CONTAGEM; CONTAGEM-PJ-07PJ 0,00 0,00 0,00 162,00 0,00 0,00 0,00 0,00 0,00 31/01/2024
334 1649600 ANA CLARA DE CASSIA JUSTO MOREIRA ESTAGIARIO SANTA RITA DO SAPUCAI; SANTA RITA DO SAPUCAI-PJ-01PJ 0,00 0,00 0,00 180,00 0,00 0,00 0,00 0,00 0,00 31/01/2024
335 1623000 ANA CLARA FERNANDES MATOS ALVES ESTAGIARIO ITABIRITO; ITABIRITO-PJ-01PJ 0,00 0,00 0,00 180,00 0,00 0,00 0,00 0,00 0,00 31/01/2024
336 736000 ANA CLARA FERREIRA AMARAL ASSESSOR ADMINISTRATIVO I BELO HORIZONTE - COMARCA; PROCURADOR-GERAL DE JUSTICA- GABINETE 1.978,00 0,00 605,00 0,00 0,00 0,00 0,00 0,00 0,00 31/01/2024
337 1465500 ANA CLARA GONCALVES FANTECELE VIEIRA ESTAGIARIO BELO HORIZONTE; BH-10PJ EXECUÇÃO PENAL-GAB 078PJ 0,00 0,00 0,00 180,00 250,00 0,00 0,00 0,00 0,00 31/01/2024
338 1480400 ANA CLARA GRECO VILLANI MARQUES ESTAGIARIO BELO HORIZONTE; BH-23PJ INFRACIONAL-GAB 144PJ 0,00 0,00 0,00 126,00 0,00 0,00 0,00 0,00 0,00 31/01/2024
339 704100 ANA CLARA MARTINS ALBUQUERQUE ASSESSOR DE CAO BELO HORIZONTE - COMARCA; CAO-CRIANCAS E ADOLESCENTES-ASS TECNICA 0,00 0,00 0,00 18,00 0,00 0,00 0,00 0,00 0,00 31/01/2024
340 1691800 ANA CLARA PEIXOTO NOGUEIRA ESTAGIARIO MONTALVANIA; MONTALVANIA-PJ-UNPJ 0,00 0,00 0,00 180,00 0,00 0,00 0,00 0,00 0,00 31/01/2024
341 698700 ANA CLARA SANTOS ALMEIDA ASSESSOR PROMOTOR JUSTICA SABINÓPOLIS - COMARCA; SABINOPOLIS-PJ-UNPJ 1.978,00 0,00 605,00 0,00 0,00 0,00 0,00 0,00 0,00 31/01/2024
342 756400 ANA CLARA SOARES PEREIRA BARBOSA ASSESSOR PROMOTOR JUSTICA CARMO DO PARANAÍBA - COMARCA; CARMO DO PARANAIBA-PJ-01PJ 1.978,00 0,00 605,00 0,00 0,00 0,00 0,00 0,00 0,00 31/01/2024
343 441300 ANA CLAUDIA ALKIMIM MIRANDA BOMTEMPO ANALISTA DO MP MONTES CLAROS - COMARCA; MONTES CLAROS-PJ-11PJ 1.978,00 0,00 605,00 0,00 0,00 0,00 0,00 0,00 0,00 31/01/2024
344 1490100 ANA CLAUDIA ALVES MACHADO ESTAGIARIO BELO HORIZONTE; BH-18PJ VIOLENCIA DOMESTICA 0,00 0,00 0,00 180,00 0,00 0,00 0,00 0,00 0,00 31/01/2024
345 642500 ANA CLAUDIA DA COSTA NAVES OFICIAL DO MP MONTE CARMELO - COMARCA; MONTE CARMELO-PJ-02PJ 1.978,00 1.146,58 605,00 0,00 0,00 52,56 0,00 0,00 0,00 31/01/2024
346 1392700 ANA CLAUDIA GOIANAZES MOREIRA ESTAGIARIO BELO HORIZONTE; GABINETE DE PROCURADOR DE JUSTIÇA - SALA 705
347 341500 ANA CLAUDIA LOPES PROMOT.ENTRANC.ESPECIAL BELO HORIZONTE - COMARCA; BH-07PJ 01 TRIBUNAL DO JURI-GAB 077PJ 1.978,00 0,00 1.244,63 0,00 17.855,23 0,00 0,00 0,00 545,58 31/01/2024
348 604900 ANA CLAUDIA OLIVEIRA DE MIRANDA OFICIAL DO MP PONTE NOVA - COMARCA; PONTE NOVA-PJ-04PJ 1.978,00 0,00 605,00 0,00 0,00 0,00 0,00 0,00 0,00 31/01/2024
349 1381200 ANA CLAUDIA SARAIVA MARTINS FERREIRA ESTAGIARIO BELO HORIZONTE; BH-18PJ DIREITOS HUMANOS-GAB 125PJ 0,00 0,00 0,00 36,00 0,00 0,00 0,00 0,00 0,00 31/01/2024
350 379300 ANA CRISTINA ALVES FLAVIO ANALISTA DO MP SÃO GOTARDO - COMARCA; SAO GOTARDO-PJ-01PJ 1.978,00 1.146,58 605,00 0,00 0,00 0,00 0,00 0,00 0,00 31/01/2024
351 461200 ANA CRISTINA ALVES PASCHOAL ANALISTA DO MP BELO HORIZONTE - COMARCA; BH-07PJ 03 TRIBUNAL DO JURI-GAB 064PJ 1.978,00 0,00 605,00 0,00 0,00 0,00 0,00 0,00 0,00 31/01/2024
352 514100 ANA CRISTINA ARAUJO ASSUNCAO ANALISTA DO MP BELO HORIZONTE - COMARCA; ASSESS JUR DO CONS SUPERIOR DO MINISTERIO PUB 1.978,00 1.146,58 605,00 0,00 6.211,30 0,00 0,00 0,00 0,00 31/01/2024
353 113401 ANA CRISTINA BRAGA ALBUQUERQUE ASSESSOR ADM. ESPECIAL BELO HORIZONTE - COMARCA; DIRETORIA-GERAL 1.978,00 0,00 0,00 0,00 0,00 0,00 0,00 0,00 0,00 31/01/2024
354 233800 ANA CRISTINA BRAGA SOARES OFICIAL DO MP BELO HORIZONTE - COMARCA; DIRETORIA DE CONTABILIDADE 1.978,00 0,00 605,00 0,00 0,00 0,00 0,00 0,00 0,00 31/01/2024
355 186400 ANA CRISTINA DE AZEVEDO LOPES OFICIAL DO MP UBÁ - COMARCA; UBA-PJ-01PJ 1.978,00 0,00 605,00 0,00 5.977,03 0,00 0,00 0,00 0,00 31/01/2024
356 465100 ANA CRISTINA DE OLIVEIRA GUIMARAES ANALISTA DO MP ITAJUBA - COMARCA; ITAJUBA-PJ-05PJ 1.978,00 1.146,58 605,00 0,00 5.924,93 0,00 0,00 0,00 0,00 31/01/2024
357 500600 ANA CRISTINA LATADO SUDARIO ANALISTA DO MP UBERLÂNDIA - COMARCA; UBERLANDIA-PJ-09PJ 1.978,00 0,00 605,00 0,00 5.924,93 0,00 0,00 0,00 0,00 31/01/2024
358 331400 ANA CRISTINA RIBEIRO ALVES OFICIAL DO MP BAMBUÍ - COMARCA; BAMBUI-PJ-UNPJ 1.978,00 0,00 605,00 0,00 5.776,81 0,00 0,00 0,00 0,00 31/01/2024
359 1552300 ANA ELISA TEIXEIRA GONCALVES ESTAGIARIO IBIRITE; IBIRITE-PJ-06PJ
360 734200 ANA ELIZA VIEIRA PRADO ESTAGIARIO BELO HORIZONTE; SUPERINTENDÊNCIA DE ENGENHARIA E ARQUITETURA 1.978,00 0,00 605,00 0,00 0,00 0,00 0,00 0,00 0,00 31/01/2024
361 249300 ANA ELOINA MARTINS OFICIAL DO MP BETIM - COMARCA; BETIM-PJ-02PJ 1.978,00 0,00 605,00 0,00 5.439,23 0,00 0,00 0,00 0,00 31/01/2024
362 611500 ANA FLAVIA AFONSO DRUMOND AMORIM PROMOTOR 2A ENTRANCIA PIRAPORA - COMARCA; PIRAPORA-PJ-02PJ 1.978,00 0,00 0,00 0,00 16.962,47 0,00 0,00 0,00 518,30 31/01/2024
363 1466700 ANA FLAVIA ALVES ARAUJO ESTAGIARIO NOVA LIMA; NOVA LIMA-PJ-SECRETARIA 0,00 0,00 0,00 162,00 0,00 0,00 0,00 0,00 0,00 31/01/2024
364 257400 ANA FLAVIA CAMBRAIA ANALISTA DO MP BELO HORIZONTE - COMARCA; BH-19PJ SAUDE-SECRETARIA 150PJ 1.978,00 0,00 605,00 0,00 5.958,24 0,00 0,00 0,00 0,00 31/01/2024
365 248201 ANA FLAVIA DE MORAIS SOUZA ANALISTA DO MP DIVINÓPOLIS - COMARCA; DIVINOPOLIS-PJ-01PJ 1.978,00 1.146,58 605,00 0,00 6.055,23 0,00 0,00 0,00 0,00 31/01/2024
366 621100 ANA FLAVIA DINIZ TEODORO OFICIAL DO MP SANTA LUZIA - COMARCA; SANTA LUZIA-PJ-06PJ 1.978,00 0,00 605,00 0,00 4.954,42 0,00 0,00 0,00 0,00 31/01/2024
367 238600 ANA FLAVIA FRANCO OFICIAL DO MP BELO HORIZONTE - COMARCA; DIRETORIA DE PESSOAL ADMINISTRATIVO - DPAD 1.978,00 0,00 605,00 0,00 5.241,84 0,00 0,00 0,00 0,00 31/01/2024
368 725100 ANA FLAVIA HENRIQUES DE ANDRADE XAVIER ESTAGIARIO UBERABA; UBERABA-PJ-14PJ 0,00 0,00 0,00 162,00 0,00 0,00 0,00 0,00 0,00 31/01/2024
369 690001 ANA FLAVIA LURIAN DE PAIVA PROMOTOR SUBSTITUTO SANTA MARIA DO SUAÇUÍ - COMARCA; SANTA MARIA DO SUACUI-PJ-UNPJ 1.978,00 0,00 892,88 0,00 0,00 0,00 0,00 0,00 0,00 31/01/2024
370 402900 ANA FLAVIA PORTES DE CARVALHO ANALISTA DO MP BELO HORIZONTE - COMARCA; DIRET DE PLANOS PROJETOS E PROGRAMAS INST 1.978,00 0,00 605,00 0,00 5.338,75 0,00 0,00 0,00 0,00 31/01/2024
371 1641900 ANA FLAVIA SILVA VIEIRA ESTAGIARIO GUAPE; GUAPE-PJ-UNPJ 0,00 0,00 0,00 144,00 0,00 0,00 0,00 0,00 0,00 31/01/2024
372 526300 ANA GABRIELA BRITO MELO ROCHA PROMOTOR 2A ENTRANCIA TRÊS PONTAS - COMARCA; TRES PONTAS-PJ-03PJ 1.978,00 0,00 3.122,53 0,00 15.831,65 0,00 0,00 0,00 518,30 31/01/2024
373 1604100 ANA GABRIELLA OLIVEIRA BARBOSA ESTAGIARIO PERDIZES; PERDIZES-PJ-UNPJ 0,00 0,00 0,00 180,00 0,00 0,00 0,00 0,00 0,00 31/01/2024
374 730300 ANA GABRIELLE GUIMARAES REIS ESTAGIARIO ARAGUARI; ARAGUARI-PJ-05PJ 1.978,00 0,00 605,00 0,00 5.991,41 0,00 0,00 0,00 549,21 31/01/2024
375 1515200 ANA GABRIELLY SILVA ESTAGIARIO RIBEIRAO DAS NEVES; RIBEIRAO DAS NEVES-PJ-09PJ 0,00 0,00 0,00 72,00 0,00 0,00 0,00 0,00 0,00 31/01/2024
376 708000 ANA JULIA COELHO MENDONCA ELER ESTAGIARIO BELO HORIZONTE; ASSESSORIA DE COMUNICACAO INTEGRADA 1.978,00 0,00 605,00 0,00 0,00 0,00 0,00 0,00 0,00 31/01/2024
377 1488400 ANA JULIA DIXINI CARVALHO ESTAGIARIO TRES PONTAS; TRES PONTAS-PJ-03PJ 0,00 0,00 0,00 180,00 0,00 0,00 0,00 0,00 61,67 31/01/2024
378 733900 ANA JULIA JEUNON RODRIGUES FRANCA ESTAGIARIO MONTE AZUL; MONTE AZUL-PJ-UNPJ 1.978,00 0,00 605,00 0,00 0,00 0,00 0,00 0,00 0,00 31/01/2024
379 726200 ANA JULIA LACERDA DE FARIA ESTAGIARIO MONTALVANIA; MONTALVANIA-PJ-UNPJ 0,00 0,00 0,00 180,00 0,00 0,00 0,00 0,00 0,00 31/01/2024
380 1412300 ANA JULIA PEREIRA BELLEI GOMES ESTAGIARIO JUIZ DE FORA; JUIZ DE FORA-PJ-03PJ 0,00 0,00 0,00 180,00 0,00 0,00 0,00 0,00 0,00 31/01/2024
381 1483100 ANA JULIA RODRIGUES CAMPOS ESTAGIARIO ITAUNA; ITAUNA-PJ-05PJ 0,00 0,00 0,00 180,00 0,00 0,00 0,00 0,00 0,00 31/01/2024
382 1537300 ANA JULIA SOUSA DE JESUS ESTAGIARIO PAINS; ALFENAS-PJ-05PJ 0,00 0,00 0,00 180,00 0,00 0,00 0,00 0,00 0,00 31/01/2024
383 752300 ANA JUSSARA DA SILVA BIANCHETTI OFICIAL DO MP ALTO RIO DOCE - COMARCA; ALTO RIO DOCE-PJ-UNPJ 1.978,00 0,00 605,00 0,00 0,00 0,00 0,00 0,00 0,00 31/01/2024
384 382700 ANA KARENINA SALDANHA GONTIJO ANALISTA DO MP BELO HORIZONTE - COMARCA; ASSESS TECNICO-JUR JUNTO AS PROC. DE JUST 1.978,00 0,00 605,00 0,00 0,00 0,00 0,00 0,00 0,00 31/01/2024
385 620500 ANA KARINE DE ANDRADE OLIVEIRA ANALISTA DO MP RIBEIRÃO DAS NEVES - COMARCA; RIBEIRAO NEVES-SEC PJ EXECUCAO PENAL 1.978,00 0,00 605,00 0,00 0,00 0,00 0,00 0,00 0,00 31/01/2024
386 712200 ANA KAROLINA SANTOS LESSA ESTAGIARIO CONTAGEM; CONTAGEM-PJ-24PJ 1.978,00 0,00 605,00 0,00 0,00 0,00 0,00 0,00 0,00 31/01/2024
387 1520600 ANA KAROLYNA OLIVEIRA MORAIS ESTAGIARIO BELO HORIZONTE; BH-17PJ PATRIMONIO PUBLICO-GAB 121PJ 0,00 0,00 0,00 180,00 0,00 0,00 0,00 0,00 0,00 31/01/2024
388 1420700 ANA LAURA CARVALHO GENEROSO ESTAGIARIO BELO HORIZONTE; GABINETE DE PROCURADOR DE JUSTIÇA - SALA 1005
389 1675800 ANA LAURA DE FARIA LIMA ESTAGIARIO PARA DE MINAS; PARA DE MINAS-PJ-04PJ 0,00 0,00 0,00 180,00 0,00 0,00 0,00 0,00 0,00 31/01/2024
390 1417200 ANA LAURA FERREIRA DA SILVA ESTAGIARIO UBERABA; UBERABA-PJ-16PJ 0,00 0,00 0,00 180,00 0,00 0,00 0,00 0,00 0,00 31/01/2024
391 1457800 ANA LAURA GONCALVES DE MENEZES ESTAGIARIO UBERLANDIA; COORD REG DEF ORDEM ECON TRIB UBERLANDIA
392 1562000 ANA LAURA MENDONCA SILVA DE ARAUJO ESTAGIARIO CONTAGEM; CONTAGEM-PJ-08PJ 0,00 0,00 0,00 180,00 0,00 0,00 0,00 0,00 0,00 31/01/2024
393 1634900 ANA LAURA SOARES DE OLIVEIRA ESTAGIARIO ITUIUTABA; ITUIUTABA-PJ-05PJ 0,00 0,00 0,00 180,00 0,00 0,00 0,00 0,00 0,00 31/01/2024
394 57400 ANA LEIA SALOMAO E RIBEIRO PROCURADOR DE JUSTICA BELO HORIZONTE - COMARCA; GABINETE DE PROCURADOR DE JUSTIÇA - SALA 512 1.978,00 0,00 2.309,10 0,00 11.220,51 0,00 0,00 0,00 734,68 31/01/2024
395 224300 ANA LETICIA MARTINS DE SOUZA PROMOT.ENTRANC.ESPECIAL CONTAGEM - COMARCA; CONTAGEM-PJ-13PJ 1.978,00 0,00 1.136,40 0,00 11.903,48 0,00 0,00 0,00 0,00 31/01/2024
396 1664500 ANA LICIA SALES LAFETA ESTAGIARIO CORACAO DE JESUS; CORACAO DE JESUS-PJ-UNPJ 0,00 0,00 0,00 162,00 0,00 0,00 0,00 0,00 0,00 31/01/2024
397 1391300 ANA LIVIA DO NASCIMENTO TORQUATO ESTAGIARIO GUAXUPE; GUAXUPE-PJ-01PJ 0,00 0,00 0,00 180,00 0,00 0,00 0,00 0,00 0,00 31/01/2024
398 462200 ANA LUCIA ANDRADE TOMICH OTTONI ANALISTA DO MP TEÓFILO OTONI - COMARCA; TEOFILO OTONI-PJ-07PJ 1.978,00 1.146,58 605,00 0,00 5.924,93 0,00 0,00 0,00 0,00 31/01/2024
399 504100 ANA LUCIA CATAO DE CARVALHO OFICIAL DO MP BELO HORIZONTE - COMARCA; DIR RELACOES INSTITUCIONAIS 1.978,00 0,00 605,00 0,00 6.138,45 0,00 0,00 0,00 0,00 31/01/2024
400 274700 ANA LUCIA DE ALENCAR BRAGATO OFICIAL DO MP UBERABA - COMARCA; UBERABA-PJ-07PJ 1.978,00 0,00 605,00 0,00 6.221,18 0,00 0,00 0,00 0,00 31/01/2024
401 509400 ANA LUCIA DORNELAS MALLOSTO ANALISTA DO MP JUIZ DE FORA - COMARCA; JUIZ DE FORA-PJ-14PJ 1.978,00 0,00 605,00 0,00 5.924,93 0,00 0,00 0,00 0,00 31/01/2024
402 114600 ANA LUCIA JUNQUEIRA MUZZI CAVALIERI PROMOT.ENTRANC.ESPECIAL JUIZ DE FORA - COMARCA; JUIZ DE FORA-PJ-04PJ 1.978,00 0,00 3.571,05 0,00 16.003,90 0,00 0,00 0,00 733,51 31/01/2024
403 302600 ANA LUCIA LOPES SANTOS OFICIAL DO MP BELO HORIZONTE - COMARCA; DIVISÃO DE FISCALIZAÇÃO DAS RELAÇÕES DE CONSU 1.978,00 0,00 605,00 0,00 5.701,87 0,00 1.771,66 0,00 0,00 31/01/2024
404 719600 ANA LUISA BORGES SOARES ESTAGIARIO BELO HORIZONTE; BH-21PJ TUTELA DAS FUNDACOES 0,00 0,00 0,00 180,00 0,00 0,00 0,00 0,00 0,00 31/01/2024
405 1409600 ANA LUISA COSTA DA SILVA ARAUJO ESTAGIARIO GOVERNADOR VALADARES; GOVERNADOR VALADARES-PJ-13PJ 0,00 0,00 0,00 180,00 0,00 0,00 0,00 0,00 0,00 31/01/2024
406 716700 ANA LUISA DE LANA COELHO ASSESSOR PROCURADOR JUSTICA BELO HORIZONTE - COMARCA; GABINETE DE PROCURADOR DE JUSTIÇA - SALA 612 1.978,00 0,00 605,00 0,00 0,00 0,00 0,00 0,00 0,00 31/01/2024
407 702000 ANA LUISA DE OLIVEIRA RIBEIRO ASSESSOR PROCURADOR JUSTICA BELO HORIZONTE - COMARCA; ASSESS TECNICO-JUR JUNTO AS PROC. DE JUST 0,00 0,00 0,00 180,00 0,00 0,00 0,00 0,00 0,00 31/01/2024
408 1698300 ANA LUISA HORSTT PRADO ESTAGIARIO CORONEL FABRICIANO; CORONEL FABRICIANO-PJ-01PJ 0,00 0,00 0,00 162,00 0,00 0,00 0,00 0,00 0,00 31/01/2024
409 493400 ANA LUISA NOGUEIRA MOREIRA ANALISTA DO MP BELO HORIZONTE - COMARCA; BH-19PJ SAUDE-SECRETARIA 130PJ 1.978,00 0,00 605,00 0,00 5.924,93 0,00 0,00 0,00 0,00 31/01/2024
410 389300 ANA LUISA REUTER LIMA ANALISTA DO MP BELO HORIZONTE - COMARCA; DIRETORIA DE SISTEMAS DE INFORMACAO 1.978,00 0,00 605,00 0,00 0,00 0,00 0,00 0,00 0,00 31/01/2024
411 1560300 ANA LUISA SIMAN VAZ ESTAGIARIO GOVERNADOR VALADARES; GOVERNADOR VALADARES-PJ-04PJ 0,00 0,00 0,00 162,00 0,00 0,00 0,00 0,00 0,00 31/01/2024
412 709000 ANA LUIZA ALVES DE CARVALHO ESTAGIARIO ARAGUARI; ARAGUARI-PJ-03PJ 0,00 0,00 0,00 180,00 0,00 0,00 0,00 0,00 0,00 31/01/2024
413 1422600 ANA LUIZA ALVES FERREIRA ESTAGIARIO BELO HORIZONTE; BH-23PJ INFRACIONAL-GAB 039PJ 0,00 0,00 0,00 144,00 0,00 0,00 0,00 0,00 0,00 31/01/2024
414 1580300 ANA LUIZA ANDRADE KOLASCO ESTAGIARIO BELO HORIZONTE; BH-13PJ JUIZO DE TOXICOS-COORD PJ 0,00 0,00 0,00 54,00 0,00 0,00 0,00 0,00 0,00 31/01/2024
415 1667100 ANA LUIZA CONSTANTINO REIS ESTAGIARIO TIMOTEO; TIMOTEO-PJ-04PJ 0,00 0,00 0,00 180,00 0,00 0,00 0,00 0,00 0,00 31/01/2024
416 441100 ANA LUIZA DA COSTA E CRUZ PROMOTOR 2A ENTRANCIA PEDRO LEOPOLDO - COMARCA; PEDRO LEOPOLDO-PJ-03PJ 1.978,00 0,00 2.724,38 0,00 16.962,47 0,00 0,00 0,00 518,30 31/01/2024
417 161000 ANA LUIZA DE ABREU MOREIRA PROCURADOR DE JUSTICA BELO HORIZONTE - COMARCA; GABINETE DE PROCURADOR DE JUSTIÇA - SALA 1014 1.978,00 0,00 3.382,14 0,00 20.825,46 0,00 0,00 0,00 636,33 31/01/2024
418 480600 ANA LUIZA FERNANDES FRAGA E GRECO COORDENADOR I BELO HORIZONTE - COMARCA; OUVIDORIA DO MPMG 1.978,00 0,00 605,00 0,00 5.533,64 0,00 0,00 0,00 0,00 31/01/2024
419 1653300 ANA LUIZA FOSCHETTI BARBOSA ESTAGIARIO FORMIGA; FORMIGA-PJ-01PJ 0,00 0,00 0,00 162,00 0,00 0,00 0,00 0,00 0,00 31/01/2024
420 726800 ANA LUIZA GOMES PEREIRA ASSESSOR ADMINISTRATIVO I BELO HORIZONTE - COMARCA; OUVIDORIA DO MPMG 1.978,00 0,00 605,00 0,00 4.872,71 0,00 0,00 0,00 0,00 31/01/2024
421 685400 ANA LUIZA HENRIQUES BERGER MACHADO PROMOTOR 2A ENTRANCIA ARAÇUAÍ - COMARCA; ARACUAI-PJ-01PJ 1.978,00 0,00 892,88 0,00 16.962,47 0,00 0,00 0,00 518,30 31/01/2024
422 733600 ANA LUIZA MACHADO RODRIGUES ASSESSOR PROMOTOR JUSTICA CARMO DA MATA - COMARCA; CARMO DA MATA-PJ-UNPJ 0,00 0,00 0,00 18,00 0,00 0,00 0,00 0,00 0,00 31/01/2024
423 517800 ANA LUIZA MAGALHAES CIRINO PIOTO DE MELO OFICIAL DO MP BELO HORIZONTE - COMARCA; DIVISAO DE MATERIAIS 1.978,00 2.293,16 605,00 0,00 0,00 0,00 0,00 0,00 0,00 31/01/2024
424 1675300 ANA LUIZA MARTINS BASTOS ESTAGIARIO BETIM; BETIM-PJ-01PJ 0,00 0,00 0,00 180,00 0,00 0,00 0,00 0,00 0,00 31/01/2024
425 1311400 ANA LUIZA MENDES VIANA ESTAGIARIO BELO HORIZONTE; BH-12PJ JUIZO CRIMINAL-GAB 086PJ 0,00 0,00 0,00 180,00 0,00 0,00 0,00 0,00 0,00 31/01/2024
426 1641800 ANA LUIZA PERILLO MOREIRA ESTAGIARIO JUIZ DE FORA; JUIZ DE FORA-PJ-17PJ 0,00 0,00 0,00 180,00 0,00 0,00 0,00 0,00 0,00 31/01/2024
427 1547500 ANA LUIZA REIS MARTINS ESTAGIARIO BELO HORIZONTE; BH-02PJ FAMILIA-GAB 019PJ 0,00 0,00 0,00 180,00 0,00 0,00 0,00 0,00 0,00 31/01/2024
428 1656400 ANA LUIZA SOARES BISPO ESTAGIARIO BELO HORIZONTE; BH-12PJ JUIZO CRIMINAL-GAB 105PJ 0,00 0,00 0,00 180,00 0,00 0,00 0,00 0,00 0,00 31/01/2024
429 1603300 ANA LUIZA VALERIA TORRES ESTAGIARIO BELO HORIZONTE; BH-25PJ DEFESA DA EDUCACAO-SECRETARIA 0,00 0,00 0,00 144,00 0,00 0,00 0,00 0,00 0,00 31/01/2024
430 481400 ANA MARCIA CANDIDA FERREIRA OFICIAL DO MP BRUMADINHO - COMARCA; BRUMADINHO-PJ-02PJ 1.978,00 0,00 605,00 0,00 6.125,47 0,00 0,00 0,00 0,00 31/01/2024
431 754400 ANA MARIA ANDRADE LARA OFICIAL DO MP BOM SUCESSO - COMARCA; BOM SUCESSO-PJ-UNPJ 1.978,00 0,00 605,00 0,00 0,00 0,00 0,00 0,00 0,00 31/01/2024
432 114700 ANA MARIA CAMILO DA HORA E ROCHA PROMOT.ENTRANC.ESPECIAL MONTES CLAROS - COMARCA; MONTES CLAROS-PJ-05PJ 1.978,00 0,00 3.571,05 0,00 24.043,95 0,00 0,00 0,00 734,68 31/01/2024
433 1553700 ANA MARIA DA SILVA PRADO ESTAGIARIO MURIAE; MURIAE-PJ-02PJ 0,00 0,00 0,00 180,00 0,00 0,00 0,00 0,00 0,00 31/01/2024
434 643100 ANA MARIA LOPES MIRANDA ANALISTA DO MP BELO HORIZONTE - COMARCA; CAO-FUNDACOES 1.978,00 1.146,58 605,00 0,00 0,00 0,00 0,00 0,00 0,00 31/01/2024
435 1446600 ANA MARIA MENDES GOULART ESTAGIARIO BELO HORIZONTE; BH-23PJ INFRACIONAL-GAB 140PJ 0,00 0,00 0,00 180,00 0,00 0,00 0,00 0,00 0,00 31/01/2024
436 556400 ANA MARIA OLIVEIRA SOUZA OFICIAL DO MP ITAPECERICA - COMARCA; ITAPECERICA-PJ-UNPJ 1.978,00 0,00 605,00 0,00 3.966,75 0,00 0,00 0,00 0,00 31/01/2024
437 409600 ANA OLIVIA FARIA ROSENBURG ANALISTA DO MP BELO HORIZONTE - COMARCA; DIRETORIA DO COLEGIO E DA CAMARA DE PJ 1.978,00 0,00 605,00 0,00 5.241,84 0,00 0,00 0,00 1.026,68 31/01/2024
438 461500 ANA PAULA ALVES CARVALHO ANALISTA DO MP UBERLÂNDIA - COMARCA; UBERLANDIA-PJ-25PJ 1.978,00 1.146,58 605,00 0,00 5.870,43 0,00 0,00 0,00 538,12 31/01/2024
439 523200 ANA PAULA ALVES DA SILVA OFICIAL DO MP GOVERNADOR VALADARES - COMARCA; GOVERNADOR VALADARES-PJ-10PJ 1.978,00 4.586,32 605,00 0,00 6.057,50 0,00 0,00 0,00 0,00 31/01/2024
440 1681800 ANA PAULA ARANTES DOS SANTOS ESTAGIARIO ARACUAI; ARACUAI-PJ-01PJ 0,00 0,00 0,00 180,00 0,00 0,00 0,00 0,00 0,00 31/01/2024
441 1697500 ANA PAULA BADARO ARAUJO ESTAGIARIO BELO HORIZONTE; BH-09PJ AUDITORIA MILITAR-GAB 161PJ 0,00 0,00 0,00 144,00 0,00 0,00 0,00 0,00 0,00 31/01/2024
442 381200 ANA PAULA BARROS PEREIRA RIGHI ANALISTA DO MP BELO HORIZONTE - COMARCA; DIRETORIA DO COLEGIO E DA CAMARA DE PJ 1.978,00 1.146,58 605,00 0,00 5.338,75 0,00 0,00 0,00 0,00 31/01/2024
443 721100 ANA PAULA BARROSO SANTIAGO ESTAGIARIO NOVA SERRANA; NOVA SERRANA-PJ-02PJ 0,00 0,00 0,00 0,00 16.114,35 0,00 0,00 0,00 0,00 31/01/2024
444 696400 ANA PAULA CARVALHO SILVA ASSESSOR PROMOTOR JUSTICA PERDÕES - COMARCA; PERDOES-PJ-UNPJ 1.978,00 1.146,58 605,00 0,00 5.286,53 0,00 0,00 0,00 0,00 31/01/2024
445 700900 ANA PAULA CRAVO SALOME ASSESSOR ADMINISTRATIVO I BELO HORIZONTE - COMARCA; PROCURADOR-GERAL DE JUSTIÇA 1.978,00 0,00 605,00 0,00 2.533,81 0,00 0,00 0,00 0,00 31/01/2024
446 227200 ANA PAULA DA SILVA CAMPOLINA ANALISTA DO MP BELO HORIZONTE - COMARCA; DIRETORIA DE ORCAMENTO-DIOR/SPC 1.978,00 0,00 605,00 0,00 5.536,88 0,00 0,00 0,00 0,00 31/01/2024
447 1589300 ANA PAULA DE ALMEIDA VIEIRA SOUZA ESTAGIARIO IPATINGA; IPATINGA-PJ-06PJ 0,00 0,00 0,00 180,00 0,00 0,00 0,00 0,00 0,00 31/01/2024
448 278500 ANA PAULA DIAS CAPANEMA OFICIAL DO MP BELO HORIZONTE - COMARCA; DIRETORIA DE SEGURANCA 1.978,00 0,00 605,00 0,00 6.087,86 0,00 0,00 0,00 0,00 31/01/2024
449 1429200 ANA PAULA DO NASCIMENTO LAGES ESTAGIARIO BELO HORIZONTE; BH-17PJ PATRIMONIO PUBLICO-GAB 004PJ 0,00 0,00 0,00 144,00 0,00 0,00 0,00 0,00 0,00 31/01/2024
450 327300 ANA PAULA GARCIA MAXIMO OFICIAL DO MP UNAÍ - COMARCA; UNAI-PJ-01PJ 1.978,00 0,00 605,00 0,00 5.741,95 0,00 0,00 0,00 0,00 31/01/2024
451 738700 ANA PAULA GOMES ANTUNES ASSESSOR PROMOTOR JUSTICA CORAÇÃO DE JESUS - COMARCA; CORACAO DE JESUS-PJ-UNPJ 0,00 0,00 605,00 0,00 0,00 0,00 0,00 0,00 0,00 31/01/2024
452 270000 ANA PAULA GOULART CRUZ DE MAGALHAES ANALISTA DO MP BELO HORIZONTE - COMARCA; ASSESSORIA ESPECIAL DO PGJ 1.978,00 0,00 605,00 0,00 5.167,75 0,00 0,00 0,00 0,00 31/01/2024
453 262100 ANA PAULA KOMATSUZAKI ABIJAUDI ANALISTA DO MP BELO HORIZONTE - COMARCA; BH-17PJ PATRIMONIO PUBLICO-SECRETARIA 1.978,00 0,00 605,00 0,00 0,00 0,00 0,00 0,00 0,00 31/01/2024
454 671400 ANA PAULA LIMA DA SILVA PROMOTOR 2A ENTRANCIA VIÇOSA - COMARCA; VICOSA-PJ-04PJ 1.978,00 0,00 2.835,58 0,00 5.654,16 0,00 0,00 0,00 518,30 31/01/2024
455 222600 ANA PAULA LOURENCO DE PAULA PROMOTOR 2A ENTRANCIA ITUIUTABA - COMARCA; ITUIUTABA-PJ-03PJ 1.978,00 0,00 3.392,49 0,00 13.157,17 0,00 0,00 0,00 548,22 31/01/2024
456 1696300 ANA PAULA LOURENCO VIANA ESTAGIARIO BELO HORIZONTE; ASSESS TECN DA JUNTA RECURSAL DO PROCON EST 0,00 0,00 0,00 180,00 0,00 0,00 0,00 0,00 0,00 31/01/2024
457 1418000 ANA PAULA MACHADO DE OLIVEIRA ESTAGIARIO BELO HORIZONTE; BH-23PJ INFRACIONAL-GAB 142PJ 0,00 0,00 0,00 144,00 0,00 0,00 0,00 0,00 0,00 31/01/2024
458 106200 ANA PAULA MENDES RODRIGUES PROCURADOR DE JUSTICA BELO HORIZONTE - COMARCA; PROC JUSTICA DIR DIFUSOS E COLETIVOS-GAB007 1.978,00 0,00 1.488,14 0,00 17.632,23 0,00 0,00 0,00 734,68 31/01/2024
459 278900 ANA PAULA MOREIRA GURGEL ANALISTA DO MP BELO HORIZONTE - COMARCA; ASSESSORIA JURIDICO-ADMINISTRATIVA 1.978,00 0,00 605,00 0,00 6.014,40 0,00 0,00 0,00 0,00 31/01/2024
460 745500 ANA PAULA OLIVEIRA MENDES OFICIAL DO MP TARUMIRIM - COMARCA; TARUMIRIM-PJ-UNPJ 1.978,00 0,00 605,00 0,00 0,00 0,00 0,00 0,00 0,00 31/01/2024
461 1567000 ANA PAULA PEREIRA ESTAGIARIO VISCONDE DO RIO BRANCO; VISCONDE DO RIO BRANCO-PJ-02PJ 0,00 0,00 0,00 162,00 0,00 0,00 0,00 0,00 0,00 31/01/2024
462 484400 ANA PAULA RESENDE DORNELLAS DE AZEVEDO PROMOTOR SUBSTITUTO CONTAGEM - COMARCA; CONTAGEM-PJ-19PJ 1.978,00 2.293,16 3.222,87 0,00 13.965,77 0,00 0,00 0,00 492,38 31/01/2024
463 425701 ANA PAULA ROCHA ANALISTA DO MP BELO HORIZONTE - COMARCA; ASSESSORIA DE COMUNICACAO INTEGRADA 1.978,00 1.146,58 605,00 0,00 0,00 0,00 0,00 0,00 0,00 31/01/2024
464 1511700 ANA PAULA ROSA ESTAGIARIO PATROCINIO; PATROCINIO-PJ-03PJ 0,00 0,00 0,00 180,00 0,00 0,00 0,00 0,00 0,00 31/01/2024
465 395601 ANA PAULA SALGE OLIVEIRA ANALISTA DO MP UBERABA - COMARCA; UBERABA-PJ-15PJ 1.978,00 0,00 605,00 0,00 6.221,18 0,00 0,00 0,00 0,00 31/01/2024
466 473200 ANA PAULA SCOTTON BRASIL ANALISTA DO MP JUIZ DE FORA - COMARCA; JUIZ DE FORA-PJ-14PJ 1.978,00 0,00 605,00 0,00 5.924,93 0,00 0,00 0,00 0,00 31/01/2024
467 633600 ANA PAULA SILVA FERNANDES OFICIAL DO MP CATAGUASES - COMARCA; CATAGUASES-PJ-04PJ 1.978,00 0,00 605,00 0,00 0,00 0,00 0,00 0,00 0,00 31/01/2024
468 722100 ANA PAULA TAZINAFFO TAVARES ESTAGIARIO UBERABA; UBERABA-PJ-07PJ 1.978,00 0,00 605,00 0,00 5.991,41 0,00 0,00 0,00 549,21 31/01/2024
469 1659700 ANA PAULA TEIXEIRA ESTAGIARIO COROMANDEL; COROMANDEL-PJ-01PJ 0,00 0,00 0,00 18,00 0,00 0,00 0,00 0,00 0,00 31/01/2024
470 470900 ANA PAULA VALADARES ANALISTA DO MP PITANGUI - COMARCA; PITANGUI-PJ-01PJ 1.978,00 0,00 605,00 0,00 5.924,93 0,00 0,00 0,00 543,12 31/01/2024
471 447000 ANA PAULA VALENTIM DE ARAUJO ANALISTA DO MP BELO HORIZONTE - COMARCA; PROC JUST ESP ACOES COMP ORIG CRIMINAL-ASSESS 1.978,00 0,00 605,00 0,00 0,00 0,00 0,00 0,00 0,00 31/01/2024
472 604200 ANA PAULA VIANA E SILVA OFICIAL DO MP BELO HORIZONTE - COMARCA; BH-17PJ PATRIMONIO PUBLICO-SECRETARIA 1.978,00 0,00 605,00 0,00 0,00 0,00 0,00 0,00 0,00 31/01/2024
473 505400 ANA PAULA VIEIRA SOUTO OFICIAL DO MP ALMENARA - COMARCA; ALMENARA-PJ-01PJ 1.978,00 0,00 605,00 0,00 0,00 0,00 0,00 0,00 0,00 31/01/2024
474 280200 ANA RACHEL BRANDAO LADEIRA ROLAND ANALISTA DO MP BELO HORIZONTE - COMARCA; SUPERINTENDENCIA GESTÃO DE PESSOAS 1.978,00 0,00 605,00 0,00 0,00 0,00 0,00 0,00 0,00 31/01/2024
475 601200 ANA REGINA RIBEIRO ANALISTA DO MP BELO HORIZONTE - COMARCA; DIV FISCAL ADM CONT TERCEIRIZACAO 1.978,00 0,00 605,00 0,00 5.530,86 0,00 0,00 0,00 0,00 31/01/2024
476 384700 ANA RODRIGUES PEREIRA MARRA ANALISTA DO MP BELO HORIZONTE - COMARCA; CENT ESTAD COOPERACAO TECNICO-JURIDICA 1.978,00 1.146,58 605,00 0,00 5.776,81 0,00 0,00 0,00 0,00 31/01/2024
477 232700 ANA SILVIA SEMBLANO NAKAMURA OFICIAL DO MP BELO HORIZONTE - COMARCA; CENT DE APOIO TEC-SETOR DEF,IDOSO E INFANC 1.978,00 0,00 605,00 0,00 5.964,46 0,00 0,00 0,00 546,74 31/01/2024
478 1635400 ANA SOFIA HORTA OLIVEIRA MARTINS DE SOUSA ESTAGIARIO BELO HORIZONTE; DIR RELACOES INSTITUCIONAIS 0,00 0,00 0,00 90,00 0,00 0,00 0,00 0,00 0,00 31/01/2024
479 1417800 ANA TARSILA MAIA CORTES ESTAGIARIO BELO HORIZONTE; BH-08PJ JUIZADO ESPECIAL-GAB 070PJ 0,00 0,00 0,00 180,00 0,00 0,00 0,00 0,00 0,00 31/01/2024
480 1437900 ANA TEREZA RIBEIRO ALFENAS ESTAGIARIO UBA; UBA-PJ-01PJ 0,00 0,00 0,00 162,00 0,00 0,00 0,00 0,00 0,00 31/01/2024
481 530300 ANA TEREZA RIBEIRO SALLES GIACOMINI PROMOTOR 2A ENTRANCIA BELO HORIZONTE - COMARCA; CENTRO ESTADUAL DE APOIO AS VITIMAS 1.978,00 1.146,58 3.392,49 0,00 11.308,31 0,00 0,00 0,00 0,00 31/01/2024
482 701200 ANA VICTORIA ALVES ROCHA QUEIROZ ESTAGIARIO LEOPOLDINA; LEOPOLDINA-PJ-02PJ 0,00 0,00 0,00 144,00 0,00 0,00 0,00 0,00 0,00 31/01/2024
483 1642900 ANA VIRGINIA SANTOS DEMUNER ESTAGIARIO OLIVEIRA; OLIVEIRA-PJ-02PJ 0,00 0,00 0,00 180,00 0,00 0,00 0,00 0,00 0,00 31/01/2024
484 1639800 ANA VITORIA BORGES DE CARVALHO ESTAGIARIO UBERLANDIA; UBERLANDIA-PJ-15PJ 0,00 0,00 0,00 180,00 0,00 0,00 0,00 0,00 0,00 31/01/2024
485 602100 ANACLETO FRANCISCO MARCIER PIMENTA OFICIAL DO MP SÃO JOÃO DEL REI - COMARCA; SAO JOAO DEL REI-PJ-03PJ 1.978,00 1.337,68 605,00 0,00 0,00 0,00 0,00 0,00 0,00 31/01/2024
486 310400 ANADEJE DO CARMO DINIZ ARAUJO OFICIAL DO MP BELO HORIZONTE - COMARCA; DIRETORIA DE PESSOAL ADMINISTRATIVO - DPAD 1.978,00 0,00 605,00 0,00 5.776,81 0,00 0,00 0,00 0,00 31/01/2024
487 337000 ANAILDES MARIA MENDES OFICIAL DO MP JANAÚBA - COMARCA; JANAUBA-PJ-02PJ 1.978,00 1.146,58 605,00 0,00 5.776,81 0,00 0,00 0,00 0,00 31/01/2024
488 750200 ANALU BATISTA TORQUATO ARAUJO ASSESSOR DE CAO BELO HORIZONTE - COMARCA; CAO-ORDEM ECONOMICA E TRIBUTARIA 1.978,00 0,00 605,00 0,00 0,00 0,00 0,00 0,00 0,00 31/01/2024
489 1619700 ANALUZ CRISTINA GONCALVES NASCIMENTO ESTAGIARIO GUARANESIA; GUARANESIA-PJ-UNPJ 0,00 0,00 0,00 162,00 0,00 0,00 0,00 0,00 0,00 31/01/2024
490 1631100 ANANDA COUTO DE OLIVEIRA ESTAGIARIO BELO HORIZONTE; PROC JUST ATUACAO TRIBUNAIS SUPERIORES-GAB003 0,00 0,00 0,00 90,00 0,00 0,00 0,00 0,00 0,00 31/01/2024
491 1631300 ANANDA MITCHI ARAUJO GODINHO ESTAGIARIO BELO HORIZONTE; COORD DE INCLUSAO E MOBILIZACAO SOCIAIS 0,00 0,00 0,00 144,00 0,00 0,00 0,00 0,00 0,00 31/01/2024
492 1653800 ANASTACIA CRISTINA RODRIGUES ESTAGIARIO PASSOS; PASSOS-PJ-05PJ
493 377400 ANDEIRSON DA MATTA BARBOSA ANALISTA DO MP POUSO ALEGRE - COMARCA; POUSO ALEGRE-PJ-01PJ 1.978,00 1.146,58 605,00 0,00 5.776,81 0,00 0,00 0,00 0,00 31/01/2024
494 317400 ANDERSON DA SILVA BICALHO OFICIAL DO MP CONTAGEM - COMARCA; CONTAGEM-PJ-SECRETARIA 1.978,00 0,00 605,00 0,00 0,00 0,00 0,00 0,00 0,00 31/01/2024
495 506900 ANDERSON DE SOUZA DAMIANI ANALISTA DO MP BELO HORIZONTE - COMARCA; DIRETORIA DE PAGAMENTO DE PESSOAL-DPAG 1.978,00 0,00 605,00 0,00 5.476,79 0,00 0,00 0,00 0,00 31/01/2024
496 410000 ANDERSON DE SOUZA NETO ASSESSOR ADMINISTRATIVO II BELO HORIZONTE - COMARCA; DIRETORIA DE ADMINISTRACAO FINANCEIRA 1.978,00 0,00 605,00 0,00 6.005,36 0,00 0,00 0,00 0,00 31/01/2024
497 1584400 ANDERSON FELIPPE FERREIRA ESTAGIARIO BELO HORIZONTE; OUVIDORIA DO MPMG 0,00 0,00 0,00 180,00 0,00 0,00 0,00 0,00 0,00 31/01/2024
498 181900 ANDERSON FLAVIO DE OLIVEIRA OFICIAL DO MP ITAGUARA - COMARCA; ITAGUARA-PJ-SECRETARIA 1.978,00 0,00 605,00 0,00 0,00 0,00 0,00 0,00 0,00 31/01/2024
499 333200 ANDERSON JOSE DE FREITAS OFICIAL DO MP IPATINGA - COMARCA; IPATINGA-PJ-04PJ 1.978,00 1.146,58 605,00 0,00 5.701,87 0,00 1.771,66 0,00 0,00 31/01/2024
500 1555400 ANDERSON LUCAS DE ANDRADE SILVA ESTAGIARIO PRADOS; PRADOS-PJ-UNPJ 0,00 0,00 0,00 180,00 0,00 0,00 0,00 0,00 0,00 31/01/2024
501 699400 ANDERSON LUIZ CABRAL ASSESSOR PROMOTOR JUSTICA ALÉM PARAÍBA - COMARCA; ALEM PARAIBA-PJ-03PJ 1.978,00 0,00 605,00 0,00 0,00 0,00 0,00 0,00 0,00 31/01/2024
502 462100 ANDERSON LUIZ GUIMARAES CARDOSO ANALISTA DO MP BARBACENA - COMARCA; BARBACENA-PJ-02PJ 1.978,00 0,00 605,00 0,00 6.228,23 0,00 0,00 0,00 0,00 31/01/2024
503 429700 ANDERSON MELO DE SOUZA COORDENADOR II BELO HORIZONTE - COMARCA; DIRET DE ESTAGIOS E CONVENIOS ACADEMICOS 1.978,00 0,00 605,00 0,00 5.913,70 0,00 0,00 0,00 0,00 31/01/2024
504 545600 ANDERSON MENDES PROCOPIO FERREIRA ANALISTA DO MP BELO HORIZONTE - COMARCA; BH-12PJ JUIZO CRIMINAL-GAB 089PJ 1.978,00 0,00 605,00 0,00 5.924,93 0,00 0,00 0,00 0,00 31/01/2024
505 519900 ANDERSON MOREIRA DOEHLER ANALISTA DO MP TEÓFILO OTONI - COMARCA; COORD REG SAUDE MACRORREGIAO SANIT NORDESTE 1.978,00 0,00 605,00 0,00 0,00 0,00 0,00 0,00 0,00 31/01/2024
506 1379900 ANDERSON NASCIMENTO DOS SANTOS ESTAGIARIO MARIANA; MARIANA-PJ-01PJ 0,00 0,00 0,00 36,00 291,67 0,00 0,00 0,00 0,00 31/01/2024
507 103000 ANDERSON TADEU DE DEUS ASSESSOR ADMINISTRATIVO II BELO HORIZONTE - COMARCA; BH-26 CRIME CONT CRIAN ADOL-SECRETARIA 1.978,00 0,00 605,00 0,00 6.846,11 0,00 0,00 0,00 544,99 31/01/2024
508 652500 ANDERSON TADEU LOPES INVESTIGADOR DE POLICIA 2 CONTAGEM - COMARCA; COORD REG DEF ORDEM ECON TRIB CONTAGEM 1.978,00 0,00 0,00 0,00 0,00 0,00 0,00 0,00 0,00 31/01/2024
509 309200 ANDITYAS SOARES DE MOURA COSTA MATOS ANALISTA DO MP BELO HORIZONTE - COMARCA; GABINETE DE PROCURADOR DE JUSTIÇA - SALA 909 1.978,00 0,00 605,00 0,00 0,00 0,00 0,00 0,00 0,00 31/01/2024
510 1471100 ANDRE BAMBIRRA DE PAULA REIS ESTAGIARIO BELO HORIZONTE; GABINETE DE PROCURADOR DE JUSTIÇA - SALA 612 0,00 0,00 0,00 162,00 0,00 0,00 0,00 0,00 0,00 31/01/2024
511 519200 ANDRE BORJA LANA ANALISTA DO MP BELO HORIZONTE - COMARCA; DIR CONTEUDO JORNALISTICO 1.978,00 1.146,58 605,00 0,00 5.924,93 0,00 0,00 0,00 0,00 31/01/2024
512 486000 ANDRE CARDOSO CAVALCANTI PROMOTOR 2A ENTRANCIA ITAJUBA - COMARCA; ITAJUBA-PJ-02PJ 1.978,00 2.293,16 3.392,49 0,00 13.569,98 0,00 0,00 0,00 518,30 31/01/2024
513 1512600 ANDRE CHAVES REIS ESTAGIARIO BELO HORIZONTE; GABINETE DE PROCURADOR DE JUSTIÇA - SALA 407
514 102400 ANDRE DE OLIVEIRA ANDRADE PROMOT.ENTRANC.ESPECIAL BELO HORIZONTE - COMARCA; BH-02PJ FAMILIA-GAB 030PJ 1.978,00 0,00 3.571,05 0,00 24.043,95 0,00 0,00 0,00 734,68 31/01/2024
515 656000 ANDRE DE OLIVEIRA SOUSA INVESTIGADOR DE POLICIA 2 BELO HORIZONTE - COMARCA; GAECO - SETOR POLICIAL CIVIL 1.978,00 0,00 0,00 0,00 0,00 0,00 0,00 0,00 0,00 31/01/2024
516 79200 ANDRE ESTEVAO UBALDINO PEREIRA PROCURADOR DE JUSTICA BELO HORIZONTE - COMARCA; GABINETE DE PROCURADOR DE JUSTIÇA - SALA 501 1.978,00 0,00 3.759,00 0,00 24.043,95 0,00 0,00 0,00 734,68 31/01/2024
517 637200 ANDRE FERNANDES DA CUNHA OFICIAL DO MP MORADA NOVA DE MINAS - COMARCA; MORADA NOVA DE MINAS-PJ-UNPJ 1.978,00 0,00 605,00 0,00 3.302,95 0,00 0,00 0,00 302,77 31/01/2024
518 162800 ANDRE FERNANDO COLUCCO PROMOTOR 2A ENTRANCIA CASSIA - COMARCA; CASSIA-PJ-02PJ 1.978,00 0,00 3.392,49 0,00 18.822,81 0,00 0,00 0,00 575,14 31/01/2024
519 651500 ANDRE GONCALVES MARANHAO OFICIAL DO MP ANDRADAS - COMARCA; ANDRADAS-PJ-02PJ 1.978,00 0,00 605,00 0,00 0,00 0,00 0,00 0,00 0,00 31/01/2024
520 749600 ANDRE LAUREANO SILVA 3O. SARGENTO BELO HORIZONTE - COMARCA; CAO-ORDEM ECONOMICA E TRIBUTARIA 1.978,00 0,00 0,00 0,00 0,00 0,00 0,00 0,00 0,00 31/01/2024
521 439200 ANDRE LEITE DE ALMEIDA PROMOT.ENTRANC.ESPECIAL VESPASIANO - COMARCA; VESPASIANO-PJ-03PJ 1.978,00 0,00 1.785,77 0,00 5.951,74 0,00 0,00 0,00 545,58 31/01/2024
522 1559100 ANDRE LUCAS GOMES DE BRITO ESTAGIARIO UBERABA; UBERABA-PJ-05PJ 0,00 0,00 0,00 180,00 0,00 0,00 0,00 0,00 0,00 31/01/2024
523 166900 ANDRE LUIS ALVES DE MELO PROMOTOR 2A ENTRANCIA ARAGUARI - COMARCA; ARAGUARI-PJ-01PJ 1.978,00 0,00 3.392,49 0,00 18.822,81 0,00 0,00 0,00 575,14 31/01/2024
524 85000 ANDRE LUIS GARCIA DE PINHO PROMOT.ENTRANC.ESPECIAL BELO HORIZONTE - COMARCA; SUPER DE GESTAO DE PESSOAS-EM DISPONIBILIDADE 0,00 1.146,58 3.047,76 0,00 0,00 0,00 0,00 0,00 0,00 31/01/2024
525 521900 ANDRE LUIS GOMES SILVA ANALISTA DO MP FORMIGA - COMARCA; FORMIGA-PJ-02PJ 1.978,00 2.866,45 605,00 0,00 5.924,93 0,00 0,00 0,00 0,00 31/01/2024
526 340800 ANDRE LUIS MACHADO ARANTES PROMOTOR 2A ENTRANCIA PARÁ DE MINAS - COMARCA; PARA DE MINAS-PJ-05PJ 1.978,00 0,00 3.571,05 0,00 16.664,88 0,00 0,00 0,00 2.331,10 31/01/2024
527 304300 ANDRE LUIZ AVELAR ANALISTA DO MP BELO HORIZONTE - COMARCA; DIRETORIA DE REDES E BANCOS DE DADOS 1.978,00 0,00 605,00 0,00 0,00 0,00 0,00 0,00 0,00 31/01/2024
528 1621700 ANDRE LUIZ FERNANDES ESTAGIARIO VARGINHA; VARGINHA-PJ-06PJ 0,00 0,00 0,00 180,00 0,00 0,00 0,00 0,00 0,00 31/01/2024
529 666100 ANDRE LUIZ FERREIRA VALADARES PROMOTOR 2A ENTRANCIA VARZEA DA PALMA - COMARCA; VARZEA DA PALMA-PJ-02PJ 1.978,00 0,00 892,88 0,00 0,00 0,00 0,00 0,00 0,00 31/01/2024
530 530200 ANDRE LUIZ NOLLI MERRIGHI PROMOT.ENTRANC.ESPECIAL SETE LAGOAS - COMARCA; SETE LAGOAS-PJ-03PJ 1.978,00 0,00 3.571,05 0,00 17.855,23 0,00 0,00 0,00 545,58 31/01/2024
531 718800 ANDRE OBERG LEMOS PROMOTOR SUBSTITUTO GRAO MOGOL - COMARCA; GRAO MOGOL-PJ-UNPJ 0,00 0,00 0,00 162,00 0,00 0,00 0,00 0,00 0,00 31/01/2024
532 397400 ANDRE PATARO MYRRHA DE PAULA E SILVA ANALISTA DO MP BELO HORIZONTE - COMARCA; ASSESSORIA JURIDICO-ADMINISTRATIVA 1.978,00 1.146,58 605,00 0,00 5.338,75 0,00 0,00 0,00 0,00 31/01/2024
533 533200 ANDRE PEREIRA MAFIA PROMOTOR 2A ENTRANCIA ALÉM PARAÍBA - COMARCA; ALEM PARAIBA-PJ-01PJ 1.978,00 0,00 947,00 0,00 10.177,49 0,00 0,00 0,00 518,30 31/01/2024
534 441200 ANDRE SALLES DIAS PINTO PROMOTOR 2A ENTRANCIA IGARAPÉ - COMARCA; IGARAPE-PJ-01PJ 1.978,00 1.146,58 3.392,49 0,00 5.654,16 0,00 0,00 0,00 518,30 31/01/2024
535 237800 ANDRE SILVARES VASCONCELOS PROMOTOR 2A ENTRANCIA PIUMHI - COMARCA; PIUMHI-PJ-02PJ 1.978,00 1.146,58 3.392,49 0,00 17.941,60 0,00 0,00 0,00 548,22 31/01/2024
536 231800 ANDRE SPERLING PRADO PROMOT.ENTRANC.ESPECIAL BELO HORIZONTE - COMARCA; BH-19PJ SAUDE-GAB 047PJ 1.978,00 0,00 3.571,05 0,00 19.916,55 0,00 0,00 0,00 608,56 31/01/2024
537 666300 ANDRE TANURE DOMINGUES FIGUEIREDO PROMOTOR 2A ENTRANCIA PONTE NOVA - COMARCA; PONTE NOVA-PJ-05PJ 1.978,00 0,00 3.392,49 0,00 16.962,47 0,00 0,00 0,00 518,30 31/01/2024
538 650100 ANDRE THOME VARGAS OFICIAL DO MP LEOPOLDINA - COMARCA; LEOPOLDINA-PJ-04PJ 1.978,00 0,00 605,00 0,00 6.077,78 0,00 0,00 0,00 0,00 31/01/2024
539 231600 ANDRE TUMA DELBIM FERREIRA PROMOT.ENTRANC.ESPECIAL UBERABA - COMARCA; UBERABA-PJ-10PJ 1.978,00 0,00 1.136,40 0,00 18.885,89 0,00 0,00 0,00 577,07 31/01/2024
540 671500 ANDRE VALDERRAMAS FRANCO PROMOTOR 2A ENTRANCIA MONTE CARMELO - COMARCA; MONTE CARMELO-PJ-02PJ 1.978,00 0,00 892,88 0,00 16.962,47 0,00 0,00 0,00 518,30 31/01/2024
541 548500 ANDRE VINICIUS CARVALHO MEIRA ANALISTA DO MP JUIZ DE FORA - COMARCA; JUIZ DE FORA-PJ-24PJ 1.978,00 0,00 605,00 0,00 5.924,93 0,00 0,00 0,00 0,00 31/01/2024
542 297200 ANDRE WILLE ROSARIO ANALISTA DO MP BELO HORIZONTE - COMARCA; ASSESSORIA ESPECIAL DO PGJ 1.978,00 0,00 605,00 0,00 5.998,28 0,00 0,00 0,00 0,00 31/01/2024
543 224500 ANDREA BASILIO GONCALVES GOLLOP PROMOT.ENTRANC.ESPECIAL BELO HORIZONTE - COMARCA; BH-18PJ VIOLENCIA DOMESTICA-GAB 186PJ 1.978,00 0,00 3.571,05 0,00 0,00 0,00 0,00 0,00 0,00 31/01/2024
544 666400 ANDREA CLEMENTE BARBOSA DE SOUZA PROMOTOR SUBSTITUTO ITAÚNA - COMARCA; ITAUNA-PJ-05PJ 1.978,00 1.146,58 3.211,05 0,00 12.891,48 0,00 0,00 0,00 492,38 31/01/2024
545 423600 ANDREA COSTA GUALBERTO ALVES ANALISTA DO MP GOVERNADOR VALADARES - COMARCA; COORD REG PJ DEF EDU DIR CRIANCA ADOL RIODOCE 1.978,00 0,00 605,00 0,00 6.020,78 0,00 0,00 0,00 551,90 31/01/2024
546 230600 ANDREA CRISTINA CALDAS SANTIAGO PROMOT.ENTRANC.ESPECIAL CONSELHEIRO LAFAIETE - COMARCA; CONSELHEIRO LAFAIETE-PJ-07PJ 1.978,00 0,00 2.029,28 0,00 0,00 0,00 0,00 0,00 0,00 31/01/2024
547 467300 ANDREA DE CASSIA PENNA ALVERNAZ ANALISTA DO MP PONTE NOVA - COMARCA; PONTE NOVA-PJ-01PJ 1.978,00 0,00 605,00 0,00 5.924,93 0,00 0,00 0,00 0,00 31/01/2024
548 308000 ANDREA DE CASSIA SANTOS OLIVEIRA ANALISTA DO MP BELO HORIZONTE - COMARCA; COORD DE GABINETE DO PGJ 1.978,00 0,00 605,00 0,00 5.998,28 0,00 0,00 0,00 0,00 31/01/2024
549 106300 ANDREA DE FIGUEIREDO SOARES PROCURADOR DE JUSTICA BELO HORIZONTE - COMARCA; GABINETE DE PROCURADOR DE JUSTIÇA - SALA 709 1.978,00 0,00 3.759,00 0,00 24.043,95 0,00 0,00 0,00 734,68 31/01/2024
550 349500 ANDREA DE OLIVEIRA LOIOLA REGIS OFICIAL DO MP IGUATAMA - COMARCA; IGUATAMA-PJ-UNPJ 1.978,00 0,00 605,00 0,00 0,00 0,00 0,00 0,00 0,00 31/01/2024
551 287900 ANDREA FERNANDES PENA MARTINS OFICIAL DO MP MONTES CLAROS - COMARCA; MONTES CLAROS-PJ-09PJ 1.978,00 0,00 605,00 0,00 6.221,18 0,00 0,00 0,00 1.036,86 31/01/2024
552 300800 ANDREA FERREIRA ANALISTA DO MP LAVRAS - COMARCA; LAVRAS-PJ-04PJ 1.978,00 0,00 605,00 0,00 5.769,84 0,00 0,00 0,00 0,00 31/01/2024
553 395100 ANDREA LANNA MENDES NOVAIS ANALISTA DO MP BELO HORIZONTE - COMARCA; PROMOT ESTADUAL DE DEF PATRI CULT E TUR DE MG 1.978,00 0,00 605,00 0,00 0,00 0,00 0,00 0,00 0,00 31/01/2024
554 67300 ANDREA LEAO MAGALHAES ROQUE ASSESSOR ADMINISTRATIVO IV BELO HORIZONTE - COMARCA; GRUPO ATUACAO ESP COMB CRIMES CIBER 1.978,00 0,00 605,00 0,00 0,00 0,00 0,00 0,00 0,00 31/01/2024
555 335700 ANDREA LOPES PEREIRA ANALISTA DO MP GOVERNADOR VALADARES - COMARCA; COORD REG DO MA DA BACIA DO RIO DOCE 1.978,00 0,00 605,00 0,00 0,00 0,00 0,00 0,00 0,00 31/01/2024
556 224700 ANDREA MARIA NESSRALLA BAHURY PROMOT.ENTRANC.ESPECIAL BELO HORIZONTE - COMARCA; BH-12PJ JUIZO CRIMINAL-GAB 089PJ 1.978,00 0,00 3.111,57 0,00 8.014,65 0,00 0,00 0,00 734,68 31/01/2024
557 167000 ANDREA MISMOTTO CARELLI PROMOT.ENTRANC.ESPECIAL BELO HORIZONTE - COMARCA; BH-17PJ PATRIMONIO PUBLICO-GAB 004PJ 1.978,00 0,00 1.244,63 0,00 0,00 0,00 0,00 0,00 0,00 31/01/2024
558 389200 ANDREA TUPINI DOS SANTOS TRISTAO DA ROCHA GESTOR ADM. SECRETARIA IV BELO HORIZONTE - COMARCA; BH-13ª PJ JUÍZO DE TÓXICOS-SECRETARIA 1.978,00 0,00 605,00 0,00 5.583,32 0,00 0,00 0,00 0,00 31/01/2024
559 419000 ANDREIA BARBOSA DE ALMEIDA ANALISTA DO MP BELO HORIZONTE - COMARCA; CENT ESTAD COOPERACAO TECNICO-JURIDICA 1.978,00 0,00 605,00 0,00 5.656,80 0,00 0,00 0,00 0,00 31/01/2024
560 281501 ANDREIA CARLA COSTA ANALISTA DO MP UBÁ - COMARCA; UBA-PJ-02PJ 1.978,00 0,00 605,00 0,00 0,00 0,00 0,00 0,00 0,00 31/01/2024
561 717800 ANDREIA CRISTINA PEREIRA ALVES ESTAGIARIO GUAXUPE; GUAXUPE-PJ-02PJ 0,00 0,00 0,00 180,00 0,00 0,00 0,00 0,00 0,00 31/01/2024
562 477100 ANDREIA DE ALMEIDA RIBEIRO MELO OFICIAL DO MP CONTAGEM - COMARCA; CONTAGEM-PJ-SECRETARIA 1.978,00 0,00 605,00 0,00 6.211,29 0,00 0,00 0,00 0,00 31/01/2024
563 619000 ANDREIA FERREIRA NORONHA COORDENADOR II BELO HORIZONTE - COMARCA; DIRETORIA DE SERVICO CRIMINAL 1.978,00 0,00 605,00 0,00 5.420,89 0,00 0,00 0,00 0,00 31/01/2024
564 747000 ANDREIA FERREIRA TIAGO OFICIAL DO MP SÃO JOÃO DA PONTE - COMARCA; SAO JOAO DA PONTE-PJ-UNPJ 1.978,00 1.146,58 605,00 0,00 0,00 326,74 0,00 0,00 0,00 31/01/2024
565 424000 ANDREIA LUCIA COUTO ANALISTA DO MP BELO HORIZONTE - COMARCA; BH-18PJ DIREITOS HUMANOS-SECRETARIA 1.978,00 0,00 605,00 0,00 0,00 0,00 0,00 0,00 1.572,55 31/01/2024
566 370100 ANDREIA MARIA SILVA PINTO OFICIAL DO MP CORONEL FABRICIANO - COMARCA; CORONEL FABRICIANO-PJ-SECRETARIA 1.978,00 1.146,58 605,00 0,00 0,00 0,00 0,00 0,00 0,00 31/01/2024
567 382100 ANDREIA NATALI PEREIRA DE OLIVEIRA OFICIAL DO MP PRADOS - COMARCA; PRADOS-PJ-UNPJ 1.978,00 0,00 605,00 0,00 0,00 0,00 0,00 0,00 0,00 31/01/2024
568 198701 ANDREIA NUNES DURAES PROMOTOR 2A ENTRANCIA BOCAIÚVA - COMARCA; BOCAIUVA-PJ-02PJ 1.978,00 0,00 0,00 0,00 16.962,48 0,00 0,00 0,00 518,30 31/01/2024
569 275200 ANDREIA RIBEIRO FREITAS OFICIAL DO MP VIÇOSA - COMARCA; VICOSA-PJ-04PJ 1.978,00 0,00 605,00 0,00 6.087,86 0,00 0,00 0,00 558,05 31/01/2024
570 352200 ANDREIA XAVIER PEREIRA OFICIAL DO MP DIVINÓPOLIS - COMARCA; DIVINOPOLIS-PJ-08PJ 1.978,00 1.719,87 605,00 0,00 5.776,81 0,00 0,00 0,00 529,54 31/01/2024
571 1626100 ANDREINA BERNARDES PERES ESTAGIARIO PATOS DE MINAS; PATOS DE MINAS-PJ-03PJ 0,00 0,00 0,00 90,00 678,33 0,00 0,00 0,00 0,00 31/01/2024
572 638500 ANDRESA ALVES FEITOSA CASAGRANDE ANALISTA DO MP LAVRAS - COMARCA; COORD REG DO MA DA BACIA DO RIO GRANDE 1.978,00 0,00 605,00 0,00 0,00 0,00 0,00 0,00 0,00 31/01/2024
573 1566800 ANDRESON FERREIRA DE SOUZA ESTAGIARIO UBA; UBA-PJ-01PJ 0,00 0,00 0,00 90,00 0,00 0,00 0,00 0,00 0,00 31/01/2024
574 1631900 ANDRESSA DANIELY PEREIRA ESTAGIARIO TRES CORACOES; TRES CORACOES-PJ-03PJ 0,00 0,00 0,00 198,00 0,00 0,00 0,00 0,00 123,33 31/01/2024
575 210000 ANDRESSA DE OLIVEIRA LANCHOTTI PROMOT.ENTRANC.ESPECIAL BELO HORIZONTE - COMARCA; BH-12PJ JUIZO CRIMINAL-GAB 104PJ 1.978,00 0,00 3.571,05 0,00 7.533,74 0,00 0,00 0,00 575,49 31/01/2024
576 383700 ANDRESSA EDUARDO SOUZA ANALISTA DO MP OURO BRANCO - COMARCA; OURO BRANCO-PJ-SECRETARIA 1.978,00 1.146,58 605,00 0,00 0,00 0,00 0,00 0,00 0,00 31/01/2024
577 485500 ANDRESSA ISABELLE FERREIRA BARRETO PROMOTOR 2A ENTRANCIA CONCEICAO DAS ALAGOAS - COMARCA; CONCEICAO DAS ALAGOAS-PJ-02PJ 1.978,00 0,00 3.392,49 0,00 16.962,47 0,00 0,00 0,00 518,30 31/01/2024
578 1617700 ANDRESSA LAIS ALMEIDA ALECRIM ESTAGIARIO CAPELINHA; CAPELINHA-PJ-02PJ 0,00 0,00 0,00 180,00 0,00 0,00 0,00 0,00 0,00 31/01/2024
579 678400 ANDRESSA LUIZA SILVA LOPES ASSESSOR PROMOTOR JUSTICA CARMO DO PARANAÍBA - COMARCA; CARMO DO PARANAIBA-PJ-02PJ 1.978,00 0,00 605,00 0,00 0,00 0,00 0,00 0,00 0,00 31/01/2024
580 426200 ANDRESSA MENDES CASAL OFICIAL DO MP BELO HORIZONTE - COMARCA; DIR ESTRUTURA E PROCESSOS ORGANIZACIONAIS 1.978,00 1.146,58 605,00 0,00 0,00 0,00 0,00 0,00 0,00 31/01/2024
581 390100 ANDRESSA RIBEIRO PUCCI OFICIAL DO MP UBERABA - COMARCA; UBERABA-PJ-14PJ 1.978,00 0,00 605,00 0,00 6.052,65 0,00 0,00 0,00 0,00 31/01/2024
582 1564200 ANDRESSA RODRIGUES DOS SANTOS ESTAGIARIO GUAXUPE; GUAXUPE-PJ-02PJ 0,00 0,00 0,00 180,00 0,00 0,00 0,00 0,00 0,00 31/01/2024
583 1537800 ANDRESSA VILELA FERREIRA ESTAGIARIO ITUIUTABA; ITUIUTABA-PJ-01PJ 0,00 0,00 0,00 72,00 0,00 0,00 0,00 0,00 0,00 31/01/2024
584 462500 ANDREZA APARECIDA COSTA E SILVA ANALISTA DO MP CONSELHEIRO LAFAIETE - COMARCA; CONSELHEIRO LAFAIETE-PJ-02PJ 1.978,00 2.293,16 605,00 0,00 0,00 0,00 0,00 0,00 0,00 31/01/2024
585 1632400 ANDREZA CAROLYNE QUINTINO TRIGUEIRO DE LIMA ESTAGIARIO BELO HORIZONTE; BH-15PJ M AMB PAT HIST CULT-GAB 114PJ 0,00 0,00 0,00 162,00 0,00 0,00 0,00 0,00 0,00 31/01/2024
586 1515300 ANDREZA CRISTINA DA SILVA SOUZA ESTAGIARIO BELO HORIZONTE; BH-19PJ SAUDE-SECRETARIA 047PJ 0,00 0,00 0,00 108,00 0,00 0,00 0,00 0,00 0,00 31/01/2024
587 677700 ANDREZA DE LOURDES FERREIRA DE PAIVA ASSESSOR PROMOTOR JUSTICA ABRE CAMPO - COMARCA; ABRE CAMPO-PJ-01PJ 1.978,00 0,00 605,00 0,00 0,00 0,00 0,00 0,00 0,00 31/01/2024
588 1483200 ANDREZA FARIA MOSELI ESTAGIARIO VARGINHA; VARGINHA-PJ-04PJ 0,00 0,00 0,00 180,00 0,00 0,00 0,00 0,00 0,00 31/01/2024
589 1447600 ANDREZZA CRISTINA DIAS DE ANDRADE ESTAGIARIO SANTOS DUMONT; SANTOS DUMONT-PJ-01PJ 0,00 0,00 0,00 180,00 0,00 0,00 0,00 0,00 0,00 31/01/2024
590 537800 ANDREZZA LUZIA DE OLIVEIRA ALVES ANALISTA DO MP PATOS DE MINAS - COMARCA; COORD REG PJ DEF EDU DIR CRI ADO AL PAR NOROE 1.978,00 0,00 605,00 0,00 5.924,93 0,00 0,00 0,00 0,00 31/01/2024
591 1676300 ANE CAROLINE CARDOSO ALVES ESTAGIARIO BELO HORIZONTE; ASSESS TECN DA JUNTA RECURSAL DO PROCON EST 0,00 0,00 0,00 216,00 0,00 0,00 0,00 0,00 0,00 31/01/2024
592 491600 ANE PATRICIA RIBEIRO DUARTE ANALISTA DO MP SETE LAGOAS - COMARCA; SETE LAGOAS-PJ-11PJ 1.978,00 0,00 605,00 0,00 0,00 0,00 0,00 0,00 0,00 31/01/2024
593 361900 ANELISA CARDOSO RIBEIRO PROMOT.ENTRANC.ESPECIAL CONTAGEM - COMARCA; CONTAGEM-PJ-05PJ 1.978,00 0,00 2.272,80 0,00 16.664,87 0,00 0,00 0,00 545,58 31/01/2024
594 465800 ANELISE GAMA ASSESSOR ADMINISTRATIVO III BELO HORIZONTE - COMARCA; BH-18PJ VIOLENCIA DOMESTICA-SECRETARIA 1.978,00 0,00 605,00 0,00 6.080,98 0,00 0,00 0,00 0,00 31/01/2024
595 535200 ANELIZE FERNANDA ALVES VILARINHO OFICIAL DO MP CAPINÓPOLIS - COMARCA; CAPINOPOLIS-PJ-UNPJ 1.978,00 1.146,58 605,00 0,00 6.125,47 0,00 0,00 0,00 0,00 31/01/2024
596 726600 ANGELA BARNABE GORGULHO GONZALEZ ESTAGIARIO CASSIA; CASSIA-PJ-01PJ 1.978,00 0,00 605,00 0,00 5.991,41 0,00 0,00 0,00 0,00 31/01/2024
597 197200 ANGELA COELHO SALDANHA OFICIAL DO MP PARÁ DE MINAS - COMARCA; PARA DE MINAS-PJ-03PJ 1.978,00 0,00 605,00 0,00 0,00 0,00 0,00 0,00 0,00 31/01/2024
598 307400 ANGELA CRISTINA GONCALVES MUNIZ ANALISTA DO MP UBERLÂNDIA - COMARCA; UBERLANDIA-PJ-SEC FAMILIA 1.978,00 0,00 605,00 0,00 5.167,75 0,00 0,00 0,00 473,71 31/01/2024
599 157100 ANGELA FABERO PROMOT.ENTRANC.ESPECIAL BELO HORIZONTE - COMARCA; BH-23PJ INFRACIONAL-GAB 145PJ 1.978,00 0,00 3.571,05 0,00 24.043,95 0,00 0,00 0,00 734,68 31/01/2024
600 191800 ANGELA MARIA DE OLIVEIRA OFICIAL DO MP GUARANÉSIA - COMARCA; GUARANESIA-PJ-SECRETARIA 1.978,00 0,00 605,00 0,00 5.205,26 0,00 0,00 0,00 0,00 31/01/2024
601 497400 ANGELA MARIA HENRIQUES ANALISTA DO MP BELO HORIZONTE - COMARCA; COORD REG BACIAS RIO VELHAS E PARAOPEBA 1.978,00 0,00 605,00 0,00 5.924,93 0,00 0,00 0,00 543,12 31/01/2024
602 54600 ANGELA MARIA PEREIRA GRAVINA PROMOT.ENTRANC.ESPECIAL JUIZ DE FORA - COMARCA; JUIZ DE FORA-PJ-11PJ 1.978,00 0,00 2.324,84 0,00 24.043,95 0,00 0,00 0,00 734,68 31/01/2024
603 1482400 ANGELI COSTA MARTINS ESTAGIARIO ARAGUARI; ARAGUARI-PJ-04PJ 0,00 0,00 0,00 180,00 0,00 0,00 0,00 0,00 0,00 31/01/2024
604 260700 ANGELICA CRISTINA AZEVEDO MOREIRA MOUCO OFICIAL DO MP UBÁ - COMARCA; UBA-PJ-05PJ 1.978,00 0,00 605,00 0,00 6.091,94 0,00 0,00 0,00 0,00 31/01/2024
605 1623700 ANGELICA FLORIANO DE MOURA ESTAGIARIO CONTAGEM; CONTAGEM-PJ-22PJ 0,00 0,00 0,00 162,00 0,00 0,00 0,00 0,00 0,00 31/01/2024
606 708300 ANGELICA NUNES VIEIRA DA SILVA ASSESSOR PROMOTOR JUSTICA IBIRITÉ - COMARCA; IBIRITE-PJ-02PJ 1.978,00 0,00 605,00 0,00 5.286,53 0,00 0,00 0,00 0,00 31/01/2024
607 334600 ANGELICA PANISSA DE FREITAS GALLATI OFICIAL DO MP GUAXUPÉ - COMARCA; GUAXUPE-PJ-02PJ 1.978,00 1.146,58 605,00 0,00 6.221,18 0,00 0,00 0,00 0,00 31/01/2024
608 660400 ANGELICA POLLYANA QUEIROZ DE MEDEIROS PROMOTOR 2A ENTRANCIA FRUTAL - COMARCA; FRUTAL-PJ-01PJ 1.978,00 0,00 947,00 0,00 11.308,32 0,00 0,00 0,00 518,30 31/01/2024
609 521100 ANGELICA SALES MOREIRA OFICIAL DO MP BELO HORIZONTE - COMARCA; BH-02PJ FAMILIA-SECRETARIA 1.978,00 0,00 605,00 0,00 6.057,50 0,00 0,00 0,00 0,00 31/01/2024
610 466500 ANGELLO MARQUES AGRELLI ANALISTA DO MP MAR DE ESPANHA - COMARCA; MAR DE ESPANHA-PJ-UNPJ 1.978,00 1.146,58 605,00 0,00 0,00 0,00 0,00 0,00 0,00 31/01/2024
611 222700 ANGELO ALEXANDRE MARZANO PROMOT.ENTRANC.ESPECIAL BELO HORIZONTE - COMARCA; BH-PJ AUXILIAR-GAB 141PJ 1.978,00 0,00 3.246,86 0,00 21.734,28 0,00 0,00 0,00 664,10 31/01/2024
612 167100 ANGELO ANSANELLI JUNIOR PROMOTOR 2A ENTRANCIA FORMIGA - COMARCA; FORMIGA-PJ-02PJ 1.978,00 0,00 3.392,49 0,00 18.920,72 0,00 0,00 0,00 578,13 31/01/2024
613 363300 ANGELO VERDOLIN HENRIQUES ANALISTA DO MP SETE LAGOAS - COMARCA; SETE LAGOAS-PJ-04PJ 1.978,00 0,00 605,00 0,00 6.213,67 0,00 0,00 0,00 0,00 31/01/2024
614 267600 ANIBAL TAMAOKI PROMOT.ENTRANC.ESPECIAL BELO HORIZONTE - COMARCA; BH-18PJ VIOLENCIA DOMESTICA-GAB 053PJ 1.978,00 0,00 3.324,19 0,00 11.903,48 0,00 0,00 0,00 545,58 31/01/2024
615 1430100 ANIELLE FERNANDA EDUARDO SILVA ESTAGIARIO ITABIRA; ITABIRA-PJ-01PJ 0,00 0,00 0,00 180,00 0,00 0,00 0,00 0,00 0,00 31/01/2024
616 250900 ANISIO APARECIDO SANTOS OFICIAL DO MP BETIM - COMARCA; BETIM - SECRETARIA DAS PJS CRIMINAIS 1.978,00 0,00 605,00 0,00 5.885,25 0,00 0,00 0,00 0,00 31/01/2024
617 1588300 ANNA BEATRIZ SILVEIRA CASSIANO ESTAGIARIO MONTE SANTO DE MINAS; MONTE SANTO DE MINAS-PJ-UNPJ 0,00 0,00 0,00 180,00 0,00 0,00 0,00 0,00 0,00 31/01/2024
618 1564800 ANNA CAROLINA BARBOSA METZKER ESTAGIARIO POCOS DE CALDAS; POCOS DE CALDAS-PJ-06PJ 0,00 0,00 0,00 180,00 0,00 0,00 0,00 0,00 0,00 31/01/2024
619 1478900 ANNA CAROLINA DE SENNA BARCANTE ESTAGIARIO FORMIGA; FORMIGA-PJ-04PJ 0,00 0,00 0,00 270,00 0,00 0,00 0,00 0,00 0,00 31/01/2024
620 698100 ANNA CAROLINA POLICARIO BERTOLIN ASSESSOR PROCURADOR JUSTICA BELO HORIZONTE - COMARCA; PROC. JUSTICA DIR. DIFUSOS E COLETIVOS-SEC 1.978,00 0,00 605,00 0,00 0,00 0,00 0,00 0,00 0,00 31/01/2024
621 1459600 ANNA CAROLYNNA SANTOS REZENDE DE ALMEIDA - 2:14596 ESTAGIARIO PONTE NOVA; PONTE NOVA-PJ-01PJ 0,00 0,00 0,00 180,00 0,00 0,00 0,00 0,00 0,00 31/01/2024
622 717900 ANNA CATHARINA MACHADO NORMANTON PROMOTOR SUBSTITUTO MANHUAÇU - COMARCA; MANHUACU-PJ-03PJ 1.978,00 0,00 3.222,87 0,00 16.114,35 0,00 0,00 0,00 492,38 31/01/2024
623 1593000 ANNA CLARA ANGELI VIEIRA ESTAGIARIO BELO HORIZONTE; BH-12PJ JUIZO CRIMINAL-GAB 100PJ 0,00 0,00 0,00 126,00 0,00 0,00 0,00 0,00 0,00 31/01/2024
624 1608000 ANNA CLARA FERNANDES CARVALHO ESTAGIARIO UBERLANDIA; COORD REG PP TRIANGULO MINEIRO UBERLANDIA 0,00 0,00 0,00 180,00 0,00 0,00 0,00 0,00 0,00 31/01/2024
625 253400 ANNA FLAVIA LEHMAN ANALISTA DO MP BELO HORIZONTE - COMARCA; SUPRIN DE PLANEJAMENTO E COORDENACAO 1.978,00 0,00 605,00 0,00 6.014,39 0,00 0,00 0,00 0,00 31/01/2024
626 713600 ANNA LAURA DE OLIVEIRA CARVALHO ALEXANDRINO ESTAGIARIO RIO PARDO DE MINAS; RIO PARDO DE MINAS-PJ-UNPJ 0,00 0,00 0,00 180,00 0,00 0,00 0,00 0,00 0,00 31/01/2024
627 1691000 ANNA LUISA ANDRADE VIEIRA ESTAGIARIO SAO FRANCISCO; SAO FRANCISCO-PJ-02PJ 0,00 0,00 0,00 180,00 0,00 0,00 0,00 0,00 0,00 31/01/2024
628 1640500 ANNA LUIZA AMORIM FRAGA ESTAGIARIO BELO HORIZONTE; BH-08PJ JUIZADO ESPECIAL-SECRETARIA 0,00 0,00 0,00 162,00 0,00 0,00 0,00 0,00 0,00 31/01/2024
629 688800 ANNA LUIZA MATTOS DUARTE ASSESSOR PROCURADOR JUSTICA BELO HORIZONTE - COMARCA; GABINETE DE PROCURADOR DE JUSTICA - SALA 311 1.978,00 0,00 605,00 0,00 5.286,53 0,00 0,00 0,00 484,60 31/01/2024
630 1547200 ANNA LUIZA ULHOA ANDRADE NEVES ESTAGIARIO BELO HORIZONTE; BH-10PJ EXECUÇÃO PENAL-GAB 078PJ 0,00 0,00 0,00 162,00 0,00 0,00 0,00 0,00 0,00 31/01/2024
631 1440200 ANNA MARINA DIAS QUEIROZ PEREIRA ESTAGIARIO MONTES CLAROS; MONTES CLAROS-PJ-01PJ 0,00 0,00 0,00 198,00 0,00 0,00 0,00 0,00 41,67 31/01/2024
632 752100 ANNABELLA ZAVOLI VILLARINHO CARDOSO OFICIAL DO MP ALÉM PARAÍBA - COMARCA; ALEM PARAIBA-PJ-01PJ 1.978,00 0,00 605,00 0,00 0,00 0,00 0,00 0,00 0,00 31/01/2024
633 1632900 ANNACHE VALVERDE ROCHA DINIZ E SILVA ESTAGIARIO CONTAGEM; CONTAGEM-PJ-19PJ 0,00 0,00 0,00 180,00 0,00 0,00 0,00 0,00 0,00 31/01/2024
634 1642200 ANNE CAROLINE DASSUMPCAO FONSECA ESTAGIARIO DIVINOPOLIS; DIVINOPOLIS-PJ-08PJ 0,00 0,00 0,00 198,00 0,00 0,00 0,00 0,00 123,33 31/01/2024
635 706200 ANNE VICTORIA ALVES E SILVA ESTAGIARIO BELO HORIZONTE; BH-17PJ PATRIMONIO PUBLICO 1.978,00 0,00 605,00 0,00 5.286,53 0,00 0,00 0,00 0,00 31/01/2024
636 447600 ANNGELUCE ALCANTARA DE CAMPOS OFICIAL DO MP DIVINÓPOLIS - COMARCA; DIVINOPOLIS-PJ-07PJ 1.978,00 0,00 605,00 0,00 6.015,43 0,00 0,00 0,00 0,00 31/01/2024
637 1506800 ANOA DIAS QUARESMA CAMPOS ESTAGIARIO JACINTO; JACINTO-PJ-UNPJ 0,00 0,00 0,00 180,00 0,00 0,00 0,00 0,00 0,00 31/01/2024
638 1628400 ANTONIA DE PAULA SILVA ESTAGIARIO BELO HORIZONTE; CENT ESTAD COOPERACAO TECNICO-JURIDICA
639 630300 ANTONIA GOMES RAMALHO OFICIAL DO MP NOVO CRUZEIRO - COMARCA; NOVO CRUZEIRO-PJ-UNPJ 1.978,00 2.293,16 605,00 0,00 0,00 0,00 0,00 0,00 0,00 31/01/2024
640 1639700 ANTONIELLE MILENA VENTURA DA SILVA COELHO ESTAGIARIO MURIAE; MURIAE-PJ-01PJ 0,00 0,00 0,00 162,00 0,00 0,00 0,00 0,00 0,00 31/01/2024
641 73100 ANTONIO AURELIO SANTOS PROCURADOR DE JUSTICA BELO HORIZONTE - COMARCA; CAO-CONFLITOS AGRARIOS 1.978,00 0,00 3.246,86 0,00 24.043,95 0,00 0,00 0,00 734,68 31/01/2024
642 157300 ANTONIO BORGES DA SILVA PROMOTOR 2A ENTRANCIA SÃO LOURENÇO - COMARCA; SAO LOURENCO-PJ-02PJ 1.978,00 0,00 3.246,86 0,00 24.043,95 0,00 0,00 0,00 734,68 31/01/2024
643 1603800 ANTONIO CARLOS FERREIRA DOS SANTOS ESTAGIARIO ARAGUARI; ARAGUARI-PJ-02PJ 0,00 0,00 0,00 216,00 0,00 0,00 0,00 0,00 123,33 31/01/2024
644 401600 ANTONIO CARLOS GUEDES AROUCA ANALISTA DO MP BELO HORIZONTE - COMARCA; ASSESSORIA JURIDICO-ADMINISTRATIVA 1.978,00 0,00 605,00 0,00 0,00 0,00 0,00 0,00 0,00 31/01/2024
645 76600 ANTONIO DE PADOVA MARCHI JUNIOR PROCURADOR DE JUSTICA BELO HORIZONTE - COMARCA; GABINETE DE PROCURADOR DE JUSTIÇA - SALA 1006 1.978,00 0,00 3.759,00 0,00 24.043,95 0,00 0,00 0,00 734,68 31/01/2024
646 101900 ANTONIO DIAS MAIA PROCURADOR DE JUSTICA BELO HORIZONTE - COMARCA; GABINETE DE PROCURADOR DE JUSTIÇA - SALA 808 1.978,00 0,00 3.274,52 0,00 14.426,37 0,00 0,00 0,00 734,68 31/01/2024
647 84600 ANTONIO DIOGO DA ROCHA PROMOTOR 1A ENTRANCIA BOTELHOS - COMARCA; BOTELHOS-PJ-UNPJ 1.978,00 0,00 3.222,87 0,00 24.043,95 0,00 0,00 0,00 734,68 31/01/2024
648 333900 ANTONIO GONCALVES DE SOUZA FILHO OFICIAL DO MP BELO HORIZONTE - COMARCA; DIRETORIA DE CONTABILIDADE 1.978,00 0,00 605,00 0,00 0,00 0,00 0,00 0,00 0,00 31/01/2024
649 340600 ANTONIO HENRIQUE FRANCO LOPES PROMOT.ENTRANC.ESPECIAL BELO HORIZONTE - COMARCA; ASSESSORIA ESPECIAL-GABINETE DOS ASSESSORES 1.978,00 0,00 2.218,68 0,00 17.855,22 0,00 0,00 0,00 545,58 31/01/2024
650 67600 ANTONIO JOAQUIM SCHELLENBERGER FERNANDES PROCURADOR DE JUSTICA BELO HORIZONTE - COMARCA; PROC JUSTICA DIR DIFUSOS E COLETIVOS-GAB004 1.978,00 0,00 3.759,00 0,00 24.043,95 0,00 0,00 0,00 734,68 31/01/2024
651 77300 ANTONIO JOSE CHINELATO PROCURADOR DE JUSTICA BELO HORIZONTE - COMARCA; GABINETE DE PROCURADOR DE JUSTIÇA - SALA 1008 1.978,00 0,00 0,00 0,00 24.043,95 0,00 0,00 0,00 734,68 31/01/2024
652 211800 ANTONIO JOSE DE OLIVEIRA PROMOTOR 2A ENTRANCIA PASSOS - COMARCA; PASSOS-PJ-06PJ 1.978,00 0,00 3.392,49 0,00 22.970,24 0,00 0,00 0,00 701,87 31/01/2024
653 1593200 ANTONIO LEONARDO AMORIM DA COSTA CAMPOS ESTAGIARIO JUIZ DE FORA; GAECO REGIONAL DA ZONA DA MATA-JUIZ DE FORA 0,00 0,00 0,00 162,00 0,00 0,00 0,00 0,00 0,00 31/01/2024
654 1624900 ANTONIO LOPES DAS CHAGAS ESTAGIARIO CARATINGA; CARATINGA-PJ-03PJ 0,00 0,00 0,00 180,00 0,00 0,00 0,00 0,00 0,00 31/01/2024
655 1670900 ANTONIO MANOEL SANTOS DA SILVA ESTAGIARIO BELO HORIZONTE; PROCURADORIA DE JUSTIÇA CRIMINAL 0,00 0,00 0,00 180,00 0,00 0,00 0,00 0,00 0,00 31/01/2024
656 176100 ANTONIO MARCELO CAMPOS CAMPANELLA OFICIAL DO MP BELO HORIZONTE - COMARCA; COORD DE GABINETE DO PGJ 1.978,00 0,00 605,00 0,00 5.326,00 0,00 0,00 0,00 0,00 31/01/2024
657 321001 ANTONIO OLINTO VIEIRA MACHADO ANALISTA DO MP BELO HORIZONTE - COMARCA; CENTRAL DE APOIO TECN-SETOR DE MEIO AMBIENTE 1.978,00 0,00 605,00 0,00 6.147,52 0,00 0,00 0,00 0,00 31/01/2024
658 356200 ANTONIO PAULA DA SILVA OFICIAL DO MP JUIZ DE FORA - COMARCA; JUIZ DE FORA-PJ-20PJ 1.978,00 0,00 605,00 0,00 6.221,18 0,00 0,00 0,00 0,00 31/01/2024
659 63400 ANTONIO PEDRO DA SILVA MELO PROMOT.ENTRANC.ESPECIAL SÃO JOÃO DEL REI - COMARCA; SAO JOAO DEL REI-PJ-01PJ 1.978,00 0,00 3.246,86 0,00 24.043,95 0,00 0,00 0,00 734,68 31/01/2024
660 119900 ANTONIO RODRIGUES DE PINHO OFICIAL DO MP GUANHÃES - COMARCA; GUANHAES-PJ-01PJ 1.978,00 0,00 605,00 0,00 6.014,39 0,00 0,00 0,00 0,00 31/01/2024
661 373300 ANTONIO SERGIO ANANIAS OFICIAL DO MP SÃO JOÃO NEPOMUCENO - COMARCA; SAO JOAO NEPOMUCENO-PJ-01PJ 1.978,00 0,00 605,00 0,00 0,00 0,00 0,00 0,00 0,00 31/01/2024
662 93500 ANTONIO SERGIO ROCHA DE PAULA PROCURADOR DE JUSTICA BELO HORIZONTE - COMARCA; PROC JUSTICA DIR DIFUSOS E COLETIVOS-GAB003 1.978,00 0,00 3.759,00 0,00 12.823,44 0,00 0,00 0,00 734,68 31/01/2024
663 68700 ANTONIO SERGIO TONET PROCURADOR DE JUSTICA BELO HORIZONTE - COMARCA; GABINETE DE PROCURADOR DE JUSTIÇA - SALA 902 1.978,00 0,00 3.759,00 0,00 24.043,95 0,00 0,00 0,00 734,68 31/01/2024
664 608100 ANTONIO SIDINEY VIEIRA LEMOS ANALISTA DO MP PIRAPORA - COMARCA; PIRAPORA-PJ-01PJ 1.978,00 1.146,58 605,00 0,00 5.924,93 0,00 0,00 0,00 0,00 31/01/2024
665 374700 ANTONIO SILVA NETO OFICIAL DO MP BELO HORIZONTE - COMARCA; GAECO - SECRETARIA 1.978,00 1.146,58 605,00 0,00 0,00 0,00 0,00 0,00 0,00 31/01/2024
666 738600 ANTONIO TADEU FRANCA COSTA FILHO PROMOTOR SUBSTITUTO BRUMADINHO - COMARCA; BRUMADINHO-PJ-02PJ 1.978,00 0,00 757,60 0,00 0,00 0,00 0,00 0,00 0,00 31/01/2024
667 636700 ANTONIUS VITORIANO FERNANDES OFICIAL DO MP BELO HORIZONTE - COMARCA; ASSESSORIA JURIDICA DO PROCON-MG 1.978,00 0,00 605,00 0,00 0,00 0,00 0,00 0,00 0,00 31/01/2024
668 413200 ANY PEREIRA SILVA ANALISTA DO MP TRÊS PONTAS - COMARCA; TRES PONTAS-PJ-01PJ 1.978,00 0,00 605,00 0,00 5.656,80 0,00 0,00 0,00 0,00 31/01/2024
669 151401 APARECIDA DE FATIMA MENDES DE ALMEIDA ASSESSOR ADMINISTRATIVO II JUIZ DE FORA - COMARCA; JUIZ DE FORA-PJ-SECRETARIA 1.978,00 0,00 605,00 0,00 0,00 0,00 0,00 0,00 0,00 31/01/2024
670 329300 APARECIDA MARIA MELO DE ASSIS OFICIAL DO MP BELO HORIZONTE - COMARCA; BH-18PJ DIREITOS HUMANOS-SECRETARIA 1.978,00 0,00 605,00 0,00 0,00 0,00 0,00 0,00 0,00 31/01/2024
671 653000 APARECIDA ROSA DE LIMA ASSESSOR ADMINISTRATIVO III BELO HORIZONTE - COMARCA; SECRETARIA PROCESSOS DISCIPES ADMINISTRATIVOS 1.978,00 0,00 605,00 0,00 6.080,98 0,00 0,00 0,00 0,00 31/01/2024
672 354500 APARECIDA VIEIRA DE CARVALHO OFICIAL DO MP BELO HORIZONTE - COMARCA; DIVISÃO DE EDUCAÇÃO PARA O CONSUMO 1.978,00 0,00 605,00 0,00 6.211,29 0,00 0,00 0,00 0,00 31/01/2024
673 551000 ARACELES BICALHO FELIX ANALISTA DO MP MANHUAÇU - COMARCA; MANHUACU-PJ-06PJ 1.978,00 2.293,16 605,00 0,00 0,00 0,00 0,00 0,00 0,00 31/01/2024
674 286200 ARACELI MEDRADO DOS SANTOS LIMA OFICIAL DO MP PARACATU - COMARCA; PARACATU-PJ-03PJ 1.978,00 1.146,58 605,00 0,00 5.885,25 0,00 0,00 0,00 0,00 31/01/2024
675 1579600 ARACELLI OLIVEIRA SILVEIRA RIBEIRO ESTAGIARIO UBERLANDIA; UBERLANDIA-PJ-06PJ 0,00 0,00 0,00 180,00 0,00 0,00 0,00 0,00 0,00 31/01/2024
676 112200 ARAQUEM AUGUSTO DE MATOS AGENTE DO MP BELO HORIZONTE - COMARCA; BH-23PJ CIVEL-SEC EXP CIVEIS 1.978,00 0,00 605,00 0,00 0,00 0,00 0,00 0,00 0,00 31/01/2024
677 280600 ARDUINO FRATTEZI ANALISTA DO MP BELO HORIZONTE - COMARCA; CENTRAL DE APOIO TECNICO-SETOR CONTABIL 1.978,00 0,00 605,00 0,00 5.958,24 0,00 0,00 0,00 0,00 31/01/2024
678 67700 ARESLAN EUSTAQUIO MARTINS PROMOTOR 1A ENTRANCIA CARMO DA MATA - COMARCA; CARMO DA MATA-PJ-UNPJ 1.978,00 0,00 3.222,87 0,00 24.043,95 0,00 0,00 0,00 734,68 31/01/2024
679 717700 ARIADNA DOS REIS ARAUJO FERREIRA ESTAGIARIO ITAMARANDIBA; ITAMARANDIBA-PJ-UNPJ 0,00 0,00 0,00 108,00 0,00 0,00 0,00 0,00 0,00 31/01/2024
680 1481300 ARIANE DA SILVA MENDES - 2:1481300 ESTAGIARIO ABRE CAMPO; ABRE CAMPO-PJ-02PJ 0,00 0,00 0,00 180,00 0,00 0,00 0,00 0,00 0,00 31/01/2024
681 520201 ARIANE DE FATIMA CARVALHO ALMEIDA RODRIGUES ANALISTA DO MP VESPASIANO - COMARCA; VESPASIANO-PJ-SECRETARIA 1.978,00 1.719,87 605,00 0,00 0,00 0,00 0,00 0,00 0,00 31/01/2024
682 1547100 ARIANE MAGALHAES DE PAULA GALDINO ESTAGIARIO CORONEL FABRICIANO; CORONEL FABRICIANO-PJ-04PJ 0,00 0,00 0,00 180,00 0,00 0,00 0,00 0,00 0,00 31/01/2024
683 1577300 ARIEL DE MELO LIMA MARCELINO ESTAGIARIO SANTA LUZIA; SANTA LUZIA-PJ-04PJ 0,00 0,00 0,00 180,00 0,00 0,00 0,00 0,00 0,00 31/01/2024
684 537600 ARIELA FREIRE MONTIJO ANALISTA DO MP ARCOS - COMARCA; ARCOS-PJ-01PJ 1.978,00 0,00 605,00 0,00 0,00 0,00 0,00 0,00 0,00 31/01/2024
685 1678900 ARIELEN DUARTE QUEIROZ ESTAGIARIO MONTES CLAROS; MONTES CLAROS-PJ-06PJ 0,00 0,00 0,00 36,00 0,00 0,00 0,00 0,00 0,00 31/01/2024
686 1613900 ARIENE KATHLEN DE OLIVEIRA ESTAGIARIO CONTAGEM; CONTAGEM-PJ-24PJ 0,00 0,00 0,00 108,00 0,00 0,00 0,00 0,00 61,67 31/01/2024
687 182000 ARILSON ALEXANDRE MARTINS MAGALHAES OFICIAL DO MP JOÃO MONLEVADE - COMARCA; JOAO MONLEVADE-PJ-01PJ 1.978,00 4.586,32 605,00 0,00 5.123,17 0,00 0,00 0,00 0,00 31/01/2024
688 730100 ARILSON MARTINS SILVA ESTAGIARIO NOVO CRUZEIRO; NOVO CRUZEIRO-PJ-UNPJ 1.978,00 0,00 605,00 0,00 0,00 0,00 0,00 0,00 0,00 31/01/2024
689 511000 ARISLANE CAROLINA DA SILVA ANALISTA DO MP MONTE CARMELO - COMARCA; MONTE CARMELO-PJ-02PJ 1.978,00 2.293,16 605,00 0,00 5.924,93 0,00 0,00 0,00 543,12 31/01/2024
690 212000 ARLEN DE OLIVEIRA FERNANDES PROMOT.ENTRANC.ESPECIAL BELO HORIZONTE - COMARCA; BH-12PJ JUIZO CRIMINAL-GAB 098PJ 1.978,00 0,00 3.571,05 0,00 19.916,55 0,00 0,00 0,00 608,56 31/01/2024
691 170000 ARLEY BRITES DA SILVA ASSESSOR ADMINISTRATIVO II BELO HORIZONTE - COMARCA; BH-14PJ DEFESA CONSUMIDOR-SECRETARIA 1.978,00 0,00 605,00 0,00 5.855,23 0,00 0,00 0,00 0,00 31/01/2024
692 243700 ARLINDO MARCIO LACERDA OFICIAL DO MP CONTAGEM - COMARCA; CONTAGEM-PJ-SECRETARIA 1.978,00 0,00 605,00 0,00 0,00 0,00 1.771,66 0,00 0,00 31/01/2024
693 111900 ARNALDO ALVES SOARES PROCURADOR DE JUSTICA BELO HORIZONTE - COMARCA; GABINETE DE PROCURADOR DE JUSTIÇA - SALA 903 1.978,00 0,00 3.759,00 0,00 20.825,46 0,00 0,00 0,00 636,33 31/01/2024
694 392100 ARNALDO DE ANDRADE OFICIAL DO MP DIVINÓPOLIS - COMARCA; DIVINOPOLIS-PJ-02PJ 1.978,00 0,00 605,00 0,00 5.938,87 0,00 1.771,66 0,00 0,00 31/01/2024
695 75900 ARNALDO GOMES RIBEIRO PROCURADOR DE JUSTICA BELO HORIZONTE - COMARCA; GABINETE DE PROCURADOR DE JUSTIÇA - SALA 602 1.978,00 0,00 3.759,00 0,00 24.043,95 0,00 0,00 0,00 734,68 31/01/2024
696 642400 ARTANE INARDE DE SIQUEIRA DAMASCENO ANALISTA DO MP BELO HORIZONTE - COMARCA; SECRETARIA DE ASSUNTOS INTERNACIONAIS 1.978,00 1.719,87 605,00 0,00 0,00 0,00 0,00 0,00 0,00 31/01/2024
697 733000 ARTHUR BRANDAO ALBUQUERQUE ASSESSOR ADMINISTRATIVO II BELO HORIZONTE - COMARCA; DIRETORIA DE PAGAMENTO DE PESSOAL-DPAG 0,00 0,00 0,00 18,00 0,00 0,00 0,00 0,00 0,00 31/01/2024
698 1665900 ARTHUR CHAVES DUARTE ESTAGIARIO TEOFILO OTONI; TEOFILO OTONI-PJ-01PJ 0,00 0,00 0,00 180,00 0,00 0,00 0,00 0,00 0,00 31/01/2024
699 1624000 ARTHUR CYRILLO RIBEIRO SILVA ESTAGIARIO BELO HORIZONTE; DIR CRIACAO E MIDIAS 0,00 0,00 0,00 180,00 0,00 0,00 0,00 0,00 0,00 31/01/2024
700 1667000 ARTHUR DE LIMA SOSSAI ESTAGIARIO LAVRAS; LAVRAS-PJ-01PJ 0,00 0,00 0,00 180,00 0,00 0,00 0,00 0,00 0,00 31/01/2024
701 700800 ARTHUR GUILHERME RODRIGUES SILVA ESTAGIARIO BELO HORIZONTE; CENTRAL DE APOIO TECNICO 0,00 0,00 0,00 180,00 0,00 0,00 0,00 0,00 0,00 31/01/2024
702 710000 ARTHUR HANNOUCHE ESTAGIARIO BELO HORIZONTE; BH-23PJ INFRACIONAL 1.978,00 0,00 605,00 0,00 5.991,41 0,00 0,00 0,00 0,00 31/01/2024
703 1433800 ARTHUR OLIVEIRA CARABETTI DINIZ ESTAGIARIO BELO HORIZONTE; BH-09PJ AUDITORIA MILITAR-GAB 073PJ 0,00 0,00 0,00 54,00 0,00 0,00 0,00 0,00 0,00 31/01/2024
704 1433500 ARTHUR SALIM DE PAULA LEITE ESTAGIARIO BELO HORIZONTE; BH-12PJ JUIZO CRIMINAL-GAB 106PJ 0,00 0,00 0,00 180,00 0,00 0,00 0,00 0,00 0,00 31/01/2024
705 1525800 ARTUR FERNANDES DE LIMA JUNIOR ESTAGIARIO SANTA RITA DO SAPUCAI; SANTA RITA DO SAPUCAI-PJ-01PJ 0,00 0,00 0,00 144,00 0,00 0,00 0,00 0,00 0,00 31/01/2024
706 221400 ARTUR FORSTER GIOVANNINI PROMOTOR 2A ENTRANCIA TRÊS PONTAS - COMARCA; TRES PONTAS-PJ-01PJ 1.978,00 0,00 3.392,49 0,00 17.941,60 0,00 0,00 0,00 548,22 31/01/2024
707 1674700 ARTUR ROCHA RIBEIRO ESTAGIARIO BELO HORIZONTE; BH-13PJ JUIZO DE TOXICOS-COORD PJ 0,00 0,00 0,00 180,00 0,00 0,00 0,00 0,00 0,00 31/01/2024
708 313500 ARY PEDROSA BITTENCOURT PROMOT.ENTRANC.ESPECIAL SANTA LUZIA - COMARCA; SANTA LUZIA-PJ-05PJ 1.978,00 1.146,58 2.570,42 0,00 17.855,22 0,00 0,00 0,00 545,58 31/01/2024
709 315700 ATHAIDE FRANCISCO PERES OLIVEIRA PROMOTOR 2A ENTRANCIA UNAÍ - COMARCA; UNAI-PJ-01PJ 1.978,00 2.293,16 3.165,68 0,00 11.308,31 0,00 0,00 0,00 0,00 31/01/2024
710 707600 AUGUSTO CEZAR CAMPOS DA SILVA ESTAGIARIO ARCOS; ARCOS-PJ-02PJ 1.978,00 0,00 605,00 0,00 0,00 0,00 0,00 0,00 0,00 31/01/2024
711 742500 AUGUSTO EMMANUEL DE LIMA INVESTIGADOR DE POLICIA 2 BELO HORIZONTE - COMARCA; GAECO - SETOR POLICIAL CIVIL 1.978,00 0,00 0,00 0,00 0,00 0,00 0,00 0,00 0,00 31/01/2024
712 702900 AUGUSTO PENA FIGUEIREDO CAPITAO BELO HORIZONTE - COMARCA; NUCLEO DE OPERACOES DE SEGURANCA DE PESSOAL 0,00 0,00 0,00 270,00 0,00 0,00 0,00 0,00 0,00 31/01/2024
713 666600 AUGUSTO REIS BALLARDIM PROMOTOR 2A ENTRANCIA FORMIGA - COMARCA; FORMIGA-PJ-05PJ 1.978,00 0,00 1.785,76 0,00 5.654,16 0,00 0,00 0,00 518,30 31/01/2024
714 302100 AUGUSTO ROUSSEAU DE CASTRO ANALISTA DO MP CATAGUASES - COMARCA; CATAGUASES-PJ-02PJ 1.978,00 0,00 605,00 0,00 5.998,28 0,00 0,00 0,00 0,00 31/01/2024
715 1534500 AUGUSTO SANAVIA ROCHA ESTAGIARIO BELO HORIZONTE; GABINETE DE PROCURADOR DE JUSTIÇA - SALA 601 0,00 0,00 0,00 90,00 0,00 0,00 0,00 0,00 0,00 31/01/2024
716 540200 AUREA AVELAR BITTENCOURT OFICIAL DO MP BELO HORIZONTE - COMARCA; GRUPO ESP PROM JUST DEF PROB ADM PAT PUB 1.978,00 0,00 605,00 0,00 6.125,47 0,00 0,00 0,00 0,00 31/01/2024
717 633501 AUREA GONTIJO BIRCHAL ASSESSOR DE GABINETE I BELO HORIZONTE - COMARCA; PROCURADOR-GERAL DE JUSTIÇA 1.978,00 0,00 605,00 0,00 5.801,85 0,00 0,00 0,00 0,00 31/01/2024
718 183200 AURELIANO MAGELA DE REZENDE OFICIAL DO MP BELO HORIZONTE - COMARCA; COORD DE GABINETE DO PGJ 1.978,00 0,00 605,00 0,00 6.014,39 0,00 0,00 0,00 551,32 31/01/2024
719 730800 AURELIO LENTI CAMPOS FILGUEIRAS DE CASTRO ESTAGIARIO LAVRAS; LAVRAS-PJ-03PJ 1.978,00 0,00 605,00 0,00 0,00 0,00 0,00 0,00 0,00 31/01/2024
720 106500 AVAIDE MARCOS MARIANO PROMOT.ENTRANC.ESPECIAL UBERLÂNDIA - COMARCA; UBERLANDIA-PJ-13PJ 1.978,00 0,00 1.623,43 0,00 12.823,44 0,00 0,00 0,00 734,68 31/01/2024
721 629400 AYESKA DA COSTA VAL MOURA DABIEN OFICIAL DO MP BELO HORIZONTE - COMARCA; BH-09PJ AUDITORIA MILITAR-SECRETARIA 1.978,00 0,00 605,00 0,00 0,00 0,00 0,00 0,00 0,00 31/01/2024
722 1694800 AYLANNA SOARES ARAUJO ESTAGIARIO BELO HORIZONTE; BH-25PJ DEFESA DA EDUCACAO-SECRETARIA 0,00 0,00 0,00 144,00 0,00 0,00 0,00 0,00 0,00 31/01/2024
723 151800 AYLOR LUIZ MEIRELLES JUNIOR PROMOTOR 2A ENTRANCIA SÃO DOMINGOS DO PRATA - COMARCA; SAO DOMINGOS DO PRATA-PJ-UNPJ 1.978,00 0,00 3.111,57 0,00 23.878,87 0,00 0,00 0,00 729,63 31/01/2024
724 707400 AYMEE JOHANSSENN TYNEE CORREIA ALVES ASSESSOR PROMOTOR JUSTICA NOVA LIMA - COMARCA; NOVA LIMA-PJ-01PJ 0,00 0,00 0,00 144,00 0,00 0,00 0,00 0,00 0,00 31/01/2024
725 704800 BARBARA AZEVEDO PERPETUO ESTAGIARIO CONTAGEM; CONTAGEM-PJ-20PJ 0,00 0,00 0,00 180,00 0,00 0,00 0,00 0,00 0,00 31/01/2024
726 1617600 BARBARA BELARMINO FELIX DE LIMA ESTAGIARIO UBERABA; UBERABA-PJ-06PJ 0,00 0,00 0,00 180,00 0,00 0,00 0,00 0,00 0,00 31/01/2024
727 701600 BARBARA CHAVES OLIVEIRA ASSESSOR PROCURADOR JUSTICA BELO HORIZONTE - COMARCA; PROC. JUSTICA DIR. DIFUSOS E COLETIVOS-SEC 1.978,00 0,00 605,00 0,00 5.286,53 0,00 0,00 0,00 484,60 31/01/2024
728 1579300 BARBARA COLEHO BRANT GOMES ESTAGIARIO BELO HORIZONTE; BH-12PJ JUIZO CRIMINAL-GAB 103PJ 0,00 0,00 0,00 180,00 0,00 0,00 0,00 0,00 0,00 31/01/2024
729 1481800 BARBARA COTTA E SILVA ESTAGIARIO BELO HORIZONTE; GABINETE DE PROCURADOR DE JUSTIÇA - SALA 914 0,00 0,00 0,00 180,00 0,00 0,00 0,00 0,00 0,00 31/01/2024
730 691900 BARBARA COUTINHO REIS ASSESSOR PROCURADOR JUSTICA BELO HORIZONTE - COMARCA; GABINETE DE PROCURADOR DE JUSTIÇA - SALA 910 1.978,00 0,00 605,00 0,00 0,00 0,00 0,00 0,00 0,00 31/01/2024
731 1538200 BARBARA CRISTINA MELO BATISTA ESTAGIARIO BELO HORIZONTE; BH-10PJ EXECUÇÃO PENAL-GAB 080PJ 0,00 0,00 0,00 180,00 0,00 0,00 0,00 0,00 0,00 31/01/2024
732 692200 BARBARA CRISTINA MENDES BANDEIRA DE MELO DUTRA ASSESSOR PROCURADOR JUSTICA BELO HORIZONTE - COMARCA; GABINETE DE PROCURADOR DE JUSTIÇA - SALA 1009 1.978,00 0,00 605,00 0,00 5.991,41 0,00 0,00 0,00 0,00 31/01/2024
733 743300 BARBARA CRISTINA SOUZA E SOUSA ASSESSOR PROCURADOR JUSTICA BELO HORIZONTE - COMARCA; GABINETE DE PROCURADOR DE JUSTIÇA - SALA 513 1.978,00 0,00 605,00 0,00 0,00 0,00 0,00 0,00 0,00 31/01/2024
734 723400 BARBARA CRISTINA TAVARES CARNEIRO ASSESSOR PROCURADOR JUSTICA BELO HORIZONTE - COMARCA; GABINETE DE PROCURADOR DE JUSTIÇA - SALA 501 1.978,00 0,00 605,00 0,00 5.991,41 0,00 0,00 0,00 0,00 31/01/2024
735 1643600 BARBARA DOS SANTOS CHOUCAIR ESTAGIARIO BELO HORIZONTE; CAO-DH CONT EXT ATIV POLIC E AP COMUNIT 0,00 0,00 0,00 126,00 0,00 0,00 0,00 0,00 0,00 31/01/2024
736 1473700 BARBARA FERREIRA DOS SANTOS ESTAGIARIO PAINS; ALFENAS-PJ-02PJ 0,00 0,00 0,00 180,00 0,00 0,00 0,00 0,00 0,00 31/01/2024
737 314700 BARBARA FRANCINE PRETTE NUNES PROMOTOR 1A ENTRANCIA PERDIZES - COMARCA; PERDIZES-PJ-UNPJ 1.978,00 0,00 3.222,87 0,00 16.114,35 0,00 0,00 0,00 492,38 31/01/2024
738 1539800 BARBARA GEOVANA SILVA SANTOS ESTAGIARIO BELO HORIZONTE; CAO-FUNDACOES 0,00 0,00 0,00 90,00 0,00 0,00 0,00 0,00 0,00 31/01/2024
739 1410100 BARBARA HELENA FROIS GUIMARAES GIL ESTAGIARIO BELO HORIZONTE; GABINETE DE PROCURADOR DE JUSTIÇA - SALA 814
740 652800 BARBARA JULIANNE MOREIRA CASTRO ASSESSOR PROCURADOR JUSTICA BELO HORIZONTE - COMARCA; ASSESS TECNICO-JUR JUNTO AS PROC. DE JUST 1.978,00 0,00 605,00 0,00 5.991,41 0,00 0,00 0,00 0,00 31/01/2024
741 1450300 BARBARA LARISSA DAS GRACAS SOUZA ESTAGIARIO BELO HORIZONTE; BH-24PJ JUIZO REG BARREIRO-GAB 003PJ 0,00 0,00 0,00 144,00 0,00 0,00 0,00 0,00 0,00 31/01/2024
742 1457700 BARBARA LEDRES SILVA ESTAGIARIO MEDINA; MEDINA-PJ-UNPJ 0,00 0,00 0,00 180,00 0,00 0,00 0,00 0,00 0,00 31/01/2024
743 1674200 BARBARA LORRANE NUNES CAETANO ESTAGIARIO BELO HORIZONTE; ASSESS TECN DA JUNTA RECURSAL DO PROCON EST 0,00 0,00 0,00 216,00 0,00 0,00 0,00 0,00 0,00 31/01/2024
744 707700 BARBARA LOUISE PUFF DE OLIVEIRA ASSESSOR PROMOTOR JUSTICA RIBEIRÃO DAS NEVES - COMARCA; RIBEIRAO DAS NEVES-PJ-02PJ 1.978,00 0,00 605,00 0,00 0,00 0,00 0,00 0,00 0,00 31/01/2024
745 1521500 BARBARA LOURENCO LIMA ESTAGIARIO JANAUBA; JANAUBA-PJ-02PJ
746 1562500 BARBARA MARINA ALVIM DE CASSIO ESTAGIARIO SAO JOAO DEL REI; SAO JOAO DEL REI-PJ-06PJ 0,00 0,00 0,00 180,00 0,00 0,00 0,00 0,00 0,00 31/01/2024
747 666500 BARBARA MARTINS DE SOUZA PROMOTOR 2A ENTRANCIA PONTE NOVA - COMARCA; PONTE NOVA-PJ-02PJ 1.978,00 1.146,58 2.381,02 0,00 0,00 0,00 0,00 0,00 0,00 31/01/2024
748 740600 BARBARA PORTES RODRIGUES DE CARVALHO PROMOTOR SUBSTITUTO FRANCISCO SÁ - COMARCA; FRANCISCO SA-PJ-UNPJ 1.978,00 0,00 3.222,87 0,00 0,00 0,00 0,00 0,00 0,00 31/01/2024
749 1536000 BARBARA PRADO KRETLI OLIVEIRA ESTAGIARIO GOVERNADOR VALADARES; GOVERNADOR VALADARES-PJ-17PJ 0,00 0,00 0,00 180,00 0,00 0,00 0,00 0,00 0,00 31/01/2024
750 663600 BARBARA REGINA PEREIRA DE PINHO MAGALHAES ASSESSOR PROMOTOR JUSTICA BELO HORIZONTE - COMARCA; CAO-DH CONT EXT ATIV POLIC E AP COMUNIT 1.978,00 0,00 605,00 0,00 0,00 0,00 0,00 0,00 0,00 31/01/2024
751 685500 BARBARA RODRIGUES DE PAULA PROMOTOR 2A ENTRANCIA MANTENA - COMARCA; MANTENA-PJ-01PJ 1.978,00 0,00 892,88 0,00 13.569,98 0,00 0,00 0,00 518,30 31/01/2024
752 717600 BARBARA TEODORO TOLENTINO ESTAGIARIO TRES CORACOES; TRES CORACOES-PJ-02PJ
753 546500 BARBARA ZACARONI GOULART OFICIAL DO MP BETIM - COMARCA; BETIM-PJ-08PJ 1.978,00 0,00 605,00 0,00 6.125,47 0,00 0,00 0,00 0,00 31/01/2024
754 1479200 BARBARACAMILA DE SOUZA LARA ESTAGIARIO JOAO PINHEIRO; JOAO PINHEIRO-PJ-02PJ
755 1542800 BARBARAH EMANUELLY SOUZA SANTOS ESTAGIARIO BARBACENA; BARBACENA-PJ-08PJ 0,00 0,00 0,00 90,00 0,00 0,00 0,00 0,00 0,00 31/01/2024
756 316500 BEATRIZ ABILVIA DA SILVA ANALISTA DO MP GOVERNADOR VALADARES - COMARCA; GOVERNADOR VALADARES-PJ-07PJ 1.978,00 0,00 605,00 0,00 5.530,05 0,00 0,00 0,00 0,00 31/01/2024
757 1498900 BEATRIZ APARECIDA DIAS BATISTA ESTAGIARIO MANHUMIRIM; MANHUMIRIM-PJ-02PJ 0,00 0,00 0,00 180,00 0,00 0,00 0,00 0,00 0,00 31/01/2024
758 311800 BEATRIZ APARECIDA SOARES GANEM OFICIAL DO MP ITAMBACURI - COMARCA; ITAMBACURI-PJ-02PJ 1.978,00 0,00 605,00 0,00 5.864,32 0,00 0,00 0,00 0,00 31/01/2024
759 266800 BEATRIZ AUGUSTA VILACA GOMES DE HUBER OFICIAL DO MP BELO HORIZONTE - COMARCA; BH-05PJ-JUÍZO SUCESSÕES-SEC 1.978,00 0,00 605,00 0,00 0,00 0,00 0,00 0,00 0,00 31/01/2024
760 235200 BEATRIZ BOTELHO BATISTA OFICIAL DO MP MATEUS LEME - COMARCA; MATEUS LEME-PJ-02PJ 1.978,00 0,00 605,00 0,00 0,00 0,00 0,00 0,00 0,00 31/01/2024
761 1632000 BEATRIZ BOUISSOU MORAIS SOARES ESTAGIARIO BELO HORIZONTE; BH-02PJ FAMILIA-GAB 027PJ
762 1480500 BEATRIZ CAMPOS VIEIRA FEIO ESTAGIARIO BELO HORIZONTE; GABINETE DE PROCURADOR DE JUSTICA - SALA 313
763 1669800 BEATRIZ GONCALVES RAMOS ESTAGIARIO CONTAGEM; CONTAGEM-PJ-20PJ 0,00 0,00 0,00 162,00 0,00 0,00 0,00 0,00 0,00 31/01/2024
764 706600 BEATRIZ JOANA FERREIRA LOURENCO ESTAGIARIO BELO HORIZONTE; BH-17PJ PATRIMONIO PUBLICO 1.978,00 1.146,58 605,00 0,00 0,00 0,00 0,00 0,00 0,00 31/01/2024
765 1429500 BEATRIZ MACIEL ALMEIDA RIBEIRO ESTAGIARIO BELO HORIZONTE; GAECO 0,00 0,00 0,00 180,00 0,00 0,00 0,00 0,00 0,00 31/01/2024
766 719500 BEATRIZ MOREIRA COSTA ESTAGIARIO ALEM PARAIBA; ALEM PARAIBA-PJ-02PJ 1.978,00 0,00 3.130,91 0,00 16.114,35 0,00 0,00 0,00 492,38 31/01/2024
767 182300 BEATRIZ PAULA SOUSA RAMOS OFICIAL DO MP MARIANA - COMARCA; MARIANA-PJ-01PJ 1.978,00 0,00 605,00 0,00 0,00 0,00 0,00 0,00 0,00 31/01/2024
768 1590400 BEATRIZ RIBEIRO SOARES MENDES ESTAGIARIO MONTES CLAROS; MONTES CLAROS-PJ-15PJ 0,00 0,00 0,00 90,00 0,00 0,00 0,00 0,00 0,00 31/01/2024
769 507000 BELCHIOR FRANKLIN AMARAL LEITE ANALISTA DO MP BELO HORIZONTE - COMARCA; CAO ORGAOS MPMG DESIG FUNC ELEITORAIS-SEC 1.978,00 0,00 605,00 0,00 6.031,87 0,00 0,00 0,00 0,00 31/01/2024
770 345100 BENITO ELIAS RODRIGUES ANALISTA DO MP BARBACENA - COMARCA; BARBACENA - SECRETARIA DAS PJS CRIMINAIS 1.978,00 1.146,58 605,00 0,00 0,00 0,00 0,00 0,00 0,00 31/01/2024
771 207300 BENITO VIEIRA DOS SANTOS ANALISTA DO MP BELO HORIZONTE - COMARCA; PROC JUST ESP ACOES COMP ORIG CRIMINAL-ASSESS 1.978,00 0,00 605,00 0,00 4.789,83 0,00 0,00 0,00 0,00 31/01/2024
772 84700 BERGSON CARDOSO GUIMARAES PROMOT.ENTRANC.ESPECIAL BELO HORIZONTE - COMARCA; BH-02PJ FAMILIA-GAB 014PJ 1.978,00 0,00 3.571,05 0,00 24.043,95 0,00 0,00 0,00 734,68 31/01/2024
773 480200 BERNADETE NUNES DOS SANTOS ANALISTA DO MP GUANHÃES - COMARCA; GUANHAES-PJ-02PJ 1.978,00 0,00 605,00 0,00 0,00 0,00 0,00 0,00 0,00 31/01/2024
774 1503900 BERNARDO CARVALHO BAUMGRATZ DE MIRANDA ESTAGIARIO BELO HORIZONTE; BH-01PJ FAZENDA PUBLICA-GAB 008PJ 0,00 0,00 0,00 72,00 0,00 0,00 0,00 0,00 0,00 31/01/2024
775 1668000 BERNARDO CUCONATO REIS ESTAGIARIO JUIZ DE FORA; JUIZ DE FORA-PJ-19PJ
776 456700 BERNARDO DE MOURA LIMA PAIVA JEHA PROMOTOR 2A ENTRANCIA ITAÚNA - COMARCA; ITAUNA-PJ-01PJ 1.978,00 0,00 3.392,49 0,00 16.962,47 0,00 0,00 0,00 518,30 31/01/2024
777 1670300 BERNARDO HENRIQUE PEREIRA MARCIAL ESTAGIARIO MANHUACU; MANHUACU-PJ-05PJ 0,00 0,00 0,00 180,00 0,00 0,00 0,00 0,00 0,00 31/01/2024
778 738300 BERNARDO SANGUINETTI DA CUNHA ROSA PROMOTOR SUBSTITUTO JAIBA - COMARCA; JAIBA-PJ-UNPJ 1.978,00 0,00 1.623,42 0,00 0,00 0,00 0,00 0,00 0,00 31/01/2024
779 1508100 BETANIA BEZERRA FIGUEIRA ESTAGIARIO UBERLANDIA; UBERLANDIA-PJ-24PJ 0,00 0,00 0,00 126,00 0,00 0,00 0,00 0,00 0,00 31/01/2024
780 162900 BETANIA CABRAL DE PINA LARCHER PROMOT.ENTRANC.ESPECIAL CONTAGEM - COMARCA; CONTAGEM-PJ-18PJ 1.978,00 0,00 2.762,88 0,00 19.813,48 0,00 0,00 0,00 605,41 31/01/2024
781 378400 BETANIA FARNESI DE SOUZA E SILVA OFICIAL DO MP CURVELO - COMARCA; CURVELO-PJ-01PJ 1.978,00 0,00 605,00 0,00 6.221,18 0,00 0,00 0,00 0,00 31/01/2024
782 387400 BETANIA MENDONCA DE ASSIS CARVALHO ANALISTA DO MP JUIZ DE FORA - COMARCA; JUIZ DE FORA-PJ-03PJ 1.978,00 1.146,58 605,00 0,00 0,00 0,00 0,00 0,00 0,00 31/01/2024
783 1573200 BETHANIA SILVA CLEMENTE ESTAGIARIO LEOPOLDINA; LEOPOLDINA-PJ-04PJ 0,00 0,00 0,00 180,00 0,00 0,00 0,00 0,00 0,00 31/01/2024
784 1611300 BIANCA ARRUDA MOREIRA ESTAGIARIO MUTUM; MUTUM-PJ-UNPJ 0,00 0,00 0,00 0,00 308,33 0,00 0,00 0,00 0,00 31/01/2024
785 705800 BIANCA BERNARDES DA SILVA ESTAGIARIO LAVRAS; LAVRAS-PJ-06PJ 1.978,00 0,00 605,00 0,00 0,00 0,00 0,00 0,00 0,00 31/01/2024
786 714400 BIANCA DE CASTRO RAMOS ASSESSOR PROMOTOR JUSTICA BETIM - COMARCA; BETIM-PJ-13PJ 0,00 0,00 0,00 144,00 0,00 0,00 0,00 0,00 0,00 31/01/2024
787 1674800 BIANCA DE SOUZA VILELA ESTAGIARIO BELO HORIZONTE; BH-13PJ JUIZO DE TOXICOS-COORD PJ 0,00 0,00 0,00 180,00 0,00 0,00 0,00 0,00 0,00 31/01/2024
788 1579000 BIANCA ISABELA GOULART CORNELIO ESTAGIARIO BELO HORIZONTE; OUVIDORIA DO MPMG 0,00 0,00 0,00 90,00 0,00 0,00 0,00 0,00 0,00 31/01/2024
789 1446400 BIANCA MACHADO DOS SANTOS ESTAGIARIO ARAGUARI; ARAGUARI-PJ-01PJ 0,00 0,00 0,00 180,00 0,00 0,00 0,00 0,00 0,00 31/01/2024
790 450300 BIANCA OLIVEIRA DE ALBUQUERQUE ANALISTA DO MP BELO HORIZONTE - COMARCA; BH-10PJ EXECUÇÃO PENAL-SECRETARIA 1.978,00 1.146,58 605,00 0,00 0,00 0,00 0,00 0,00 0,00 31/01/2024
791 535400 BIANCA SALOTO ROSSI ANALISTA DO MP SANTOS DUMONT - COMARCA; SANTOS DUMONT-PJ-01PJ 1.978,00 1.146,58 605,00 0,00 0,00 0,00 0,00 0,00 0,00 31/01/2024
792 1473300 BIANCA SILVA BRANDAO ESTAGIARIO PASSOS; PASSOS-PJ-05PJ 0,00 0,00 0,00 108,00 0,00 0,00 0,00 0,00 0,00 31/01/2024
793 1679900 BLANDINO SOUTO JUNIOR ESTAGIARIO UBERABA; COORD REG SAUDE MACROR SANIT TRIANGULO SUL 0,00 0,00 0,00 180,00 0,00 0,00 0,00 0,00 0,00 31/01/2024
794 120800 BRAS MARQUES DE SOUZA ANALISTA DO MP BELO HORIZONTE - COMARCA; SUPERINTENDENCIA DE GESTAO ADMINISTRATIVA 1.978,00 0,00 605,00 0,00 0,00 0,00 0,00 0,00 0,00 31/01/2024
795 1568500 BRENDA CUSTODIO DE ABREU ESTAGIARIO CONCEICAO DAS ALAGOAS; CONCEICAO DAS ALAGOAS-PJ-01PJ 0,00 0,00 0,00 180,00 0,00 0,00 0,00 0,00 0,00 31/01/2024
796 1686900 BRENDA FERREIRA PACHECO ESTAGIARIO JANUARIA; JANUARIA-PJ-02PJ 0,00 0,00 0,00 180,00 0,00 0,00 0,00 0,00 0,00 31/01/2024
797 1501700 BRENDA GONCALVES DE CARVALHO ESTAGIARIO BELO HORIZONTE; GABINETE DE PROCURADOR DE JUSTIÇA - SALA 902
798 1484800 BRENDA IZABEL GONCALVES FRANCA ESTAGIARIO BELO HORIZONTE; BH-12PJ JUIZO CRIMINAL-GAB 094PJ 0,00 0,00 0,00 180,00 0,00 0,00 0,00 0,00 0,00 31/01/2024
799 756500 BRENDA LORRANA FRANCO ASSESSOR PROMOTOR JUSTICA UBERLÂNDIA - COMARCA; UBERLANDIA-PJ-20PJ 1.978,00 0,00 605,00 0,00 0,00 0,00 0,00 0,00 0,00 31/01/2024
800 714300 BRENDA NOMINATO CORREIA SIMOES ESTAGIARIO EXTREMA; EXTREMA-PJ-01PJ 1.978,00 0,00 605,00 0,00 0,00 0,00 0,00 0,00 0,00 31/01/2024
801 1645100 BRENDA PETEK DE OLIVEIRA ESTAGIARIO FRUTAL; FRUTAL-PJ-05PJ 0,00 0,00 0,00 162,00 0,00 0,00 0,00 0,00 0,00 31/01/2024
802 724400 BRENDA PIMENTEL DE SOUZA VIANA ASSESSOR PROMOTOR JUSTICA MANHUMIRIM - COMARCA; MANHUMIRIM-PJ-01PJ 0,00 0,00 0,00 162,00 0,00 0,00 0,00 0,00 0,00 31/01/2024
803 1476200 BRENDA RODRIGUES DIAS ESTAGIARIO BETIM; BETIM-PJ-02PJ 0,00 0,00 0,00 144,00 0,00 0,00 0,00 0,00 0,00 31/01/2024
804 710500 BRENNO VINICIUS MAGESTE ROSA ASSESSOR PROMOTOR JUSTICA MANHUAÇU - COMARCA; MANHUACU-PJ-02PJ 0,00 0,00 0,00 180,00 0,00 0,00 0,00 0,00 0,00 31/01/2024
805 741000 BRENO ALEXEI RODRIGUES DE OLIVEIRA PROMOTOR SUBSTITUTO TAIOBEIRAS - COMARCA; TAIOBEIRAS-PJ-UNPJ 1.978,00 0,00 1.581,40 0,00 0,00 0,00 0,00 0,00 0,00 31/01/2024
806 372400 BRENO COSTA DA SILVA COELHO PROMOTOR 2A ENTRANCIA VISCONDE DO RIO BRANCO - COMARCA; GAECO REGIONAL ZONA MATA-VISCONDE RIO BRANCO 1.978,00 1.146,58 2.705,70 0,00 16.962,47 0,00 0,00 0,00 518,30 31/01/2024
807 460900 BRENO CRISTIANO DE SOUZA REZENDE ANALISTA DO MP ITAÚNA - COMARCA; ITAUNA-PJ-02PJ 1.978,00 0,00 605,00 0,00 5.924,93 0,00 0,00 0,00 543,12 31/01/2024
808 1637200 BRENO DEL FRARO XIMENES ESTAGIARIO BELO HORIZONTE; GABINETE DE PROCURADOR DE JUSTICA - SALA 309 0,00 0,00 0,00 108,00 0,00 0,00 0,00 0,00 0,00 31/01/2024
809 96700 BRENO LINHARES LINTZ PROMOT.ENTRANC.ESPECIAL UBERLÂNDIA - COMARCA; UBERLANDIA-PJ-10PJ 1.978,00 0,00 0,00 0,00 24.043,95 0,00 0,00 0,00 734,68 31/01/2024
810 733800 BRENO MATEUS RAMOS BRAGA ESTAGIARIO BOCAIUVA; BOCAIUVA-PJ-02PJ 0,00 0,00 0,00 18,00 0,00 0,00 0,00 0,00 0,00 31/01/2024
811 439500 BRENO MAX DE JESUS SILVEIRA PROMOTOR 2A ENTRANCIA CARANGOLA - COMARCA; CARANGOLA-PJ-02PJ 1.978,00 0,00 1.136,40 0,00 16.962,48 0,00 0,00 0,00 518,30 31/01/2024
812 439300 BRENO NASCIMENTO PACHECO PROMOTOR 2A ENTRANCIA PATROCÍNIO - COMARCA; PATROCINIO-PJ-01PJ 1.978,00 0,00 3.392,49 0,00 0,00 0,00 0,00 0,00 0,00 31/01/2024
813 1594500 BRENO TRINDADE CASTRO ESTAGIARIO OLIVEIRA; OLIVEIRA-PJ-01PJ 0,00 0,00 0,00 180,00 0,00 0,00 0,00 0,00 0,00 31/01/2024
814 239000 BRENO VENANCIO ROMANINI OFICIAL DO MP BELO HORIZONTE - COMARCA; BH-20PJ ORD ECON TRIBUTARIA-SECRETARIA 1.978,00 0,00 605,00 0,00 5.529,94 0,00 0,00 0,00 506,91 31/01/2024
815 1469400 BRUNA ALMEIDA LOPES ESTAGIARIO JUIZ DE FORA; JUIZ DE FORA-PJ-04PJ 0,00 0,00 0,00 126,00 0,00 0,00 0,00 0,00 0,00 31/01/2024
816 1491400 BRUNA ALVES FERNANDES ESTAGIARIO CAPELINHA; CAPELINHA-PJ-01PJ 0,00 0,00 0,00 162,00 0,00 0,00 0,00 0,00 0,00 31/01/2024
817 1448700 BRUNA BARBOSA SOARES DE SOUZA ESTAGIARIO SAO LOURENCO; SAO LOURENCO-PJ-03PJ 0,00 0,00 0,00 90,00 0,00 0,00 0,00 0,00 0,00 31/01/2024
818 659300 BRUNA BODONI FACCIOLI PROMOT.ENTRANC.ESPECIAL TIMÓTEO - COMARCA; TIMOTEO-PJ-04PJ 1.978,00 0,00 3.571,05 0,00 15.474,53 0,00 0,00 0,00 545,58 31/01/2024
819 1621400 BRUNA BOECHAT DE SOUZA DOLABELLA ESTAGIARIO BELO HORIZONTE; BH-23PJ CIVEL-SETOR JURIDICO 0,00 0,00 0,00 180,00 0,00 0,00 0,00 0,00 0,00 31/01/2024
820 1625600 BRUNA CAMPIDELLI FERREIRA ESTAGIARIO JOAO MONLEVADE; JOAO MONLEVADE-PJ-02PJ 0,00 0,00 0,00 108,00 0,00 0,00 0,00 0,00 0,00 31/01/2024
821 1622700 BRUNA CARVALHO DE MAGALHAES ESTAGIARIO BELO HORIZONTE; GABINETE DE PROCURADOR DE JUSTIÇA - SALA 712
822 1641400 BRUNA COSTA MACHADO ESTAGIARIO UBERABA; UBERABA-PJ-03PJ 0,00 0,00 0,00 180,00 0,00 0,00 0,00 0,00 0,00 31/01/2024
823 1504100 BRUNA CRISTINA OLIVEIRA DOS SANTOS ESTAGIARIO VESPASIANO; VESPASIANO-PJ-06PJ 0,00 0,00 0,00 90,00 0,00 0,00 0,00 0,00 0,00 31/01/2024
824 1606600 BRUNA DA CUNHA SILVA ESTAGIARIO BARBACENA; BARBACENA-PJ-04PJ 0,00 0,00 0,00 180,00 0,00 0,00 0,00 0,00 0,00 31/01/2024
825 1675600 BRUNA DE NAZARE PECONICK MANSUR ESTAGIARIO BELO HORIZONTE; GABINETE DE PROCURADOR DE JUSTIÇA - SALA 514
826 1557400 BRUNA DO PRADO SANTOS ESTAGIARIO POUSO ALEGRE; POUSO ALEGRE-PJ-06PJ 0,00 0,00 0,00 180,00 0,00 0,00 0,00 0,00 0,00 31/01/2024
827 1672100 BRUNA EDUARDA DA SILVA LOPES ESTAGIARIO SABARA; SABARA-PJ-01PJ 0,00 0,00 0,00 90,00 0,00 0,00 0,00 0,00 0,00 31/01/2024
828 1616700 BRUNA ELISA DE OLIVEIRA SILVA ESTAGIARIO CARMO DO PARANAIBA; CARMO DO PARANAIBA-PJ-01PJ 0,00 0,00 0,00 180,00 0,00 0,00 0,00 0,00 0,00 31/01/2024
829 1430400 BRUNA FERNANDES ABINEDER FERREIRA ESTAGIARIO BELO HORIZONTE; BH-09PJ AUDITORIA MILITAR-GAB 073PJ
830 1487700 BRUNA GOULART TAVARES ESTAGIARIO PARAISOPOLIS; PARAISOPOLIS-PJ-UNPJ 0,00 0,00 0,00 180,00 0,00 0,00 0,00 0,00 0,00 31/01/2024
831 722100 BRUNA HENRIQUE DE SOUZA ASSESSOR PROMOTOR JUSTICA PIRAPETINGA - COMARCA; PIRAPETINGA-PJ-UNPJ 1.978,00 0,00 605,00 0,00 5.991,41 0,00 0,00 0,00 549,21 31/01/2024
832 642300 BRUNA IZABELITA DE FATIMA OLIVEIRA COSTA OFICIAL DO MP BELO HORIZONTE - COMARCA; BH-02PJ FAMILIA-SECRETARIA 1.978,00 0,00 605,00 0,00 5.945,31 0,00 0,00 0,00 544,99 31/01/2024
833 513600 BRUNA KARLA MARTINS CARVALHO ANALISTA DO MP GOVERNADOR VALADARES - COMARCA; GOVERNADOR VALADARES-PJ-14PJ 1.978,00 0,00 605,00 0,00 5.924,93 0,00 0,00 0,00 0,00 31/01/2024
834 415100 BRUNA MARIA SOARES OLIVEIRA COSTA RAMOS ANALISTA DO MP UBÁ - COMARCA; COORD REG BACIA DO RIO PARAIBA DO SUL 1.978,00 0,00 605,00 0,00 5.840,90 0,00 0,00 0,00 535,42 31/01/2024
835 1558200 BRUNA MAYRA TERRA ESTAGIARIO VESPASIANO; VESPASIANO-PJ-05PJ 0,00 0,00 0,00 162,00 0,00 0,00 0,00 0,00 0,00 31/01/2024
836 692900 BRUNA MENDES COELHO ASSESSOR PROCURADOR JUSTICA BELO HORIZONTE - COMARCA; GABINETE DE PROCURADOR DE JUSTIÇA - SALA 801 1.978,00 0,00 605,00 0,00 0,00 0,00 0,00 0,00 0,00 31/01/2024
837 1575000 BRUNA MENDES DOS SANTOS ESTAGIARIO MONTES CLAROS; COORD REG PJ DEF EDUC DIR CRIANCA ADOL NORTE 0,00 0,00 0,00 180,00 0,00 0,00 0,00 0,00 0,00 31/01/2024
838 470000 BRUNA MORAES ANALISTA DO MP TOMBOS - COMARCA; TOMBOS-PJ-UNPJ 1.978,00 0,00 605,00 0,00 6.194,82 0,00 0,00 0,00 0,00 31/01/2024
839 1681000 BRUNA MORAIS DE SOUZA ESTAGIARIO NOVA ERA; NOVA ERA-PJ-UNPJ 0,00 0,00 0,00 180,00 0,00 0,00 0,00 0,00 0,00 31/01/2024
840 709200 BRUNA NASCIMENTO ROCHA ESTAGIARIO BELO HORIZONTE; PROC. JUSTICA CRIMINAL 0,00 0,00 0,00 180,00 0,00 0,00 0,00 0,00 0,00 31/01/2024
841 614700 BRUNA NATTANY DE LIMA OFICIAL DO MP MANTENA - COMARCA; MANTENA-PJ-01PJ 1.978,00 1.146,58 605,00 0,00 5.945,31 0,00 0,00 0,00 0,00 31/01/2024
842 729800 BRUNA PAULA AMARAL CEOLIN ASSESSOR PROMOTOR JUSTICA COMARCA - JUATUBA; JUATUBA-PJ-UNPJ 1.978,00 0,00 605,00 0,00 0,00 0,00 0,00 0,00 0,00 31/01/2024
843 631800 BRUNA RAPOSO JORGE OFICIAL DO MP JUIZ DE FORA - COMARCA; JUIZ DE FORA-PJ-06PJ 1.978,00 1.146,58 605,00 0,00 5.945,31 0,00 0,00 0,00 0,00 31/01/2024
844 1690400 BRUNA SOUSA DE OLIVEIRA ESTAGIARIO CONCEICAO DO MATO DENTRO; CONCEICAO DO MATO DENTRO-PJ-UNPJ 0,00 0,00 0,00 162,00 0,00 0,00 0,00 0,00 0,00 31/01/2024
845 1524700 BRUNA STEHLING SCHIRMER ESTAGIARIO BELO HORIZONTE; PROC. JUSTICA DIR. DIFUSOS E COLETIVOS
846 724700 BRUNA STEPHANIE TOLEDO FERNANDES ESTAGIARIO UBERLANDIA; UBERLANDIA-PJ-21PJ 0,00 0,00 0,00 180,00 0,00 0,00 0,00 0,00 0,00 31/01/2024
847 699300 BRUNA URSINE TIMO ASSESSOR PROCURADOR JUSTICA BELO HORIZONTE - COMARCA; PROC JUST ESP ACOES COMP ORIG CRIMINAL-GAB 1.978,00 0,00 605,00 0,00 3.524,36 0,00 0,00 0,00 323,07 31/01/2024
848 710300 BRUNA VANDERLEY FARIAS ESTAGIARIO BELO HORIZONTE; CAO-FUNDACOES 1.978,00 1.146,58 605,00 0,00 5.991,41 0,00 0,00 0,00 0,00 31/01/2024
849 225100 BRUNO ALEXANDER VIEIRA SOARES PROMOT.ENTRANC.ESPECIAL BELO HORIZONTE - COMARCA; BH-21PJ TUTELA FUNDACOES-GAB 135PJ 1.978,00 0,00 3.571,05 0,00 18.885,89 0,00 0,00 0,00 577,07 31/01/2024
850 463800 BRUNO ALVES TEIXEIRA ANALISTA DO MP UBERLÂNDIA - COMARCA; UBERLANDIA-PJ-04PJ 1.978,00 0,00 605,00 0,00 5.924,93 0,00 0,00 0,00 0,00 31/01/2024
851 538500 BRUNO AUGUSTO DA SILVA OFICIAL DO MP SANTA LUZIA - COMARCA; SANTA LUZIA-PJ-03PJ 1.978,00 0,00 605,00 0,00 0,00 0,00 0,00 0,00 0,00 31/01/2024
852 318200 BRUNO BARROS DE SOUZA OFICIAL DO MP BELO HORIZONTE - COMARCA; DIRETORIA GESTAO CONTRATOS CONVENIOS 1.978,00 0,00 605,00 0,00 5.776,81 0,00 0,00 0,00 2.439,10 31/01/2024
853 740100 BRUNO BRANDI LICHACOVSKI PROMOTOR SUBSTITUTO TURMALINA - COMARCA; TURMALINA-PJ-UNPJ 1.978,00 0,00 1.839,88 0,00 0,00 0,00 0,00 0,00 0,00 31/01/2024
854 459600 BRUNO CASTELAR LUGAO MENDES OFICIAL DO MP BELO HORIZONTE - COMARCA; PROC JUST ATUACAO TRIBUNAIS SUPERIORES 1.978,00 1.146,58 605,00 0,00 5.696,49 0,00 0,00 0,00 0,00 31/01/2024
855 361300 BRUNO CESAR MEDEIROS GIARDINI PROMOT.ENTRANC.ESPECIAL IPATINGA - COMARCA; IPATINGA-PJ-06PJ 1.978,00 0,00 3.259,63 0,00 17.855,23 0,00 0,00 0,00 545,58 31/01/2024
856 427400 BRUNO CESAR RIBEIRO DE PAIVA ANALISTA DO MP BELO HORIZONTE - COMARCA; DIRETORIA DO COLEGIO E DA CAMARA DE PJ 1.978,00 0,00 605,00 0,00 5.391,60 0,00 0,00 0,00 0,00 31/01/2024
857 1425600 BRUNO CEZAR SOARES ESTAGIARIO PEDRO LEOPOLDO; PEDRO LEOPOLDO-PJ-02PJ 0,00 0,00 0,00 180,00 0,00 0,00 0,00 0,00 0,00 31/01/2024
858 380900 BRUNO CIRILO ANTUNES OFICIAL DO MP VARGINHA - COMARCA; VARGINHA-PJ-05PJ 1.978,00 0,00 605,00 0,00 5.776,81 0,00 0,00 0,00 0,00 31/01/2024
859 666700 BRUNO DE CARVALHO VASCONCELOS PROMOTOR SUBSTITUTO CORINTO - COMARCA; CORINTO-PJ-UNPJ 1.978,00 1.146,58 2.381,02 0,00 16.114,35 0,00 0,00 0,00 492,38 31/01/2024
860 329000 BRUNO DE MELO REIS ANALISTA DO MP PATROCÍNIO - COMARCA; PATROCINIO-PJ-02PJ 1.978,00 2.293,16 605,00 0,00 5.167,75 0,00 0,00 0,00 0,00 31/01/2024
861 1437500 BRUNO EDUARDO DE ANDRADE GONZAGA ESTAGIARIO BELO HORIZONTE; PROC JUST ATUACAO TRIBUNAIS SUPERIORES-GAB001 0,00 0,00 0,00 126,00 0,00 0,00 0,00 0,00 0,00 31/01/2024
862 339700 BRUNO FERNANDO TORRES LANA PROMOT.ENTRANC.ESPECIAL UBÁ - COMARCA; UBA-PJ-05PJ 1.978,00 1.146,58 2.029,28 0,00 17.855,22 0,00 0,00 0,00 545,58 31/01/2024
863 697800 BRUNO GAZZOLA BEZERRA FALCAO ASSESSOR PROCURADOR JUSTICA BELO HORIZONTE - COMARCA; PROCURADOR-GERAL ADJUNTO JURIDICO- GABINETE 1.978,00 0,00 605,00 0,00 5.991,41 0,00 0,00 0,00 0,00 31/01/2024
864 360300 BRUNO GUERRA DE OLIVEIRA PROMOT.ENTRANC.ESPECIAL UBÁ - COMARCA; UBA-PJ-06PJ 1.978,00 0,00 2.415,39 0,00 17.855,22 0,00 0,00 0,00 545,58 31/01/2024
865 1376000 BRUNO HENRIQUE RODRIGUES DOS SANTOS ESTAGIARIO NOVO CRUZEIRO; NOVO CRUZEIRO-PJ-UNPJ 0,00 0,00 0,00 126,00 916,67 0,00 0,00 0,00 0,00 31/01/2024
866 378300 BRUNO HERDY LOPES DE OLIVEIRA ANALISTA DO MP GOVERNADOR VALADARES - COMARCA; GOVERNADOR VALADARES-PJ-03PJ 1.978,00 0,00 605,00 0,00 5.338,75 0,00 0,00 0,00 0,00 31/01/2024
867 529700 BRUNO JOSE BUENO DIAS OFICIAL DO MP SÃO SEBASTIÃO DO PARAÍSO - COMARCA; SAO SEBASTIAO DO PARAISO-PJ-02PJ 1.978,00 0,00 605,00 0,00 6.125,47 0,00 0,00 0,00 561,50 31/01/2024
868 691600 BRUNO JOSE RIBEIRO ASSESSOR PROMOTOR JUSTICA CLÁUDIO - COMARCA; CLAUDIO-PJ-UNPJ 1.978,00 0,00 605,00 0,00 0,00 0,00 0,00 0,00 0,00 31/01/2024
869 350100 BRUNO LAUD SERRANO DOS REIS OFICIAL DO MP UBÁ - COMARCA; UBA-PJ-02PJ 1.978,00 0,00 605,00 0,00 6.221,18 0,00 0,00 0,00 0,00 31/01/2024
870 728900 BRUNO LIMA PITANGA ASSESSOR PROMOTOR JUSTICA BELO HORIZONTE - COMARCA; NUCLEO DA EXECUCAO PENAL 0,00 0,00 0,00 72,00 0,00 0,00 0,00 0,00 0,00 31/01/2024
871 745900 BRUNO LUIZ MARQUES ROCHA OFICIAL DO MP RIBEIRÃO DAS NEVES - COMARCA; RIBEIRAO NEVES-SEC PJ EXECUCAO PENAL 1.978,00 0,00 605,00 0,00 0,00 0,00 0,00 0,00 0,00 31/01/2024
872 530600 BRUNO MARQUES DE ALMEIDA ROSSI PROMOTOR 1A ENTRANCIA PRESIDENTE OLEGÁRIO - COMARCA; PRESIDENTE OLEGARIO-PJ-UNPJ 1.978,00 0,00 3.222,87 0,00 11.817,19 0,00 0,00 0,00 492,38 31/01/2024
873 373800 BRUNO MARTINO DE ALBUQUERQUE ANALISTA DO MP PONTE NOVA - COMARCA; PONTE NOVA-PJ-03PJ 1.978,00 0,00 605,00 0,00 5.338,75 0,00 0,00 0,00 0,00 31/01/2024
874 722500 BRUNO MARZOLA MURTA ESTAGIARIO BOCAIUVA; BOCAIUVA-PJ-02PJ 1.978,00 0,00 605,00 0,00 0,00 0,00 0,00 0,00 0,00 31/01/2024
875 732900 BRUNO NOGUEIRA GUIMARAES ASSESSOR ADMINISTRATIVO I BELO HORIZONTE - COMARCA; COORD DE INCLUSAO E MOBILIZACAO SOCIAIS 1.978,00 0,00 605,00 0,00 0,00 0,00 0,00 0,00 0,00 31/01/2024
876 470400 BRUNO NOVAIS CABRAL ANALISTA DO MP MUTUM - COMARCA; MUTUM-PJ-UNPJ 1.978,00 1.146,58 605,00 0,00 5.924,93 0,00 0,00 0,00 746,54 31/01/2024
877 457300 BRUNO OLIVEIRA MULLER PROMOT.ENTRANC.ESPECIAL ITABIRA - COMARCA; ITABIRA-PJ-04PJ 1.978,00 2.293,16 3.571,05 0,00 17.855,23 0,00 0,00 0,00 545,58 31/01/2024
878 648600 BRUNO RIBEIRO E MELO COORDENADOR I BELO HORIZONTE - COMARCA; DIR RELACOES INSTITUCIONAIS 1.978,00 0,00 605,00 0,00 5.928,90 0,00 0,00 0,00 0,00 31/01/2024
879 369200 BRUNO ROBERTO DIAS DE OLIVEIRA OFICIAL DO MP BELO HORIZONTE - COMARCA; BH-22PJ PES COM DEF E IDOSOS-SECRETARIA 1.978,00 0,00 605,00 0,00 5.776,81 0,00 0,00 0,00 0,00 31/01/2024
880 547700 BRUNO ROBERTO SOUZA GONCALVES ANALISTA DO MP PARACATU - COMARCA; PARACATU-PJ-03PJ 1.978,00 1.146,58 605,00 0,00 5.924,93 0,00 0,00 0,00 0,00 31/01/2024
881 546100 BRUNO SA VIEIRA ANALISTA DO MP BARBACENA - COMARCA; BARBACENA-PJ-SECRETARIA 1.978,00 1.146,58 605,00 0,00 0,00 0,00 0,00 0,00 0,00 31/01/2024
882 438200 BRUNO SALES PEREIRA ANALISTA DO MP BELO HORIZONTE - COMARCA; CENTRAL DE APOIO TECNICO-SETOR CONTABIL 1.978,00 0,00 605,00 0,00 5.899,83 0,00 0,00 0,00 540,82 31/01/2024
883 537400 BRUNO SANT'ANA CESAR ANALISTA DO MP BELO HORIZONTE - COMARCA; BH-12PJ JUIZO CRIMINAL-GAB 105PJ 1.978,00 0,00 605,00 0,00 5.924,93 0,00 0,00 0,00 0,00 31/01/2024
884 343500 BRUNO SCHIAVO CRUZ PROMOT.ENTRANC.ESPECIAL IPATINGA - COMARCA; GAECO REGIONAL DE IPATINGA 1.978,00 2.293,16 3.571,05 0,00 17.855,23 0,00 0,00 0,00 545,58 31/01/2024
885 684000 BRUNO TORRANO AMORIM DE ALMEIDA PROMOTOR 2A ENTRANCIA PARACATU - COMARCA; PARACATU-PJ-04PJ 1.978,00 1.146,58 3.392,49 0,00 16.962,47 0,00 0,00 0,00 518,30 31/01/2024
886 720300 BRUNO YOGUI SHIMABUKURO PROMOTOR SUBSTITUTO ITABIRA - COMARCA; ITABIRA-PJ-03PJ 0,00 0,00 0,00 90,00 0,00 0,00 0,00 0,00 0,00 31/01/2024
887 727700 BYANKA DA SILVA MORAIS ASSESSOR PROCURADOR JUSTICA BELO HORIZONTE - COMARCA; GABINETE DE PROCURADOR DE JUSTIÇA - SALA 805 1.978,00 0,00 605,00 0,00 0,00 0,00 0,00 0,00 0,00 31/01/2024
888 655800 CAEL KALINOWSKI SOUZA MATTA INVESTIGADOR DE POLICIA 2 BELO HORIZONTE - COMARCA; NUCLEO DE INFORMACOES E INTELIGENCIA 1.978,00 0,00 0,00 0,00 0,00 0,00 0,00 0,00 0,00 31/01/2024
889 748100 CAETANO ALBERTO MARTINS BOTELHO ASSESSOR PROMOTOR JUSTICA COROMANDEL - COMARCA; COROMANDEL-PJ-02PJ 1.978,00 0,00 605,00 0,00 0,00 0,00 0,00 0,00 0,00 31/01/2024
890 1556000 CAINAN ANDRADE VALIM GARCIA ESTAGIARIO TRES CORACOES; TRES CORACOES-PJ-03PJ 0,00 0,00 0,00 144,00 0,00 0,00 0,00 0,00 0,00 31/01/2024
891 719000 CAIO AUGUSTO BOGUS PROMOTOR SUBSTITUTO ABRE CAMPO - COMARCA; ABRE CAMPO-PJ-01PJ 1.978,00 0,00 892,88 0,00 16.114,35 0,00 0,00 0,00 492,38 31/01/2024
892 666900 CAIO CESAR ESPIRITO SANTO DO NASCIMENTO PROMOTOR 2A ENTRANCIA SALINAS - COMARCA; SALINAS-PJ-01PJ 1.978,00 0,00 3.392,49 0,00 9.046,65 0,00 0,00 0,00 518,30 31/01/2024
893 685600 CAIO CESAR FERREIRA PROMOTOR SUBSTITUTO IPATINGA - COMARCA; IPATINGA-PJ-08PJ 1.978,00 2.293,16 1.731,14 0,00 16.114,35 0,00 0,00 0,00 492,38 31/01/2024
894 719100 CAIO DEZONTINI BERNARDES PROMOTOR SUBSTITUTO CONCEIÇÃO DO MATO DENTRO - COMARCA; CONCEICAO DO MATO DENTRO-PJ-UNPJ 0,00 0,00 0,00 162,00 0,00 0,00 0,00 0,00 0,00 31/01/2024
895 1411800 CAIO EMANUEL FERNANDES GOUVEIA ESTAGIARIO MONTES CLAROS; MONTES CLAROS-PJ-15PJ 0,00 0,00 0,00 180,00 0,00 0,00 0,00 0,00 0,00 31/01/2024
896 724300 CAIO FELLIPH PEREIRA BREDER DE MELO ESTAGIARIO 0,00 0,00 0,00 180,00 0,00 0,00 0,00 0,00 0,00 31/01/2024
897 405800 CAIO FERNANDO RODRIGUES DE OLIVEIRA ANALISTA DO MP BELO HORIZONTE - COMARCA; ASSESSORIA JURIDICO-ADMINISTRATIVA 1.978,00 0,00 605,00 0,00 5.840,90 0,00 0,00 0,00 0,00 31/01/2024
898 530000 CAIO GUEDES DE OLIVEIRA ANALISTA DO MP DIAMANTINA - COMARCA; DIAMANTINA-PJ-02PJ 1.978,00 0,00 605,00 0,00 5.924,93 0,00 0,00 0,00 0,00 31/01/2024
899 1577900 CAIO LAGE OLIVEIRA ESTAGIARIO BELO HORIZONTE; CAO-CRIANCAS E ADOLESCENTES-SECRETARIA 0,00 0,00 0,00 162,00 0,00 0,00 0,00 0,00 0,00 31/01/2024
900 1551700 CAIO MARINI LIMA COSTA ESTAGIARIO BELO HORIZONTE; CENT ESTAD COOPERACAO TECNICO-JURIDICA
901 491400 CAIO MIRANDA JUNQUEIRA ANALISTA DO MP BELO HORIZONTE - COMARCA; CENT ESTAD COOPERACAO TECNICO-JURIDICA 1.978,00 0,00 605,00 0,00 5.924,93 0,00 0,00 0,00 543,12 31/01/2024
902 668300 CAIO PALLU COSTA PROMOT.ENTRANC.ESPECIAL TEÓFILO OTONI - COMARCA; TEOFILO OTONI-PJ-02PJ 1.978,00 0,00 1.894,00 0,00 13.093,83 0,00 0,00 0,00 545,58 31/01/2024
903 1667800 CAIO VIEIRA ANDRADE ESTAGIARIO POCOS DE CALDAS; POCOS DE CALDAS-PJ-03PJ 0,00 0,00 0,00 162,00 0,00 0,00 0,00 0,00 0,00 31/01/2024
904 171000 CAIUS VINICIUS GONZAGA GOULART PROMOT.ENTRANC.ESPECIAL BELO HORIZONTE - COMARCA; BH-12PJ JUIZO CRIMINAL-GAB 106PJ 1.978,00 0,00 1.213,35 0,00 19.916,55 0,00 0,00 0,00 608,56 31/01/2024
905 727900 CALEBE JUNGER DE JESUS PEREIRA ESTAGIARIO BELO HORIZONTE; BH-23PJ DEF DIR CRIAN ADOL 1.978,00 0,00 0,00 0,00 0,00 0,00 0,00 0,00 0,00 31/01/2024
906 82300 CALIXTO OLIVEIRA SOUZA PROMOT.ENTRANC.ESPECIAL DIVINÓPOLIS - COMARCA; DIVINOPOLIS-PJ-01PJ 1.978,00 0,00 3.571,05 0,00 24.043,95 0,00 0,00 0,00 734,68 31/01/2024
907 415800 CAMILA ALVES DA SILVA ANALISTA DO MP CAETÉ - COMARCA; CAETE-PJ-01PJ 1.978,00 0,00 605,00 0,00 5.840,90 0,00 0,00 0,00 0,00 31/01/2024
908 684900 CAMILA APARECIDA PIRES PROMOTOR SUBSTITUTO CAETÉ - COMARCA; CAETE-PJ-01PJ 1.978,00 0,00 1.498,55 0,00 10.742,90 0,00 0,00 0,00 492,38 31/01/2024
909 1469500 CAMILA AZEVEDO BAHIA ESTAGIARIO JUIZ DE FORA; JUIZ DE FORA-PJ-10PJ 0,00 0,00 0,00 180,00 0,00 0,00 0,00 0,00 0,00 31/01/2024
910 555800 CAMILA CAROLINE ROCHA CHAVES OFICIAL DO MP SALINAS - COMARCA; SALINAS-PJ-01PJ 1.978,00 1.146,58 605,00 0,00 6.125,47 0,00 0,00 0,00 561,50 31/01/2024
911 747700 CAMILA CATIA VILELA VIANA ASSESSOR DE CAO BELO HORIZONTE - COMARCA; CAO-SAUDE-ASSESSORIA 1.978,00 0,00 605,00 0,00 0,00 0,00 0,00 0,00 0,00 31/01/2024
912 445200 CAMILA CONDE ROCHA ANALISTA DO MP CONTAGEM - COMARCA; CONTAGEM-PJ-21PJ 1.978,00 0,00 605,00 0,00 5.744,64 0,00 0,00 0,00 0,00 31/01/2024
913 720200 CAMILA COSTA GARRIDO TERRES PROMOTOR SUBSTITUTO BELO HORIZONTE - COMARCA; BH-12PJ JUIZO CRIMINAL 0,00 0,00 0,00 90,00 0,00 0,00 0,00 0,00 0,00 31/01/2024
914 419900 CAMILA CUNNINGHAM PIMENTA DE PADUA ANALISTA DO MP BELO HORIZONTE - COMARCA; ASSESSORIA PSICOSSOCIAL 1.978,00 0,00 605,00 0,00 0,00 0,00 0,00 0,00 0,00 31/01/2024
915 703700 CAMILA D ANGELO DA SILVA ESTAGIARIO UNAI; UNAI-PJ-02PJ 0,00 0,00 0,00 162,00 0,00 0,00 0,00 0,00 0,00 31/01/2024
916 742700 CAMILA DA SILVA GONCALVES ANALISTA DO MP BELO HORIZONTE - COMARCA; DIV FISCAL ADM CONT TERCEIRIZACAO 1.978,00 0,00 605,00 0,00 0,00 0,00 0,00 0,00 0,00 31/01/2024
917 1676100 CAMILA DE CASTRO BORGES ESTAGIARIO UBERLANDIA; UBERLANDIA-PJ-18PJ 0,00 0,00 0,00 72,00 0,00 0,00 0,00 0,00 0,00 31/01/2024
918 714200 CAMILA DE SOUSA CUNHA ASSESSOR PROMOTOR JUSTICA PRADOS - COMARCA; PRADOS-PJ-UNPJ 0,00 0,00 0,00 180,00 0,00 0,00 0,00 0,00 0,00 31/01/2024
919 507700 CAMILA ELIZABETH RODRIGUES ANALISTA DO MP BELO HORIZONTE - COMARCA; BH-02PJ FAMILIA-SECRETARIA 1.978,00 0,00 605,00 0,00 5.931,65 0,00 0,00 0,00 0,00 31/01/2024
920 1663600 CAMILA FERREIRA DA SILVA PEREIRA ESTAGIARIO SETE LAGOAS; SETE LAGOAS-PJ-02PJ 0,00 0,00 0,00 180,00 0,00 0,00 0,00 0,00 0,00 31/01/2024
921 372700 CAMILA FONSECA LIMONGE ANALISTA DO MP BETIM - COMARCA; BETIM-PJ-01PJ 1.978,00 0,00 605,00 0,00 5.338,75 0,00 0,00 0,00 0,00 31/01/2024
922 1672400 CAMILA FRANCA LACERDA ESTAGIARIO DIAMANTINA; DIAMANTINA-PJ-COORD PJ 0,00 0,00 0,00 180,00 0,00 0,00 0,00 0,00 0,00 31/01/2024
923 621300 CAMILA GOLFETO DE SOUSA VALENTE OFICIAL DO MP CARANGOLA - COMARCA; CARANGOLA-PJ-SECRETARIA 1.978,00 1.719,87 605,00 0,00 5.945,31 0,00 0,00 0,00 0,00 31/01/2024
924 1684200 CAMILA GOMES SILVA COELHO ESTAGIARIO BELO HORIZONTE; CENT ESTAD COOPERACAO TECNICO-JURIDICA
925 409800 CAMILA GONCALVES COSTA RIBEIRO ANALISTA DO MP IPATINGA - COMARCA; GAECO REGIONAL DE IPATINGA 1.978,00 1.146,58 605,00 0,00 5.776,81 0,00 0,00 0,00 0,00 31/01/2024
926 335000 CAMILA GONTIJO DE PAIVA ANALISTA DO MP BELO HORIZONTE - COMARCA; COORD DE CONTROLE CONSTITUCIONALIDADE 1.978,00 0,00 605,00 0,00 5.998,28 0,00 0,00 0,00 0,00 31/01/2024
927 693400 CAMILA HECKSHER MONTEIRO ASSESSOR PROCURADOR JUSTICA BELO HORIZONTE - COMARCA; GABINETE DE PROCURADOR DE JUSTIÇA - SALA 613 1.978,00 0,00 605,00 0,00 0,00 0,00 0,00 0,00 0,00 31/01/2024
928 696000 CAMILA IMACULADA OLIVEIRA ASSESSOR PROCURADOR JUSTICA BELO HORIZONTE - COMARCA; GABINETE DE PROCURADOR DE JUSTICA - SALA 312 1.978,00 0,00 605,00 0,00 5.991,41 0,00 0,00 0,00 0,00 31/01/2024
929 1486600 CAMILA KELLEN SILVA ALMONDES ESTAGIARIO MANTENA; MANTENA-PJ-03PJ 0,00 0,00 0,00 180,00 0,00 0,00 0,00 0,00 0,00 31/01/2024
930 1456800 CAMILA LOBO SILVA ESTAGIARIO CONGONHAS; CONGONHAS-PJ-01PJ 0,00 0,00 0,00 180,00 0,00 0,00 0,00 0,00 0,00 31/01/2024
931 1478300 CAMILA MARIA DE OLIVEIRA ESTAGIARIO CARATINGA; CARATINGA-PJ-04PJ 0,00 0,00 0,00 180,00 0,00 0,00 0,00 0,00 0,00 31/01/2024
932 547800 CAMILA MATTARELLI DE ABREU E SILVA ANALISTA DO MP BELO HORIZONTE - COMARCA; CAO-VIOLENCIA DOMESTICA E FAMILIAR 1.978,00 0,00 605,00 0,00 5.924,93 0,00 0,00 0,00 543,12 31/01/2024
933 735800 CAMILA REGINA DE OLIVEIRA ASSESSOR ADMINISTRATIVO II BELO HORIZONTE - COMARCA; CENTRO AUTOCOMPOSICAO DE CONFLITOS 0,00 0,00 0,00 18,00 0,00 0,00 0,00 0,00 0,00 31/01/2024
934 1386700 CAMILA RODRIGUES COSTA ESTAGIARIO UBERABA; UBERABA-PJ-06PJ 0,00 0,00 0,00 144,00 801,67 0,00 0,00 0,00 0,00 31/01/2024
935 752700 CAMILA RODRIGUES MAURO ASSESSOR PROMOTOR JUSTICA CONTAGEM - COMARCA; CONTAGEM-PJ-22PJ 1.978,00 0,00 605,00 0,00 0,00 0,00 0,00 0,00 0,00 31/01/2024
936 1679300 CAMILA TEIXEIRA COSTA ALPINO ESTAGIARIO UBA; UBA-PJ-06PJ 0,00 0,00 0,00 162,00 0,00 0,00 0,00 0,00 0,00 31/01/2024
937 758300 CAMILA VENANCIO DIAS ASSESSOR PROCURADOR JUSTICA BELO HORIZONTE - COMARCA; SUPER DE GESTAO DE PESSOAS-LOTACAO TEMPORARIA 2.728,00 0,00 1.210,00 0,00 0,00 0,00 0,00 0,00 3.818,05 31/01/2024
938 1635500 CAMILA VIEIRA DE CARVALHO ESTAGIARIO BELO HORIZONTE; DIR CRIACAO E MIDIAS 0,00 0,00 0,00 198,00 0,00 0,00 0,00 0,00 41,67 31/01/2024
939 725700 CAMILA VIEIRA DOS SANTOS ESTAGIARIO JUIZ DE FORA; JUIZ DE FORA-PJ-21PJ 0,00 0,00 0,00 180,00 0,00 0,00 0,00 0,00 0,00 31/01/2024
940 1508000 CAMILA VIEIRA FREITAS ESTAGIARIO VARGINHA; COORD REG PP SUDOESTE MINAS GERAIS VARGINHA 0,00 0,00 0,00 180,00 0,00 0,00 0,00 0,00 0,00 31/01/2024
941 1409900 CAMILLE DE CARVALHO COELHO ESTAGIARIO GUANHAES; GUANHAES-PJ-02PJ 0,00 0,00 0,00 180,00 0,00 0,00 0,00 0,00 0,00 31/01/2024
942 430000 CANDIDA MARINA COSTA ANALISTA DO MP BELO HORIZONTE - COMARCA; DIRET DE INFORMACAO E CONHECIMENTO-DINC/CEAF 1.978,00 0,00 605,00 0,00 0,00 0,00 0,00 0,00 0,00 31/01/2024
943 614300 CARINA CORTIELHA OFICIAL DO MP BELO HORIZONTE - COMARCA; BH-23PJ CIVEL-FISC AC POL PUB I 1.978,00 0,00 605,00 0,00 5.945,31 0,00 0,00 0,00 0,00 31/01/2024
944 380400 CARINA DIAS FACANHA DE SOUZA ANALISTA DO MP SANTA RITA DO SAPUCAÍ - COMARCA; SANTA RITA DO SAPUCAI-PJ-01PJ 1.978,00 1.146,58 605,00 0,00 5.338,75 0,00 0,00 0,00 0,00 31/01/2024
945 255000 CARLA ADRIANA DE MENEZES OFICIAL DO MP BELO HORIZONTE - COMARCA; CENT DE APOIO TEC-SETOR DEF,IDOSO E INFANC 1.978,00 0,00 605,00 0,00 6.221,18 0,00 0,00 0,00 0,00 31/01/2024
946 425100 CARLA ADRIANA DINIZ AMARAL OFICIAL DO MP CONTAGEM - COMARCA; CONTAGEM-PJ-SECRETARIA 1.978,00 0,00 605,00 0,00 5.965,51 0,00 0,00 0,00 1.036,86 31/01/2024
947 508100 CARLA ALESSANDRA FONSECA ANALISTA DO MP BELO HORIZONTE - COMARCA; CAO-ORDEM ECONOMICA E TRIBUTARIA-SECRETARIA 1.978,00 0,00 605,00 0,00 5.924,93 0,00 0,00 0,00 0,00 31/01/2024
948 607100 CARLA ANGELICA DIAS MIRANDA OFICIAL DO MP SANTA LUZIA - COMARCA; SANTA LUZIA-PJ-SECRETARIA 1.978,00 0,00 605,00 0,00 5.404,82 0,00 0,00 0,00 630,56 31/01/2024
949 351500 CARLA APARECIDA MENDES RAMIRIO OFICIAL DO MP PASSOS - COMARCA; PASSOS-PJ-01PJ 1.978,00 0,00 605,00 0,00 0,00 0,00 0,00 0,00 0,00 31/01/2024
950 752600 CARLA CHRISTIAN DE LIMA OFICIAL DO MP MARTINHO CAMPOS - COMARCA; MARTINHO CAMPOS-PJ-UNPJ 1.978,00 0,00 605,00 0,00 0,00 0,00 0,00 0,00 0,00 31/01/2024
951 1636600 CARLA CRISTINA OLIVEIRA DE SOUSA ESTAGIARIO PITANGUI; PITANGUI-PJ-02PJ 0,00 0,00 0,00 270,00 0,00 0,00 0,00 0,00 0,00 31/01/2024
952 713100 CARLA DOS SANTOS SOUZA ASSESSOR PROMOTOR JUSTICA ESPERA FELIZ - COMARCA; ESPERA FELIZ-PJ-UNPJ 0,00 0,00 0,00 162,00 0,00 0,00 0,00 0,00 0,00 31/01/2024
953 1498400 CARLA EDUARDA DA SILVA MONCAO ESTAGIARIO MONTES CLAROS; MONTES CLAROS-PJ-17PJ 0,00 0,00 0,00 180,00 0,00 0,00 0,00 0,00 0,00 31/01/2024
954 741300 CARLA FEITOSA DE PAULA DIAS PROMOTOR SUBSTITUTO ARINOS - COMARCA; ARINOS-PJ-UNPJ 1.978,00 0,00 1.029,93 0,00 0,00 0,00 0,00 0,00 0,00 31/01/2024
955 442800 CARLA GONCALVES COSTA SOALHEIRO ANALISTA DO MP GOVERNADOR VALADARES - COMARCA; GOVERNADOR VALADARES-PJ-11PJ 1.978,00 1.146,58 605,00 0,00 5.870,43 0,00 0,00 0,00 0,00 31/01/2024
956 321500 CARLA GONCALVES MASSOTE OFICIAL DO MP CAMPO BELO - COMARCA; CAMPO BELO-PJ-02PJ 1.978,00 0,00 605,00 0,00 5.776,81 0,00 0,00 0,00 0,00 31/01/2024
957 429200 CARLA HAUTEQUESTT BECHARA ANALISTA DO MP BELO HORIZONTE - COMARCA; DIRETORIA DE INTELIGENCIA 1.978,00 0,00 605,00 0,00 5.391,60 0,00 0,00 0,00 0,00 31/01/2024
958 157400 CARLA MARIA ALESSI LAFETA DE CARVALHO PROCURADOR DE JUSTICA BELO HORIZONTE - COMARCA; GABINETE DE PROCURADOR DE JUSTIÇA - SALA 513 1.978,00 0,00 3.754,57 0,00 11.220,51 0,00 0,00 0,00 0,00 31/01/2024
959 1594000 CARLA MARTINS SOUZA ESTAGIARIO CONTAGEM; CONTAGEM-PJ-12PJ 0,00 0,00 0,00 180,00 0,00 0,00 0,00 0,00 0,00 31/01/2024
960 247500 CARLA MATILDE GUIMARAES DE OLIVEIRA OFICIAL DO MP ITAJUBA - COMARCA; ITAJUBA-PJ-SECRETARIA 1.978,00 0,00 605,00 0,00 0,00 0,00 0,00 0,00 0,00 31/01/2024
961 226100 CARLA MERLI DA CONCEICAO ANALISTA DO MP BELO HORIZONTE - COMARCA; CENTRAL DE APOIO TECNICO-SETOR CONTABIL 1.978,00 0,00 605,00 0,00 0,00 0,00 0,00 0,00 0,00 31/01/2024
962 685700 CARLA PRISCILLA PEREIRA VIANA PROMOTOR SUBSTITUTO GOVERNADOR VALADARES - COMARCA; GOVERNADOR VALADARES-PJ-02PJ 1.978,00 0,00 3.222,87 0,00 16.114,35 0,00 0,00 0,00 492,38 31/01/2024
963 343100 CARLA REGINA GOULART SALARO DUVANEL PROMOT.ENTRANC.ESPECIAL GOVERNADOR VALADARES - COMARCA; GOVERNADOR VALADARES-PJ-06PJ 1.978,00 0,00 1.870,54 0,00 5.951,74 0,00 0,00 0,00 545,58 31/01/2024
964 1402100 CARLA ROBERTA MONTEIRO NASCIMENTO ESTAGIARIO BELO HORIZONTE; BH-13PJ JUIZO DE TOXICOS-COORD PJ 0,00 0,00 0,00 162,00 0,00 0,00 0,00 0,00 0,00 31/01/2024
965 532600 CARLA RODRIGUES FAZUOLI PROMOTOR 2A ENTRANCIA SACRAMENTO - COMARCA; SACRAMENTO-PJ-02PJ 1.978,00 0,00 3.392,49 0,00 0,00 0,00 0,00 0,00 0,00 31/01/2024
966 181401 CARLO MICHEL GAUDENSI COELHO ANALISTA DO MP BELO HORIZONTE - COMARCA; BH-08PJ JUIZADO ESPECIAL-GAB 013PJ 1.978,00 0,00 605,00 0,00 6.091,94 0,00 0,00 0,00 0,00 31/01/2024
967 634000 CARLOS ALBERTO AMORMINO TRIGUEIRO ANALISTA DO MP BELO HORIZONTE - COMARCA; DIRET DE APOIO AS PROCURADORIAS DE JUSTICA 1.978,00 1.146,58 605,00 0,00 0,00 0,00 0,00 0,00 0,00 31/01/2024
968 232300 CARLOS ALBERTO DA SILVEIRA ISOLDI FILHO PROMOT.ENTRANC.ESPECIAL BELO HORIZONTE - COMARCA; BH-09PJ AUDITORIA MILITAR-GAB 072PJ 1.978,00 0,00 3.571,05 0,00 19.916,55 0,00 0,00 0,00 608,56 31/01/2024
969 637900 CARLOS ALBERTO DE MOURA OFICIAL DO MP SETE LAGOAS - COMARCA; SETE LAGOAS-PJ-07PJ 1.978,00 0,00 605,00 0,00 0,00 0,00 0,00 0,00 0,00 31/01/2024
970 638700 CARLOS ALBERTO FERREIRA BRAGA ANALISTA DO MP VESPASIANO - COMARCA; VESPASIANO-PJ-06PJ 1.978,00 0,00 605,00 0,00 6.112,95 0,00 0,00 0,00 0,00 31/01/2024
971 54400 CARLOS ALBERTO RIBEIRO MOREIRA PROMOTOR 2A ENTRANCIA LAVRAS - COMARCA; LAVRAS-PJ-02PJ 1.978,00 0,00 3.246,86 0,00 24.043,95 0,00 0,00 0,00 734,68 31/01/2024
972 375801 CARLOS ALBERTO ROCHA ANALISTA DO MP VARGINHA - COMARCA; GAECO REGIONAL DE VARGINHA 1.978,00 2.293,16 605,00 0,00 5.776,81 0,00 0,00 0,00 0,00 31/01/2024
973 110700 CARLOS ALBERTO VALERA PROMOT.ENTRANC.ESPECIAL UBERABA - COMARCA; UBERABA-PJ-08PJ 1.978,00 0,00 1.709,85 0,00 24.043,95 0,00 0,00 0,00 734,68 31/01/2024
974 94200 CARLOS ANDRE MARIANI BITTENCOURT PROCURADOR DE JUSTICA BELO HORIZONTE - COMARCA; PROCURADORIA-GERAL ADJUNTA INSTITUCIONAL 1.978,00 0,00 3.759,00 0,00 24.043,95 0,00 0,00 0,00 734,68 31/01/2024
975 462800 CARLOS ANDREI SOARES FAGUNDES ANALISTA DO MP MONTES CLAROS - COMARCA; MONTES CLAROS-PJ-09PJ 1.978,00 0,00 605,00 0,00 5.924,93 0,00 0,00 0,00 0,00 31/01/2024
976 1678000 CARLOS ANTONIO NASCIMENTO CARVALHO ESTAGIARIO MANGA; MANGA-PJ-01PJ 0,00 0,00 0,00 36,00 0,00 0,00 0,00 0,00 0,00 31/01/2024
977 370300 CARLOS AUGUSTO BUENO DIAS ASSESSOR ADMINISTRATIVO IV BELO HORIZONTE - COMARCA; DIRETORIA DE FISCALIZACAO DE OBRAS 1.978,00 0,00 605,00 0,00 5.795,29 0,00 0,00 0,00 0,00 31/01/2024
978 66200 CARLOS AUGUSTO CANEDO GONCALVES DA SILVA PROCURADOR DE JUSTICA BELO HORIZONTE - COMARCA; GABINETE DE PROCURADOR DE JUSTIÇA - SALA 911 1.978,00 0,00 3.759,00 0,00 0,00 0,00 0,00 0,00 0,00 31/01/2024
979 83200 CARLOS AUGUSTO ESTEVES DE CARVALHO PROMOT.ENTRANC.ESPECIAL JUIZ DE FORA - COMARCA; JUIZ DE FORA-PJ-16PJ 1.978,00 0,00 2.976,28 0,00 11.220,51 0,00 0,00 0,00 734,68 31/01/2024
980 143500 CARLOS AUGUSTO GOMES BRAGA PROMOT.ENTRANC.ESPECIAL BELO HORIZONTE - COMARCA; BH-03PJ EMPRESARIAL-GAB 036PJ 1.978,00 0,00 3.571,05 0,00 12.495,28 0,00 0,00 0,00 636,33 31/01/2024
981 110800 CARLOS CESAR MARQUES LUZ PROMOTOR 1A ENTRANCIA JACUTINGA - COMARCA; JACUTINGA-PJ-UNPJ 1.978,00 0,00 876,62 0,00 22.895,05 0,00 0,00 0,00 699,57 31/01/2024
982 505100 CARLOS CEZAR CARVALHO ANALISTA DO MP CONTAGEM - COMARCA; CONTAGEM-PJ-02PJ 1.978,00 0,00 605,00 0,00 5.924,93 0,00 0,00 0,00 0,00 31/01/2024
983 344300 CARLOS EDUARDO AVANZI DE ALMEIDA PROMOTOR 2A ENTRANCIA CAMPO BELO - COMARCA; CAMPO BELO-PJ-03PJ 1.978,00 0,00 3.392,49 0,00 16.962,47 0,00 0,00 0,00 518,30 31/01/2024
984 196800 CARLOS EDUARDO DE OLIVEIRA MARINHO OFICIAL DO MP ALPINÓPOLIS - COMARCA; ALPINOPOLIS-PJ-UNPJ 1.978,00 0,00 605,00 0,00 6.014,40 0,00 0,00 0,00 0,00 31/01/2024
985 1485700 CARLOS EDUARDO DOS SANTOS WALTER ESTAGIARIO BETIM; BETIM-PJ-09PJ 0,00 0,00 0,00 180,00 0,00 0,00 0,00 0,00 0,00 31/01/2024
986 157500 CARLOS EDUARDO DUTRA PIRES PROMOT.ENTRANC.ESPECIAL SETE LAGOAS - COMARCA; SETE LAGOAS-PJ-02PJ 1.978,00 0,00 2.705,71 0,00 24.043,95 0,00 0,00 0,00 734,68 31/01/2024
987 483200 CARLOS EDUARDO FERNANDES NEVES RIBEIRO PROMOT.ENTRANC.ESPECIAL BARBACENA - COMARCA; BARBACENA-PJ-08PJ 1.978,00 1.146,58 3.571,05 0,00 17.855,23 0,00 0,00 0,00 545,58 31/01/2024
988 315400 CARLOS EDUARDO FERREIRA PINTO PROMOT.ENTRANC.ESPECIAL BELO HORIZONTE - COMARCA; CAO-MEIO AMBIENTE 1.978,00 1.146,58 2.922,17 0,00 17.855,22 0,00 0,00 0,00 545,58 31/01/2024
989 1549300 CARLOS EDUARDO LACERDA LOPES ESTAGIARIO NOVA SERRANA; NOVA SERRANA-PJ-01PJ 0,00 0,00 0,00 180,00 0,00 0,00 0,00 0,00 0,00 31/01/2024
990 55300 CARLOS EDUARDO MAFRA CAVALCANTI PROCURADOR DE JUSTICA BELO HORIZONTE - COMARCA; GABINETE DE PROCURADOR DE JUSTIÇA - SALA 503 1.978,00 0,00 3.246,86 0,00 8.014,65 0,00 0,00 0,00 0,00 31/01/2024
991 1666700 CARLOS EDUARDO MAGRI DA SILVA ESTAGIARIO BARBACENA; BARBACENA-PJ-07PJ 0,00 0,00 0,00 180,00 0,00 0,00 0,00 0,00 0,00 31/01/2024
992 650800 CARLOS EDUARDO NIZA DA SILVA OFICIAL DO MP IGARAPÉ - COMARCA; IGARAPE-PJ-01PJ 1.978,00 1.146,58 605,00 0,00 6.077,78 0,00 0,00 0,00 557,13 31/01/2024
993 1626000 CARLOS EDUARDO RIBEIRO ARCANJO ESTAGIARIO PARA DE MINAS; PARA DE MINAS-PJ-02PJ 0,00 0,00 0,00 0,00 678,33 0,00 0,00 0,00 0,00 31/01/2024
994 491800 CARLOS EDUARDO ROMAN OFICIAL DO MP BARBACENA - COMARCA; BARBACENA-PJ-09PJ 1.978,00 0,00 605,00 0,00 0,00 0,00 0,00 0,00 0,00 31/01/2024
995 1684500 CARLOS EDUARDO SANTOS DIAS ESTAGIARIO ALMENARA; ALMENARA-PJ-01PJ 0,00 0,00 0,00 162,00 0,00 0,00 0,00 0,00 0,00 31/01/2024
996 157600 CARLOS EUGENIO SOUTO MAIOR FILIZOLA JUNIOR PROMOT.ENTRANC.ESPECIAL BELO HORIZONTE - COMARCA; BH-07PJ 03 TRIBUNAL DO JURI-GAB 061PJ 1.978,00 0,00 6.400,60 0,00 15.890,32 0,00 0,00 0,00 728,31 31/01/2024
997 299300 CARLOS HENRIQUE BICALHO ANALISTA DO MP BELO HORIZONTE - COMARCA; BH-17PJ PATRIMONIO PUBLICO-SECRETARIA 1.978,00 1.146,58 605,00 0,00 5.536,88 0,00 0,00 0,00 507,55 31/01/2024
998 351600 CARLOS HENRIQUE FELICIO DA FONSECA OFICIAL DO MP JUIZ DE FORA - COMARCA; JUIZ DE FORA-PJ-21PJ 1.978,00 0,00 605,00 0,00 6.221,18 0,00 0,00 0,00 0,00 31/01/2024
999 1598200 CARLOS HENRIQUE GOULART DIAS ESTAGIARIO VARGINHA; VARGINHA-PJ-02PJ 0,00 0,00 0,00 180,00 0,00 0,00 0,00 0,00 0,00 31/01/2024
1000 1648800 CARLOS HENRIQUE MARTINS ALCANTARA ESTAGIARIO CONSELHEIRO LAFAIETE; CONSELHEIRO LAFAIETE-PJ-03PJ 0,00 0,00 0,00 90,00 0,00 0,00 0,00 0,00 0,00 31/01/2024
1001 1473800 CARLOS HENRIQUE PEREIRA DA SILVA ESTAGIARIO CARATINGA; CARATINGA-PJ-06PJ 0,00 0,00 0,00 126,00 0,00 0,00 0,00 0,00 0,00 31/01/2024
1002 729100 CARLOS HENRIQUE TEIXEIRA BRAGA ASSESSOR ADMINISTRATIVO II BELO HORIZONTE - COMARCA; DIRETORIA DE SUPORTE E MANUTENCAO 1.978,00 0,00 605,00 0,00 0,00 0,00 0,00 0,00 0,00 31/01/2024
1003 210900 CARLOS HENRIQUE TORRES DE SOUZA PROMOT.ENTRANC.ESPECIAL BELO HORIZONTE - COMARCA; BH-06PJ JUIZO CIVEL-GAB 055PJ 1.978,00 0,00 3.571,05 0,00 19.916,55 0,00 0,00 0,00 608,56 31/01/2024
1004 104600 CARLOS JOSE E SILVA FORTES PROMOT.ENTRANC.ESPECIAL DIVINÓPOLIS - COMARCA; DIVINOPOLIS-PJ-06PJ 1.978,00 0,00 3.273,91 0,00 20.645,73 0,00 0,00 0,00 630,84 31/01/2024
1005 85400 CARLOS JOSE VIEIRA OFICIAL DO MP BELO HORIZONTE - COMARCA; DIRETORIA DO COLEGIO E DA CAMARA DE PJ 1.978,00 0,00 605,00 0,00 5.205,26 0,00 0,00 0,00 0,00 31/01/2024
1006 735700 CARLOS MAGNO DE SOUSA VILACA MAJOR BELO HORIZONTE - COMARCA; GAECO - SETOR POLICIAL MILITAR 0,00 0,00 0,00 18,00 0,00 0,00 0,00 0,00 0,00 31/01/2024
1007 229100 CARLOS MERCES DE OLIVEIRA ANALISTA DO MP BELO HORIZONTE - COMARCA; CENTRAL DE APOIO TECN-SETOR DE MEIO AMBIENTE 1.978,00 0,00 605,00 0,00 0,00 0,00 0,00 0,00 0,00 31/01/2024
1008 538300 CARLOS RANGEL SILVA DE MELO ANALISTA DO MP BELO HORIZONTE - COMARCA; DIVISAO DE CONTROLE IMOBILIARIO 1.978,00 2.293,16 605,00 0,00 0,00 0,00 0,00 0,00 0,00 31/01/2024
1009 265100 CARLOS REIFF MIRANDA ANALISTA DO MP BELO HORIZONTE - COMARCA; BH-19PJ SAUDE-SECRETARIA 150PJ 1.978,00 0,00 605,00 0,00 0,00 0,00 0,00 0,00 0,00 31/01/2024
1010 1685800 CARLOS ROBERTO VITOR JUNIOR ESTAGIARIO BELO HORIZONTE; CAO-CRIANCAS E ADOLESCENTES-SECRETARIA 0,00 0,00 0,00 180,00 0,00 0,00 0,00 0,00 0,00 31/01/2024
1011 305400 CARLOS ROCHA DE SOUZA OFICIAL DO MP MONTALVÂNIA - COMARCA; MONTALVANIA-PJ-SECRETARIA 1.978,00 0,00 605,00 0,00 3.903,48 528,45 0,00 0,00 0,00 31/01/2024
1012 371600 CARLOS SAMUEL BORGES CUNHA PROMOT.ENTRANC.ESPECIAL BARBACENA - COMARCA; BARBACENA-PJ-07PJ 1.978,00 1.146,58 2.570,42 0,00 17.855,23 0,00 0,00 0,00 545,58 31/01/2024
1013 744500 CARLOS THIAGO COSTA FIGUEREDO OFICIAL DO MP PARAOPEBA - COMARCA; PARAOPEBA-PJ-UNPJ 1.978,00 0,00 605,00 0,00 0,00 0,00 0,00 0,00 0,00 31/01/2024
1014 1436300 CARLOS VINICIUS JOTA COSTA ESTAGIARIO BELO HORIZONTE; GABINETE DE PROCURADOR DE JUSTIÇA - SALA 912
1015 293400 CARLOS WILDE RIBEIRO DE MELLO PROMOT.ENTRANC.ESPECIAL JUIZ DE FORA - COMARCA; JUIZ DE FORA-PJ-26PJ 1.978,00 0,00 3.355,08 0,00 10.713,13 0,00 0,00 0,00 545,58 31/01/2024
1016 399900 CARMELITA EVANGELISTA DE SOUZA OFICIAL DO MP JOÃO PINHEIRO - COMARCA; JOAO PINHEIRO-PJ-01PJ 1.978,00 0,00 605,00 0,00 5.920,22 0,00 0,00 0,00 0,00 31/01/2024
1017 202000 CARMEN LUCIA MARIZ DE MACEDO OFICIAL DO MP BELO HORIZONTE - COMARCA; DIRETORIA GESTAO COMPRAS LICITACOES 1.978,00 0,00 605,00 0,00 5.205,27 0,00 0,00 0,00 0,00 31/01/2024
1018 1581200 CAROLAINE CORREA DA SILVA ESTAGIARIO SAO JOAO NEPOMUCENO; SAO JOAO NEPOMUCENO-PJ-02PJ 0,00 0,00 0,00 180,00 0,00 0,00 0,00 0,00 0,00 31/01/2024
1019 733400 CAROLAINE GAIONE COSTA ESTAGIARIO JUATUBA; AIMORES-PJ-UNPJ 1.978,00 0,00 605,00 0,00 0,00 0,00 0,00 0,00 0,00 31/01/2024
1020 1654500 CAROLANE PEIXOTO DE SOUZA ESTAGIARIO JOAO MONLEVADE; JOAO MONLEVADE-PJ-03PJ 0,00 0,00 0,00 180,00 0,00 0,00 0,00 0,00 0,00 31/01/2024
1021 1633100 CAROLINA ALVES CASTELO BRANCO ESTAGIARIO POMPEU; POMPEU-PJ-UNPJ 0,00 0,00 0,00 180,00 0,00 0,00 0,00 0,00 0,00 31/01/2024
1022 1462200 CAROLINA AMANDA DA SILVA ESTAGIARIO BAEPENDI; BAEPENDI-PJ-UNPJ 0,00 0,00 0,00 180,00 0,00 0,00 0,00 0,00 0,00 31/01/2024
1023 359700 CAROLINA ANDRADE BORGES DE MATTOS PROMOTOR SUBSTITUTO BICAS - COMARCA; BICAS-PJ-UNPJ 1.978,00 0,00 2.922,17 0,00 16.114,35 0,00 0,00 0,00 492,38 31/01/2024
1024 720100 CAROLINA AQUINO DE SOUSA NUNES ESTAGIARIO RIBEIRAO DAS NEVES; RIBEIRAO DAS NEVES-PJ-04PJ 0,00 0,00 0,00 180,00 0,00 0,00 0,00 0,00 0,00 31/01/2024
1025 1404300 CAROLINA BARBOSA GUEDES ESTAGIARIO UBERLANDIA; UBERLANDIA-PJ-05PJ 0,00 0,00 0,00 180,00 0,00 0,00 0,00 0,00 0,00 31/01/2024
1026 1403600 CAROLINA BEDESCHI CALAIS ESTAGIARIO BELO HORIZONTE; GABINETE DE PROCURADOR DE JUSTIÇA - SALA 707 0,00 0,00 0,00 18,00 0,00 0,00 0,00 0,00 0,00 31/01/2024
1027 1582400 CAROLINA CAETANO OLIVEIRA ESTAGIARIO TEOFILO OTONI; TEOFILO OTONI-PJ-04PJ 0,00 0,00 0,00 180,00 0,00 0,00 0,00 0,00 0,00 31/01/2024
1028 701900 CAROLINA CARVALHO COSTA ASSESSOR PROCURADOR JUSTICA BELO HORIZONTE - COMARCA; GABINETE DE PROCURADOR DE JUSTIÇA - SALA 811 0,00 0,00 0,00 216,00 0,00 0,00 0,00 0,00 0,00 31/01/2024
1029 611000 CAROLINA CERIGATTO PROMOT.ENTRANC.ESPECIAL GOVERNADOR VALADARES - COMARCA; GOVERNADOR VALADARES-PJ-11PJ 1.978,00 0,00 0,00 0,00 5.951,74 0,00 0,00 0,00 545,58 31/01/2024
1030 228500 CAROLINA CHIARELLA DOS SANTOS RIBEIRO COORDENADOR I BELO HORIZONTE - COMARCA; DIVISAO DE SERVICOS 1.978,00 0,00 605,00 0,00 5.533,64 0,00 0,00 0,00 0,00 31/01/2024
1031 446500 CAROLINA COSTA VAL RODRIGUES ANALISTA DO MP BELO HORIZONTE - COMARCA; DIVISAO DE MATERIAIS 1.978,00 0,00 605,00 0,00 5.702,15 0,00 0,00 0,00 522,70 31/01/2024
1032 751500 CAROLINA DA MATTA AMBROSIO OFICIAL DO MP MANHUMIRIM - COMARCA; MANHUMIRIM-PJ-02PJ 1.978,00 0,00 605,00 0,00 0,00 0,00 0,00 0,00 0,00 31/01/2024
1033 1688000 CAROLINA DE CAMARGOS PEREIRA BARCELLOS ESTAGIARIO BELO HORIZONTE; BH-09PJ AUDITORIA MILITAR-GAB 161PJ 0,00 0,00 0,00 180,00 0,00 0,00 0,00 0,00 246,67 31/01/2024
1034 603501 CAROLINA DOMINGOS BRANDAO RABELLO ANALISTA DO MP BARROSO - COMARCA; BARROSO-PJ-01PJ 1.978,00 2.293,16 605,00 0,00 0,00 0,00 0,00 0,00 0,00 31/01/2024
1035 1613600 CAROLINA DORNELAS DE MELO ESTAGIARIO BELO HORIZONTE; COORD CONTROLE CONST-SECRETARIA 0,00 0,00 0,00 180,00 0,00 0,00 0,00 0,00 0,00 31/01/2024
1036 404300 CAROLINA DOS SANTOS VIEIRA ANALISTA DO MP BELO HORIZONTE - COMARCA; BH-08PJ JUIZADO ESPECIAL-SECRETARIA 1.978,00 0,00 605,00 0,00 0,00 0,00 0,00 0,00 0,00 31/01/2024
1037 1654400 CAROLINA ESPERANCINI COLMANETTI ESTAGIARIO GOVERNADOR VALADARES; GOVERNADOR VALADARES-PJ-05PJ 0,00 0,00 0,00 180,00 0,00 0,00 0,00 0,00 0,00 31/01/2024
1038 634600 CAROLINA FRARE LAMEIRINHA PROMOTOR 2A ENTRANCIA PATOS DE MINAS - COMARCA; COORD REG BACIAS PARACATU,URUCUIA E ABAETE 1.978,00 0,00 2.976,28 0,00 0,00 0,00 0,00 0,00 0,00 31/01/2024
1039 405401 CAROLINA GENTIL MEDEIROS MARQUEZ PROMOTOR 2A ENTRANCIA LAGOA SANTA - COMARCA; LAGOA SANTA - 03ª PJ 1.978,00 1.146,58 3.392,49 0,00 10.177,49 0,00 0,00 0,00 518,30 31/01/2024
1040 551200 CAROLINA LOPES ARANTES MASCARENHAS ANALISTA DO MP BELO HORIZONTE - COMARCA; CAO-VIOLENCIA DOMESTICA E FAMILIAR 1.978,00 1.146,58 605,00 0,00 5.924,93 0,00 0,00 0,00 0,00 31/01/2024
1041 622600 CAROLINA LOREDO LOPES CATIZANI OFICIAL DO MP RIBEIRÃO DAS NEVES - COMARCA; RIBEIRAO DAS NEVES-PJ-12PJ 1.978,00 0,00 605,00 0,00 0,00 0,00 0,00 0,00 0,00 31/01/2024
1042 362900 CAROLINA MARQUES ANDRADE PROMOT.ENTRANC.ESPECIAL UBERABA - COMARCA; UBERABA-PJ-16PJ 1.978,00 0,00 3.571,05 0,00 13.093,83 0,00 0,00 0,00 545,58 31/01/2024
1043 457400 CAROLINA MELO CAMPOS MOREIRA PROMOTOR SUBSTITUTO RIBEIRÃO DAS NEVES - COMARCA; RIBEIRAO DAS NEVES-PJ-10PJ 1.978,00 0,00 3.117,86 0,00 5.371,45 0,00 0,00 0,00 492,38 31/01/2024
1044 382200 CAROLINA MENDES CHAVES LIN ANALISTA DO MP BELO HORIZONTE - COMARCA; BH-12PJ JUIZO CRIMINAL-GAB 088PJ 1.978,00 1.146,58 605,00 0,00 0,00 0,00 0,00 0,00 0,00 31/01/2024
1045 313600 CAROLINA MENDONCA DE SIQUEIRA PROMOT.ENTRANC.ESPECIAL BETIM - COMARCA; BETIM-PJ-08PJ 1.978,00 0,00 1.677,54 0,00 17.855,23 0,00 0,00 0,00 545,58 31/01/2024
1046 461900 CAROLINA MURTA TEIXEIRA DIAS ANALISTA DO MP BELO HORIZONTE - COMARCA; DIR CRIACAO E MIDIAS 1.978,00 0,00 605,00 0,00 0,00 0,00 0,00 0,00 0,00 31/01/2024
1047 509600 CAROLINA PINTO DE OLIVEIRA SOUZA ANALISTA DO MP MURIAÉ - COMARCA; MURIAE-PJ-01PJ 1.978,00 1.146,58 605,00 0,00 5.924,93 0,00 0,00 0,00 0,00 31/01/2024
1048 1684300 CAROLINA PINTO MIRANDA ESTAGIARIO BELO HORIZONTE; CENTRO AUTOCOMPOSICAO DE CONFLITOS 0,00 0,00 0,00 180,00 0,00 0,00 0,00 0,00 0,00 31/01/2024
1049 526400 CAROLINA QUEIROZ DE CARVALHO PROMOT.ENTRANC.ESPECIAL CONSELHEIRO LAFAIETE - COMARCA; CONSELHEIRO LAFAIETE-PJ-02PJ 1.978,00 0,00 1.962,97 0,00 11.903,49 0,00 0,00 0,00 0,00 31/01/2024
1050 1412700 CAROLINA REIS SILVA ESTAGIARIO PATOS DE MINAS; PATOS DE MINAS-PJ-04PJ 0,00 0,00 0,00 180,00 0,00 0,00 0,00 0,00 0,00 31/01/2024
1051 667000 CAROLINA RITA TORRES GRUBER PROMOTOR 2A ENTRANCIA SÃO FRANCISCO - COMARCA; SAO FRANCISCO-PJ-01PJ 1.978,00 0,00 1.144,78 0,00 14.700,81 0,00 0,00 0,00 518,30 31/01/2024
1052 629100 CAROLINA RODRIGUES AMARAL ANALISTA DO MP BELO HORIZONTE - COMARCA; PROC. JUSTICA DIR. DIFUSOS E COLETIVOS-SEC 1.978,00 0,00 605,00 0,00 5.974,31 0,00 0,00 0,00 0,00 31/01/2024
1053 502600 CAROLINA RODRIGUES RUBEN ANALISTA DO MP BELO HORIZONTE - COMARCA; BH-18PJ VIOLENCIA DOMESTICA-GAB 007PJ 1.978,00 2.293,16 605,00 0,00 5.924,93 0,00 0,00 0,00 0,00 31/01/2024
1054 754000 CAROLINA SILVA MASSON CURSI OFICIAL DO MP CANÁPOLIS - COMARCA; CANAPOLIS-PJ-UNPJ 1.978,00 0,00 605,00 0,00 0,00 0,00 0,00 0,00 0,00 31/01/2024
1055 1616800 CAROLINA SOARES DA FONSECA ESTAGIARIO SETE LAGOAS; SETE LAGOAS-PJ-10PJ 0,00 0,00 0,00 180,00 0,00 0,00 0,00 0,00 0,00 31/01/2024
1056 1561300 CAROLINA TORRES HADDAD ESTAGIARIO JUIZ DE FORA; JUIZ DE FORA-PJ-17PJ 0,00 0,00 0,00 180,00 0,00 0,00 0,00 0,00 0,00 31/01/2024
1057 529600 CAROLINA VAZ DE MELO MAMBRINI ANALISTA DO MP BELO HORIZONTE - COMARCA; BH-14PJ DEFESA CONSUMIDOR-GAB 005PJ 1.978,00 0,00 605,00 0,00 0,00 0,00 0,00 0,00 0,00 31/01/2024
1058 619100 CAROLINA ZAKHIA NARDELLI RODRIGUES ANALISTA DO MP NEPOMUCENO - COMARCA; NEPOMUCENO-PJ-UNPJ 1.978,00 1.146,58 605,00 0,00 5.974,31 0,00 0,00 0,00 0,00 31/01/2024
1059 517600 CAROLINE ALVES DE OLIVEIRA MULLER ANALISTA DO MP VISCONDE DO RIO BRANCO - COMARCA; VISCONDE DO RIO BRANCO-PJ-01PJ 1.978,00 0,00 605,00 0,00 5.776,81 0,00 0,00 0,00 529,54 31/01/2024
1060 373200 CAROLINE ANTUNES RIBEIRO OFICIAL DO MP JACUI - COMARCA; JACUI-PJ-UNPJ 1.978,00 0,00 605,00 0,00 5.776,81 0,00 0,00 0,00 0,00 31/01/2024
1061 723500 CAROLINE CORDEIRO FERNANDES MACHADO ASSESSOR PROMOTOR JUSTICA BELO HORIZONTE - COMARCA; COORD DE INCLUSAO E MOBILIZACAO SOCIAIS 0,00 0,00 0,00 180,00 0,00 0,00 0,00 0,00 0,00 31/01/2024
1062 556800 CAROLINE DE SOUZA CARDOSO DOMINGUES OFICIAL DO MP BRASÍLIA DE MINAS - COMARCA; BRASILIA DE MINAS-PJ-02PJ 1.978,00 0,00 605,00 0,00 0,00 0,00 0,00 0,00 0,00 31/01/2024
1063 1585300 CAROLINE DO VALLE SILVA ESTAGIARIO JUIZ DE FORA; JUIZ DE FORA-PJ-02PJ 0,00 0,00 0,00 180,00 0,00 0,00 0,00 0,00 0,00 31/01/2024
1064 1561500 CAROLINE DOS SANTOS LOURENCO ESTAGIARIO SAO LOURENCO; SAO LOURENCO-PJ-04PJ 0,00 0,00 0,00 180,00 0,00 0,00 0,00 0,00 0,00 31/01/2024
1065 1540100 CAROLINE FERNANDA ALVES SOUSA ESTAGIARIO ITAUNA; ITAUNA-PJ-01PJ 0,00 0,00 0,00 198,00 0,00 0,00 0,00 0,00 0,00 31/01/2024
1066 751700 CAROLINE GUIMARAES DAMASCENO ASSESSOR PROMOTOR JUSTICA SANTA LUZIA - COMARCA; SANTA LUZIA-PJ-07PJ 1.978,00 0,00 605,00 0,00 0,00 0,00 0,00 0,00 0,00 31/01/2024
1067 1498300 CAROLINE LIMA LOIOLA ESTAGIARIO GOVERNADOR VALADARES; GOVERNADOR VALADARES-PJ-08PJ 0,00 0,00 0,00 180,00 0,00 0,00 0,00 0,00 0,00 31/01/2024
1068 499400 CAROLINE MARQUES DE LOURDES MARZULLO OFICIAL DO MP JUIZ DE FORA - COMARCA; JUIZ DE FORA-PJ-08PJ 1.978,00 1.719,87 605,00 0,00 6.254,73 0,00 0,00 0,00 0,00 31/01/2024
1069 616800 CAROLINE MONTEIRO DE BARROS ANALISTA DO MP CONTAGEM - COMARCA; CONTAGEM-PJ-11PJ 1.978,00 1.146,58 605,00 0,00 5.974,31 0,00 0,00 0,00 0,00 31/01/2024
1070 1395700 CAROLINE OLIVEIRA MOREIRA DOS SANTOS ESTAGIARIO IBIRITE; IBIRITE-PJ-03PJ 0,00 0,00 0,00 216,00 0,00 0,00 0,00 0,00 0,00 31/01/2024
1071 1401200 CAROLINE ORLETTI GUARISE ESTAGIARIO GOVERNADOR VALADARES; GOVERNADOR VALADARES-PJ-01PJ 0,00 0,00 0,00 180,00 0,00 0,00 0,00 0,00 0,00 31/01/2024
1072 342500 CAROLINE PESTANA GOMES PROMOT.ENTRANC.ESPECIAL VESPASIANO - COMARCA; VESPASIANO-PJ-06PJ 1.978,00 2.293,16 3.571,05 0,00 14.284,18 0,00 0,00 0,00 545,58 31/01/2024
1073 1621600 CAROLINE STHEFANE TEIXEIRA MIRANDA ESTAGIARIO LAGOA DA PRATA; LAGOA DA PRATA-PJ-02PJ 0,00 0,00 0,00 180,00 0,00 0,00 0,00 0,00 0,00 31/01/2024
1074 618100 CAROLINE VASCONCELOS COSTA LANZA ANALISTA DO MP PARAOPEBA - COMARCA; PARAOPEBA-PJ-UNPJ 1.978,00 2.293,16 605,00 0,00 5.974,31 0,00 0,00 0,00 547,65 31/01/2024
1075 699000 CAROLLINA RODRIGUES SOUTO AMARAL ASSESSOR PROCURADOR JUSTICA BELO HORIZONTE - COMARCA; GABINETE DE PROCURADOR DE JUSTIÇA-SALA1105-T3 1.978,00 0,00 605,00 0,00 0,00 0,00 0,00 0,00 0,00 31/01/2024
1076 210600 CASSANDRA DA CONCEICAO DANTAS SERRAO PROMOT.ENTRANC.ESPECIAL BELO HORIZONTE - COMARCA; BH-02PJ FAMILIA-GAB 026PJ 1.978,00 0,00 2.446,91 0,00 13.849,66 0,00 0,00 0,00 577,07 31/01/2024
1077 604000 CASSIA APARECIDA DA SILVA OFICIAL DO MP PARACATU - COMARCA; PARACATU-PJ-01PJ 1.978,00 0,00 605,00 0,00 0,00 0,00 0,00 0,00 0,00 31/01/2024
1078 268800 CASSIA BEATRIZ TEIXEIRA OFICIAL DO MP BELO HORIZONTE - COMARCA; PROC. JUSTICA DE HABEAS CORPUS 1.978,00 0,00 605,00 0,00 5.945,91 0,00 0,00 0,00 0,00 31/01/2024
1079 500000 CASSIA DE OLIVEIRA COSTA VIANA ANALISTA DO MP SETE LAGOAS - COMARCA; SETE LAGOAS-PJ-09PJ 1.978,00 0,00 605,00 0,00 0,00 0,00 0,00 0,00 0,00 31/01/2024
1080 368800 CASSIA LUISA BATISTA MENDONCA WEBER COORDENADOR II BELO HORIZONTE - COMARCA; DIVISÃO DE EDUCAÇÃO PARA O CONSUMO 1.978,00 0,00 605,00 0,00 5.338,75 0,00 0,00 0,00 0,00 31/01/2024
1081 622200 CASSIA VAZ DE AZEVEDO LISBOA MARZANO ASSESSOR ADMINISTRATIVO III BELO HORIZONTE - COMARCA; CGMP-DIR ESTAGIO PROBATORIO E ORIENT 1.978,00 0,00 605,00 0,00 6.080,98 0,00 0,00 0,00 0,00 31/01/2024
1082 156100 CASSIA VIRGINIA SERRA TEIXEIRA GONTIJO PROCURADOR DE JUSTICA BELO HORIZONTE - COMARCA; GABINETE DE PROCURADOR DE JUSTIÇA - SALA 804 1.978,00 0,00 3.111,57 0,00 24.043,95 0,00 0,00 0,00 734,68 31/01/2024
1083 720200 CASSIO DA SILVA COSTA MOREIRA ESTAGIARIO BELO HORIZONTE; DIRETORIA DE PRODUCAO EDITORIAL 0,00 0,00 0,00 90,00 0,00 0,00 0,00 0,00 0,00 31/01/2024
1084 121000 CASSIO HENRIQUE AFONSO DA SILVA OFICIAL DO MP BELO HORIZONTE - COMARCA; CGMP-ASSESSORIA TECNICA 1.978,00 0,00 605,00 0,00 6.014,39 0,00 0,00 0,00 0,00 31/01/2024
1085 1689400 CASSIO PORTELLA AVILA ESTAGIARIO RIO PRETO; RIO PRETO-PJ-UNPJ 0,00 0,00 0,00 180,00 0,00 0,00 0,00 0,00 0,00 31/01/2024
1086 756700 CATARINA ANNONI CESAR ASSESSOR PROCURADOR JUSTICA BELO HORIZONTE - COMARCA; GABINETE DE PROCURADOR DE JUSTIÇA - SALA 610 1.978,00 0,00 605,00 0,00 0,00 0,00 0,00 0,00 0,00 31/01/2024
1087 512001 CATARINA NATALINO CALIXTO COORDENADOR II BELO HORIZONTE - COMARCA; DIRETORIA GESTAO COMPRAS LICITACOES 1.978,00 1.146,58 605,00 0,00 5.716,57 0,00 0,00 0,00 524,02 31/01/2024
1088 606200 CATARINE DE SIQUEIRA DE QUADROS ANALISTA DO MP CONTAGEM - COMARCA; CONTAGEM-PJ-08PJ 1.978,00 1.146,58 605,00 0,00 5.924,93 0,00 0,00 0,00 543,12 31/01/2024
1089 1680100 CATHARINA DE SENA BORGES TEIXEIRA CARDOSO ESTAGIARIO BELO HORIZONTE; DIRET DE ESTAGIOS E CONVENIOS ACADEMICOS 0,00 0,00 0,00 252,00 0,00 0,00 0,00 0,00 0,00 31/01/2024
1090 1592300 CATHARINA VENANCIO COSTA ESTAGIARIO BELO HORIZONTE; BH-12PJ JUIZO CRIMINAL-GAB 085PJ 0,00 0,00 0,00 180,00 0,00 0,00 0,00 0,00 0,00 31/01/2024
1091 1557900 CATHARINE VIEIRA CORDEIRO ESTAGIARIO BELO HORIZONTE; GABINETE DE PROCURADOR DE JUSTIÇA - SALA 911
1092 1610700 CATIA CAETANO OLIMPIO ESTAGIARIO CONTAGEM; CONTAGEM-PJ-03PJ 0,00 0,00 0,00 108,00 0,00 0,00 0,00 0,00 0,00 31/01/2024
1093 622300 CECILIA APARECIDA PEREIRA ASSUNCAO OFICIAL DO MP TRÊS PONTAS - COMARCA; TRES PONTAS-PJ-SECRETARIA 1.978,00 1.146,58 605,00 0,00 0,00 0,00 0,00 0,00 0,00 31/01/2024
1094 1602200 CECILIA ARAUJO DE FREITAS ESTAGIARIO BELO HORIZONTE; COORD DE INCLUSAO E MOBILIZACAO SOCIAIS 0,00 0,00 0,00 162,00 0,00 0,00 0,00 0,00 0,00 31/01/2024
1095 711000 CECILIA DE SA FREITAS FERNANDES ESTAGIARIO UBERLANDIA; UBERLANDIA-PJ-07PJ 1.978,00 0,00 605,00 0,00 0,00 0,00 0,00 0,00 0,00 31/01/2024
1096 538000 CECILIA FONTES DE MATOS PIMENTEL ANALISTA DO MP PALMA - COMARCA; PALMA-PJ-UNPJ 1.978,00 1.146,58 605,00 0,00 5.924,93 0,00 0,00 0,00 0,00 31/01/2024
1097 748900 CECILIA KRUEL DE MAGALHAES PINTO ASSESSOR ADMINISTRATIVO IV BELO HORIZONTE - COMARCA; CAO-MEIO AMBIENTE 1.978,00 2.293,16 605,00 0,00 0,00 0,00 0,00 0,00 0,00 31/01/2024
1098 1629300 CECILIA ROSALINE FERREIRA DE ARRUDA ESTAGIARIO PARACATU; COORD REG PP NOROESTE MINAS GERAIS PARACATU 0,00 0,00 0,00 180,00 0,00 0,00 0,00 0,00 0,00 31/01/2024
1099 261300 CECILIO ANTONIO CAMPOS DOS REIS ANALISTA DO MP BELO HORIZONTE - COMARCA; AUDITORIA INTERNA 1.978,00 0,00 605,00 0,00 5.167,75 0,00 0,00 0,00 473,71 31/01/2024
1100 386400 CEFAS AMORELI DE FIGUEIREDO OFICIAL DO MP CABO VERDE - COMARCA; CABO VERDE-PJ-SECRETARIA 1.978,00 0,00 605,00 0,00 6.245,57 0,00 0,00 0,00 0,00 31/01/2024
1101 105600 CELIA BEATRIZ GOMES DOS SANTOS PROCURADOR DE JUSTICA BELO HORIZONTE - COMARCA; COORD DE CONTROLE CONSTITUCIONALIDADE 1.978,00 0,00 2.272,80 0,00 24.043,95 0,00 0,00 0,00 734,68 31/01/2024
1102 421000 CELINA BENEDITA DE SOUZA ALMEIDA OFICIAL DO MP CAMBUÍ - COMARCA; CAMBUI-PJ-01PJ 1.978,00 0,00 605,00 0,00 0,00 0,00 0,00 0,00 -303,98 31/01/2024
1103 252900 CELIO DE MELO CASTOR ANALISTA DO MP BELO HORIZONTE - COMARCA; DIVISAO FROTA 1.978,00 0,00 605,00 0,00 0,00 0,00 0,00 0,00 0,00 31/01/2024
1104 486300 CELIO DIMAS ESTEVES RUAS PROMOT.ENTRANC.ESPECIAL CORONEL FABRICIANO - COMARCA; CORONEL FABRICIANO-PJ-02PJ 1.978,00 0,00 2.570,42 0,00 5.951,74 0,00 0,00 0,00 545,58 31/01/2024
1105 395700 CELIO FERREIRA LIMA OFICIAL DO MP CONTAGEM - COMARCA; CONTAGEM-PJ-SECRETARIA 1.978,00 0,00 605,00 0,00 1.283,74 0,00 0,00 0,00 117,68 31/01/2024
1106 281300 CELMA REGINA PEREIRA SANTOS ANALISTA DO MP BELO HORIZONTE - COMARCA; DIRET DE INFORMACAO E CONHECIMENTO-DINC/CEAF 1.978,00 0,00 605,00 0,00 0,00 0,00 0,00 0,00 0,00 31/01/2024
1107 535600 CELSO MEDEIROS DE PAIVA OFICIAL DO MP RIO PRETO - COMARCA; RIO PRETO-PJ-SECRETARIA 1.978,00 0,00 605,00 0,00 6.125,47 0,00 0,00 0,00 561,50 31/01/2024
1108 157700 CELSO PENNA FERNANDES JUNIOR PROMOT.ENTRANC.ESPECIAL BELO HORIZONTE - COMARCA; BH-23PJ CIVEL-GAB 162PJ 1.978,00 0,00 3.111,57 0,00 24.043,95 0,00 0,00 0,00 734,68 31/01/2024
1109 93700 CESAR ANTONIO COSSI PROCURADOR DE JUSTICA BELO HORIZONTE - COMARCA; GABINETE DE PROCURADOR DE JUSTIÇA - SALA 805 1.978,00 0,00 3.300,97 0,00 8.014,65 0,00 0,00 0,00 734,68 31/01/2024
1110 293100 CESAR ANTONIO DE LIMA PROMOT.ENTRANC.ESPECIAL POÇOS DE CALDAS - COMARCA; POCOS DE CALDAS-PJ-03PJ 1.978,00 0,00 3.571,05 0,00 11.903,48 0,00 0,00 0,00 0,00 31/01/2024
1111 293800 CESAR AUGUSTO DOS SANTOS PROMOT.ENTRANC.ESPECIAL BELO HORIZONTE - COMARCA; BH-12PJ JUIZO CRIMINAL-GAB 091PJ 1.978,00 0,00 1.136,40 0,00 17.855,22 0,00 0,00 0,00 545,58 31/01/2024
1112 367000 CESAR NARVAES DE AVELAR OFICIAL DO MP BELO HORIZONTE - COMARCA; DIRET DE INFORMACAO E CONHECIMENTO-DINC/CEAF 1.978,00 0,00 605,00 0,00 0,00 0,00 0,00 0,00 0,00 31/01/2024
1113 226500 CESAR SILVEIRA BARROUIN OFICIAL DO MP IGARAPÉ - COMARCA; IGARAPE-PJ-02PJ 1.978,00 0,00 605,00 0,00 5.439,23 0,00 0,00 0,00 0,00 31/01/2024
1114 293500 CESAR YOSHIKAWA PROMOT.ENTRANC.ESPECIAL BELO HORIZONTE - COMARCA; BH-12PJ JUIZO CRIMINAL-GAB 083PJ 1.978,00 0,00 3.030,40 0,00 17.855,23 0,00 0,00 0,00 545,58 31/01/2024
1115 121400 CEZAR MORENO CONCEICAO TAVARES OFICIAL DO MP BELO HORIZONTE - COMARCA; COORD DE INCLUSAO E MOBILIZACAO SOCIAIS 1.978,00 1.146,58 605,00 0,00 5.205,27 0,00 0,00 0,00 0,00 31/01/2024
1116 1624600 CEZAR RODRIGUES ROSA ESTAGIARIO DIVINOPOLIS; DIVINOPOLIS-PJ-07PJ 0,00 0,00 0,00 180,00 0,00 0,00 0,00 0,00 0,00 31/01/2024
1117 1664400 CHARLE ARAUJO FORZAN ESTAGIARIO ESMERALDAS; ESMERALDAS-PJ-01PJ 0,00 0,00 0,00 180,00 0,00 0,00 0,00 0,00 0,00 31/01/2024
1118 664100 CHARLES BARBOSA DA SILVA 3O. SARGENTO BELO HORIZONTE - COMARCA; NUCLEO DE OPERACOES DE SEGURANCA DE PESSOAL 1.978,00 0,00 0,00 0,00 0,00 0,00 0,00 0,00 0,00 31/01/2024
1119 210400 CHARLES DANIEL FRANCA SALOMAO PROMOT.ENTRANC.ESPECIAL PARÁ DE MINAS - COMARCA; PARA DE MINAS-PJ-02PJ 1.978,00 0,00 2.435,14 0,00 19.813,47 0,00 0,00 0,00 605,41 31/01/2024
1120 669200 CHARLES HENRIQUE SQUARCIO CABO BELO HORIZONTE - COMARCA; GAECO - SETOR POLICIAL MILITAR 1.978,00 0,00 0,00 0,00 0,00 0,00 0,00 0,00 0,00 31/01/2024
1121 243800 CHARLES MARTINS MUNIZ OFICIAL DO MP BELO HORIZONTE - COMARCA; LAB TECNOLOGIA CONTRA LAVAGEM DINHEIRO 1.978,00 0,00 0,00 0,00 6.091,94 0,00 0,00 0,00 558,43 31/01/2024
1122 193500 CHARLIN CESAR KOURLY OFICIAL DO MP ARAGUARI - COMARCA; ARAGUARI-PJ-07PJ 1.978,00 0,00 605,00 0,00 6.213,67 0,00 0,00 0,00 0,00 31/01/2024
1123 385500 CHILLEN PEIXOTO DE MOURA OFICIAL DO MP BELO HORIZONTE - COMARCA; DIVISAO DE MATERIAIS 1.978,00 2.293,16 605,00 0,00 0,00 0,00 0,00 0,00 0,00 31/01/2024
1124 534500 CHRISTIAN DOUGLAS BRITO RUAS OFICIAL DO MP BOCAIÚVA - COMARCA; BOCAIUVA-PJ-03PJ 1.978,00 0,00 605,00 0,00 6.125,47 0,00 0,00 0,00 0,00 31/01/2024
1125 370600 CHRISTIAN KARINE FELIX PRATES ASSESSOR ADMINISTRATIVO IV BELO HORIZONTE - COMARCA; SUPRIN DE PLANEJAMENTO E COORDENACAO 1.978,00 0,00 605,00 0,00 5.795,29 0,00 0,00 0,00 531,23 31/01/2024
1126 435800 CHRISTIANA BAHIA ANDRADE PINA ANALISTA DO MP BELO HORIZONTE - COMARCA; LABORATORIO TECNOLOGIA INTELIGENCIA 1.978,00 0,00 605,00 0,00 5.391,60 0,00 0,00 0,00 0,00 31/01/2024
1127 516800 CHRISTIANE FERREIRA DO NASCIMENTO ANALISTA DO MP POUSO ALEGRE - COMARCA; POUSO ALEGRE-PJ-04PJ 1.978,00 0,00 605,00 0,00 0,00 0,00 0,00 0,00 0,00 31/01/2024
1128 176000 CHRISTIANE JUNQUEIRA PULITI ANDRADE DE BARROS ASSESSOR ADM. ESPECIAL BELO HORIZONTE - COMARCA; PROCURADORIA-GERAL ADJUNTA INSTITUCIONAL 1.978,00 0,00 605,00 0,00 5.205,26 0,00 0,00 0,00 0,00 31/01/2024
1129 1521700 CHRISTIANE KENIA GOMES ALVES ESTAGIARIO CURVELO; CURVELO-PJ-05PJ 0,00 0,00 0,00 180,00 0,00 0,00 0,00 0,00 0,00 31/01/2024
1130 319200 CHRISTIANE MARIA DE ASSIS RUSSO OFICIAL DO MP BELO HORIZONTE - COMARCA; CAO-ORDEM ECONOMICA E TRIBUTARIA-SECRETARIA 1.978,00 1.146,58 605,00 0,00 0,00 0,00 0,00 0,00 0,00 31/01/2024
1131 510300 CHRISTIANE MARY DE CARVALHO FERREIRA ANALISTA DO MP BELO HORIZONTE - COMARCA; DIRETORIA DE SISTEMAS DE INFORMACAO 1.978,00 0,00 605,00 0,00 0,00 0,00 0,00 0,00 0,00 31/01/2024
1132 424900 CHRISTIANE PEREIRA TURNER DE ARAUJO OFICIAL DO MP BELO HORIZONTE - COMARCA; CAO-PATRIMONIO PUBLICO 1.978,00 1.146,58 605,00 0,00 5.776,81 0,00 0,00 0,00 1.036,86 31/01/2024
1133 731000 CHRISTIANE TEIXEIRA ANTUNA ASSESSOR ADMINISTRATIVO III BELO HORIZONTE - COMARCA; DIR CONTEUDO JORNALISTICO 0,00 0,00 0,00 72,00 0,00 0,00 0,00 0,00 0,00 31/01/2024
1134 513700 CHRISTIANE VIEIRA SOARES PEDERSOLI COORDENADOR II BELO HORIZONTE - COMARCA; ASSESSORIA JURIDICA DO PROCON-MG 1.978,00 1.146,58 605,00 0,00 5.913,70 0,00 0,00 0,00 0,00 31/01/2024
1135 163300 CHRISTIANNE COTRIM ASSAD BENSOUSSAN PROMOT.ENTRANC.ESPECIAL BELO HORIZONTE - COMARCA; BH-12PJ JUIZO CRIMINAL-GAB 087PJ 1.978,00 0,00 3.571,05 0,00 6.638,85 0,00 0,00 0,00 608,56 31/01/2024
1136 371400 CHRISTIANO LEONARDO GONZAGA GOMES PROMOTOR 2A ENTRANCIA SABARÁ - COMARCA; SABARA-PJ-01PJ 1.978,00 0,00 2.516,30 0,00 16.962,47 0,00 0,00 0,00 518,30 31/01/2024
1137 412300 CHRYSTIAN MACHADO RIBEIRO ANALISTA DO MP VARGINHA - COMARCA; VARGINHA-PJ-04PJ 1.978,00 0,00 605,00 0,00 5.840,90 0,00 0,00 0,00 0,00 31/01/2024
1138 513800 CHRYSTIANE DO NASCIMENTO DE MAGALHAES OFICIAL DO MP UBERLÂNDIA - COMARCA; UBERLANDIA-PJ-10PJ 1.978,00 0,00 605,00 0,00 6.057,50 0,00 0,00 0,00 0,00 31/01/2024
1139 497900 CIBELE DE FREITAS SANCHES DIAS ANALISTA DO MP BELO HORIZONTE - COMARCA; BH-12PJ JUIZO CRIMINAL-GAB 103PJ 1.978,00 0,00 605,00 0,00 5.924,93 0,00 0,00 0,00 543,12 31/01/2024
1140 500900 CIBELLE SILVA PRADO ALVARENGA ANALISTA DO MP ITANHANDU - COMARCA; ITANHANDU-PJ-UNPJ 1.978,00 1.146,58 605,00 0,00 5.924,93 0,00 0,00 0,00 0,00 31/01/2024
1141 1637900 CINARA MARCIELLE LIMA PEREIRA ESTAGIARIO ARINOS; ARINOS-PJ-UNPJ 0,00 0,00 0,00 180,00 0,00 0,00 0,00 0,00 0,00 31/01/2024
1142 296400 CINTIA APARECIDA MOREIRA NAVES E RODRIGUES ANALISTA DO MP CAMPO BELO - COMARCA; CAMPO BELO-PJ-01PJ 1.978,00 0,00 605,00 0,00 5.998,28 0,00 0,00 0,00 0,00 31/01/2024
1143 171200 CINTIA MARIA OLIVEIRA DE LUCENA PROMOT.ENTRANC.ESPECIAL BELO HORIZONTE - COMARCA; BH-23PJ INFRACIONAL-GAB 144PJ 1.978,00 0,00 1.894,00 0,00 18.885,90 0,00 0,00 0,00 577,07 31/01/2024
1144 407900 CINTIA NETO COMELLI ANALISTA DO MP BELO HORIZONTE - COMARCA; CENTRAL DE APOIO TECNICO-SETOR CONTABIL 1.978,00 0,00 605,00 0,00 0,00 0,00 0,00 0,00 0,00 31/01/2024
1145 304700 CINTIA QUEIROZ OFICIAL DO MP BELO HORIZONTE - COMARCA; OUVIDORIA DO MPMG 1.978,00 0,00 605,00 0,00 5.776,81 0,00 0,00 0,00 0,00 31/01/2024
1146 163000 CINTIA ROBERTA GOMES DE LIMA PROMOTOR 2A ENTRANCIA VARGINHA - COMARCA; COORD REG PJ DEF EDUC DIR CRIANCA ADOL SUL 1.978,00 0,00 2.435,14 0,00 0,00 0,00 0,00 0,00 0,00 31/01/2024
1147 286100 CIRO CANGUSSU CORDEIRO OFICIAL DO MP IPATINGA - COMARCA; IPATINGA-PJ-09PJ 1.978,00 1.146,58 605,00 0,00 0,00 0,00 0,00 0,00 0,00 31/01/2024
1148 689900 CISSA NOGUEIRA COLEN ASSESSOR PROCURADOR JUSTICA BELO HORIZONTE - COMARCA; GABINETE DE PROCURADOR DE JUSTIÇA - SALA 608 1.978,00 0,00 605,00 0,00 0,00 0,00 0,00 0,00 0,00 31/01/2024
1149 1634700 CLARA CARVALHO PEREIRA DOS REIS ESTAGIARIO BELO HORIZONTE; BH-08PJ JUIZADO ESPECIAL-GAB 168PJ 0,00 0,00 0,00 90,00 0,00 0,00 0,00 0,00 0,00 31/01/2024
1150 1625700 CLARA DANIELE MOURA DE SOUSA ESTAGIARIO BELO HORIZONTE; PROC JUST ATUACAO TRIBUNAIS SUPERIORES-GAB005 0,00 0,00 0,00 108,00 0,00 0,00 0,00 0,00 0,00 31/01/2024
1151 681700 CLARA FERREIRA ALKIMIM ASSESSOR PROMOTOR JUSTICA PEDRA AZUL - COMARCA; PEDRA AZUL-PJ-02PJ 1.978,00 0,00 605,00 0,00 5.991,41 0,00 0,00 0,00 549,21 31/01/2024
1152 1643700 CLARA INEZ RIBEIRO MIRANDA FERREIRA ESTAGIARIO PEDRA AZUL; PEDRA AZUL-PJ-01PJ 0,00 0,00 0,00 180,00 0,00 0,00 0,00 0,00 0,00 31/01/2024
1153 715500 CLARA ISABELLE SOUSA FARIA ASSESSOR PROCURADOR JUSTICA BELO HORIZONTE - COMARCA; GABINETE DE PROCURADOR DE JUSTIÇA - SALA 712 1.978,00 0,00 605,00 0,00 0,00 0,00 0,00 0,00 0,00 31/01/2024
1154 756100 CLARA LIMA LIPOVETSKY ASSESSOR PROMOTOR JUSTICA BELO HORIZONTE - COMARCA; CAO-FUNDACOES-ASSESSORIA JURIDICA 1.978,00 0,00 605,00 0,00 0,00 0,00 0,00 0,00 0,00 31/01/2024
1155 484900 CLARA MARIA HOEHNE SEPULVEDA PROMOT.ENTRANC.ESPECIAL SETE LAGOAS - COMARCA; SETE LAGOAS-PJ-09PJ 1.978,00 0,00 3.571,05 0,00 10.713,13 0,00 0,00 0,00 545,58 31/01/2024
1156 1615800 CLARA PORTELLA FERREIRA ESTAGIARIO BELO HORIZONTE; BH-PJ AUXILIAR-GAB 141PJ 0,00 0,00 0,00 126,00 0,00 0,00 0,00 0,00 0,00 31/01/2024
1157 723100 CLARA PRADO CAMPOS ASSESSOR PROCURADOR JUSTICA BELO HORIZONTE - COMARCA; GABINETE DE PROCURADOR DE JUSTIÇA - SALA 1006 1.978,00 0,00 605,00 0,00 0,00 0,00 0,00 0,00 0,00 31/01/2024
1158 1572200 CLARA RIHS MATOS VIEIRA ESTAGIARIO TEOFILO OTONI; TEOFILO OTONI-PJ-08PJ 0,00 0,00 0,00 162,00 0,00 0,00 0,00 0,00 0,00 31/01/2024
1159 695500 CLARA RODRIGUES BLACH ASSESSOR PROCURADOR JUSTICA BELO HORIZONTE - COMARCA; GABINETE DE PROCURADOR DE JUSTIÇA - SALA 1003 1.978,00 0,00 605,00 0,00 0,00 0,00 0,00 0,00 0,00 31/01/2024
1160 1598100 CLARA RODRIGUES DE SALLES ESTAGIARIO SANTA LUZIA; SANTA LUZIA-PJ-04PJ 0,00 0,00 0,00 162,00 0,00 0,00 0,00 0,00 0,00 31/01/2024
1161 1681900 CLAREANE MENDONCA DE OLIVEIRA ESTAGIARIO UBERLANDIA; UBERLANDIA-PJ-20PJ 0,00 0,00 0,00 162,00 0,00 0,00 0,00 0,00 0,00 31/01/2024
1162 1523100 CLARICE ALVES NOGUEIRA ESTAGIARIO UBERABA; UBERABA-PJ-14PJ 0,00 0,00 0,00 180,00 0,00 0,00 0,00 0,00 0,00 31/01/2024
1163 412500 CLARICE GOMES MAROTTA ANALISTA DO MP BELO HORIZONTE - COMARCA; COORD ESTADUAL DE DEFESA DOS ANIMAIS 1.978,00 0,00 605,00 0,00 5.241,84 0,00 0,00 0,00 0,00 31/01/2024
1164 1675900 CLARICE SOUZA CARVALHO ESTAGIARIO BARBACENA; BARBACENA-PJ-06PJ 0,00 0,00 0,00 180,00 0,00 0,00 0,00 0,00 0,00 31/01/2024
1165 605300 CLARISSA AZEVEDO ROCHA OFICIAL DO MP BELO HORIZONTE - COMARCA; BH-16PJ HABITACAO URBANISMO-GAB 117PJ 1.978,00 0,00 605,00 0,00 0,00 0,00 0,00 0,00 0,00 31/01/2024
1166 1387500 CLARISSA DE CARVALHO PATARO ESTAGIARIO PONTE NOVA; PONTE NOVA-PJ-05PJ 0,00 0,00 0,00 144,00 458,33 0,00 0,00 0,00 0,00 31/01/2024
1167 308100 CLARISSA DUARTE BELLONI DIRETOR-GERAL BELO HORIZONTE - COMARCA; DIRETORIA-GERAL 1.978,00 1.719,87 605,00 0,00 6.014,39 0,00 0,00 0,00 0,00 31/01/2024
1168 730500 CLARISSA FERNANDES ABREU ASSESSOR PROMOTOR JUSTICA SANTOS DUMONT - COMARCA; SANTOS DUMONT-PJ-02PJ 0,00 0,00 0,00 36,00 0,00 0,00 0,00 0,00 0,00 31/01/2024
1169 1638300 CLARISSA FREITAS MARTINS ESTAGIARIO TIMOTEO; TIMOTEO-PJ-01PJ 0,00 0,00 0,00 180,00 0,00 0,00 0,00 0,00 0,00 31/01/2024
1170 402100 CLARISSA GOBBO DOS SANTOS PROMOT.ENTRANC.ESPECIAL BELO HORIZONTE - COMARCA; GRUPO ESP PROM JUST DEF PROB ADM PAT PUB 1.978,00 0,00 3.571,05 0,00 17.855,22 0,00 0,00 0,00 545,58 31/01/2024
1171 743200 CLARISSA GODINHO PRATES ASSESSOR ADMINISTRATIVO I GOVERNADOR VALADARES - COMARCA; COOR REG APOIO COM INC MOB VALE DO RIO DOCE 1.978,00 0,00 605,00 0,00 0,00 0,00 0,00 0,00 0,00 31/01/2024
1172 497100 CLARISSA ROCHA GUIDI ANALISTA DO MP BELO HORIZONTE - COMARCA; BH-02PJ FAMILIA-SECRETARIA 1.978,00 2.293,16 605,00 0,00 5.931,65 0,00 0,00 0,00 0,00 31/01/2024
1173 661600 CLARISSE PEREZ DO NASCIMENTO NASCIF MENDES PROMOTOR 1A ENTRANCIA PIRANGA - COMARCA; PIRANGA-PJ-UNPJ 1.978,00 2.293,16 3.222,87 0,00 16.114,35 0,00 0,00 0,00 492,38 31/01/2024
1174 641800 CLARISSE TAVARES GONCALVES OFICIAL DO MP BELO HORIZONTE - COMARCA; BH-07PJ 01 TRIBUNAL JURI-SECRETARIA 1.978,00 0,00 605,00 0,00 0,00 0,00 0,00 0,00 0,00 31/01/2024
1175 463700 CLAUDIA ADRIANA FERRAO DIAS ANALISTA DO MP SETE LAGOAS - COMARCA; SETE LAGOAS-PJ-06PJ 1.978,00 0,00 605,00 0,00 0,00 0,00 0,00 0,00 0,00 31/01/2024
1176 415400 CLAUDIA ALMEIDA DE VASCONCELLOS BARROS OFICIAL DO MP BELO HORIZONTE - COMARCA; DIVISAO DE SERVICOS 1.978,00 0,00 605,00 0,00 5.951,00 0,00 0,00 0,00 1.201,88 31/01/2024
1177 207000 CLAUDIA APARECIDA VILELA MACHADO ANALISTA DO MP BELO HORIZONTE - COMARCA; CENTRAL DE APOIO TECNICO-SETOR CONTABIL 1.978,00 0,00 605,00 0,00 4.789,83 0,00 0,00 0,00 439,07 31/01/2024
1178 314400 CLAUDIA AUGUSTA LOPES DE MENDONCA PROMOT.ENTRANC.ESPECIAL BELO HORIZONTE - COMARCA; BH-09PJ AUDITORIA MILITAR-GAB 074PJ 1.978,00 0,00 3.571,05 0,00 16.664,88 0,00 0,00 0,00 545,58 31/01/2024
1179 365700 CLAUDIA BREGUEZ CUNHA ANALISTA DO MP VARGINHA - COMARCA; VARGINHA-PJ-07PJ 1.978,00 1.146,58 605,00 0,00 0,00 0,00 0,00 0,00 0,00 31/01/2024
1180 430500 CLAUDIA CECILIA SANTANA VENCESLAU OFICIAL DO MP BELO HORIZONTE - COMARCA; LAB TECNOLOGIA CONTRA LAVAGEM DINHEIRO 1.978,00 0,00 605,00 0,00 5.924,93 0,00 0,00 0,00 0,00 31/01/2024
1181 1480200 CLAUDIA DE AQUINO ESTAGIARIO BUENOPOLIS; BUENOPOLIS-PJ-UNPJ 0,00 0,00 0,00 180,00 0,00 0,00 0,00 0,00 0,00 31/01/2024
1182 98300 CLAUDIA DE OLIVEIRA IGNEZ PROMOTOR 2A ENTRANCIA NOVA LIMA - COMARCA; NOVA LIMA-PJ-01PJ 1.978,00 1.146,58 2.164,57 0,00 9.119,95 0,00 0,00 0,00 696,66 31/01/2024
1183 167300 CLAUDIA DO AMARAL XAVIER PROMOT.ENTRANC.ESPECIAL BELO HORIZONTE - COMARCA; BH-18PJ DIREITOS HUMANOS-GAB 125PJ 1.978,00 0,00 2.326,91 0,00 22.989,62 0,00 0,00 0,00 702,46 31/01/2024
1184 163100 CLAUDIA FERREIRA DE SOUZA PROMOT.ENTRANC.ESPECIAL BELO HORIZONTE - COMARCA; BH-02PJ FAMILIA-GAB 035PJ 1.978,00 0,00 1.623,43 0,00 16.029,30 0,00 0,00 0,00 0,00 31/01/2024
1185 174500 CLAUDIA FERREIRA PACHECO DE FREITAS PROMOT.ENTRANC.ESPECIAL BELO HORIZONTE - COMARCA; SECRETARIA-GERAL-GABINETE 1.978,00 0,00 3.571,05 0,00 18.885,89 0,00 0,00 0,00 577,07 31/01/2024
1186 213601 CLAUDIA GONCALVES CALIXTO ASSESSOR PROCURADOR JUSTICA BELO HORIZONTE - COMARCA; PROC. JUSTICA DIR. DIFUSOS E COLETIVOS-SEC 1.978,00 0,00 605,00 0,00 3.876,79 0,00 0,00 0,00 0,00 31/01/2024
1187 480400 CLAUDIA GOULART DE SOUZA OFICIAL DO MP PASSOS - COMARCA; PASSOS-PJ-06PJ 1.978,00 0,00 605,00 0,00 6.211,29 0,00 0,00 0,00 0,00 31/01/2024
1188 519800 CLAUDIA HELENA CORREA DE ALMEIDA ANALISTA DO MP BELO HORIZONTE - COMARCA; BH-12PJ JUIZO CRIMINAL-GAB 096PJ 1.978,00 0,00 605,00 0,00 5.924,93 0,00 0,00 0,00 0,00 31/01/2024
1189 422100 CLAUDIA IACOMINI CABRAL ANALISTA DO MP BELO HORIZONTE - COMARCA; CENT DE APOIO TEC-SETOR DEF,IDOSO E INFANC 1.978,00 0,00 605,00 0,00 5.092,07 0,00 0,00 0,00 466,77 31/01/2024
1190 258200 CLAUDIA LAGE MICHALAROS ANALISTA DO MP BELO HORIZONTE - COMARCA; CENTRAL DE APOIO TECN-SETOR DE MEIO AMBIENTE 1.978,00 0,00 605,00 0,00 0,00 0,00 0,00 0,00 0,00 31/01/2024
1191 706400 CLAUDIA LARICO YANAPA ESTAGIARIO ARAXA; ARAXA-PJ-03PJ 1.978,00 0,00 605,00 0,00 0,00 0,00 0,00 0,00 0,00 31/01/2024
1192 175200 CLAUDIA LOPES SILVA SCIOLI PROMOT.ENTRANC.ESPECIAL POUSO ALEGRE - COMARCA; POUSO ALEGRE-PJ-07PJ 1.978,00 0,00 3.273,91 0,00 6.278,12 0,00 0,00 0,00 575,49 31/01/2024
1193 433600 CLAUDIA LUIZA SANTIAGO FELICIO ANALISTA DO MP BELO HORIZONTE - COMARCA; CENT DE APOIO TEC-SETOR DEF,IDOSO E INFANC 1.978,00 0,00 605,00 0,00 5.391,60 0,00 0,00 0,00 0,00 31/01/2024
1194 317000 CLAUDIA MACHADO ALVES OFICIAL DO MP BELO HORIZONTE - COMARCA; DIR GOVERNANCA TECNOLOGIA INFORMACAO 1.978,00 0,00 605,00 0,00 5.618,84 0,00 0,00 0,00 0,00 31/01/2024
1195 155300 CLAUDIA MACIEL MIRANDA OFICIAL DO MP CONGONHAS - COMARCA; CONGONHAS-PJ-02PJ 1.978,00 0,00 605,00 0,00 0,00 0,00 0,00 0,00 0,00 31/01/2024
1196 746300 CLAUDIA MAGDA SANTANA ANALISTA DO MP BELO HORIZONTE - COMARCA; DIRETORIA DE ADMINISTRACAO FINANCEIRA 1.978,00 0,00 605,00 0,00 0,00 0,00 0,00 0,00 0,00 31/01/2024
1197 242200 CLAUDIA MICHELLE DIAS MUNIZ BALEEIRO OFICIAL DO MP MONTE AZUL - COMARCA; MONTE AZUL-PJ-SECRETARIA 1.978,00 0,00 605,00 0,00 5.439,23 0,00 0,00 0,00 0,00 31/01/2024
1198 755900 CLAUDIA NATIVIDADE ASSESSOR ADMINISTRATIVO II BELO HORIZONTE - COMARCA; CENTRO ESTADUAL DE APOIO AS VITIMAS 1.978,00 0,00 605,00 0,00 0,00 0,00 0,00 0,00 0,00 31/01/2024
1199 236500 CLAUDIA NETO COMELLI PROMOT.ENTRANC.ESPECIAL BELO HORIZONTE - COMARCA; BH-23PJ INFRACIONAL-GAB 039PJ 1.978,00 0,00 3.571,05 0,00 6.278,12 0,00 0,00 0,00 575,49 31/01/2024
1200 623000 CLAUDIA PATRICIA SILVA RODRIGUES RAPOSEIRAS OFICIAL DO MP BELO HORIZONTE - COMARCA; DIVISÃO DE EDUCAÇÃO PARA O CONSUMO 1.978,00 1.146,58 605,00 0,00 0,00 0,00 0,00 0,00 0,00 31/01/2024
1201 418400 CLAUDIA REGINA MARTINS BONIFACIO OFICIAL DO MP ITUIUTABA - COMARCA; ITUIUTABA-PJ-06PJ 1.978,00 0,00 605,00 0,00 5.776,81 0,00 0,00 0,00 0,00 31/01/2024
1202 498300 CLAUDIA SOUTO FARIAS BRAUN OFICIAL DO MP TEÓFILO OTONI - COMARCA; TEOFILO OTONI-PJ-SECRETARIA 1.978,00 0,00 605,00 0,00 6.125,47 0,00 0,00 0,00 0,00 31/01/2024
1203 79600 CLAUDIA SPRANGER E SILVA LUIZ MOTTA PROCURADOR DE JUSTICA BELO HORIZONTE - COMARCA; GABINETE DE PROCURADOR DE JUSTIÇA - SALA 706 1.978,00 0,00 3.759,00 0,00 25.646,88 0,00 0,00 0,00 734,68 31/01/2024
1204 206500 CLAUDIA VALERIA FONSECA ANDRADE ANALISTA DO MP BELO HORIZONTE - COMARCA; BH-23PJ INF-FISC MED SOC FEC 1.978,00 0,00 605,00 0,00 5.205,26 0,00 0,00 0,00 0,00 31/01/2024
1205 1499800 CLAUDIELLE COSTA DE ARAUJO ESTAGIARIO JEQUITINHONHA; JEQUITINHONHA-PJ-COORD PJ 0,00 0,00 0,00 180,00 0,00 0,00 0,00 0,00 0,00 31/01/2024
1206 277500 CLAUDIO ANTONIO BORGES BRUNSWICK ALVARES OFICIAL DO MP BELO HORIZONTE - COMARCA; ASSESSORIA JURIDICA DO PROCON-MG 1.978,00 0,00 605,00 0,00 0,00 0,00 0,00 0,00 0,00 31/01/2024
1207 444800 CLAUDIO ARESIO DO CARMO ANALISTA DO MP SETE LAGOAS - COMARCA; SETE LAGOAS-PJ-05PJ 1.978,00 0,00 605,00 0,00 6.055,23 0,00 0,00 0,00 0,00 31/01/2024
1208 532100 CLAUDIO DANIEL FONSECA DE ALMEIDA PROMOTOR 2A ENTRANCIA MARIANA - COMARCA; MARIANA-PJ-02PJ 1.978,00 1.146,58 2.570,42 0,00 16.962,48 0,00 0,00 0,00 518,30 31/01/2024
1209 76700 CLAUDIO EMANUEL DA CUNHA PROCURADOR DE JUSTICA BELO HORIZONTE - COMARCA; GABINETE DE PROCURADOR DE JUSTICA - SALA 311 1.978,00 0,00 1.623,43 0,00 8.014,65 0,00 0,00 0,00 734,68 31/01/2024
1210 100500 CLAUDIO FERREIRA DE OLIVEIRA FILHO PROMOTOR 2A ENTRANCIA LAMBARI - COMARCA; LAMBARI-PJ-UNPJ 1.978,00 0,00 3.111,57 0,00 23.878,87 0,00 0,00 0,00 729,63 31/01/2024
1211 545100 CLAUDIO HENRIQUE MACEDO DE SOUZA FRANSOZO ANALISTA DO MP OURO PRETO - COMARCA; OURO PRETO-PJ-03PJ 1.978,00 1.146,58 605,00 0,00 0,00 0,00 0,00 0,00 0,00 31/01/2024
1212 353500 CLAUDIO HENRIQUE PEDRO DA ROCHA OFICIAL DO MP BELO HORIZONTE - COMARCA; DIVISAO DE SERVICOS 1.978,00 0,00 605,00 0,00 5.776,81 0,00 0,00 0,00 0,00 31/01/2024
1213 265800 CLAUDIO KUPIDLOWSKY FERNANDES OFICIAL DO MP BELO HORIZONTE - COMARCA; SECRETARIA DO PROCON-MG 1.978,00 0,00 605,00 0,00 6.221,18 0,00 0,00 0,00 0,00 31/01/2024
1214 193600 CLAUDIO LEITE FONTES OFICIAL DO MP ITUIUTABA - COMARCA; ITUIUTABA-PJ-02PJ 1.978,00 1.146,58 605,00 0,00 5.924,93 0,00 0,00 0,00 0,00 31/01/2024
1215 102000 CLAUDIO LUIZ GONCALVES MARINS PROMOTOR 2A ENTRANCIA GUAXUPÉ - COMARCA; GUAXUPE-PJ-03PJ 1.978,00 0,00 3.392,49 0,00 23.878,87 0,00 0,00 0,00 729,63 31/01/2024
1216 163200 CLAUDIO MAIA DE BARROS PROMOT.ENTRANC.ESPECIAL BELO HORIZONTE - COMARCA; COORD EST PJ TRIBUNAL JURI 1.978,00 0,00 3.409,19 0,00 19.916,55 0,00 0,00 0,00 608,56 31/01/2024
1217 329400 CLAUDIO MARCIO BERNARDES OFICIAL DO MP ITAÚNA - COMARCA; ITAUNA-PJ-03PJ 1.978,00 1.146,58 605,00 0,00 0,00 0,00 0,00 0,00 0,00 31/01/2024
1218 270200 CLAUDIO RABELO ALVES OFICIAL DO MP FORMIGA - COMARCA; FORMIGA-PJ-03PJ 1.978,00 0,00 605,00 0,00 6.055,23 0,00 0,00 0,00 0,00 31/01/2024
1219 264700 CLAUDIO ROBERTO KFURI DE ARAUJO ANALISTA DO MP BELO HORIZONTE - COMARCA; CENTRAL DE APOIO TECNICO-SETOR DE INFORMATICA 1.978,00 0,00 605,00 0,00 0,00 0,00 0,00 0,00 0,00 31/01/2024
1220 543300 CLAUDIO SILVA DE CARVALHO ANALISTA DO MP CAMPO BELO - COMARCA; CAMPO BELO-PJ-03PJ 1.978,00 0,00 605,00 0,00 5.785,94 0,00 0,00 0,00 0,00 31/01/2024
1221 144300 CLAUDIO VARELLA DE SOUZA PROCURADOR DE JUSTICA BELO HORIZONTE - COMARCA; GABINETE DE PROCURADOR DE JUSTIÇA - SALA 712 1.978,00 0,00 1.488,14 0,00 24.043,95 0,00 0,00 0,00 734,68 31/01/2024
1222 160700 CLAUDIO VICENTE HESS ASSESSOR DE GABINETE I BELO HORIZONTE - COMARCA; CENTRAL DE APOIO TECNICO-SETOR DE INFORMATICA 1.978,00 0,00 605,00 0,00 5.439,23 0,00 0,00 0,00 0,00 31/01/2024
1223 312900 CLAUDIO VIEIRA FIRPE OFICIAL DO MP BELO HORIZONTE - COMARCA; DIR RELACOES INSTITUCIONAIS 1.978,00 0,00 605,00 0,00 5.776,81 0,00 0,00 0,00 0,00 31/01/2024
1224 634100 CLEA CRISTINA GUERRA DE FREITAS COSTA OFICIAL DO MP BELO HORIZONTE - COMARCA; BH-18PJ VIOLENCIA DOMESTICA-SECRETARIA 1.978,00 0,00 605,00 0,00 0,00 0,00 0,00 0,00 0,00 31/01/2024
1225 244800 CLEBER AUGUSTO DO NASCIMENTO PROMOTOR 2A ENTRANCIA CAMPO BELO - COMARCA; CAMPO BELO-PJ-04PJ 1.978,00 0,00 3.392,49 0,00 16.962,47 0,00 0,00 0,00 518,30 31/01/2024
1226 439000 CLEBER COUTO PROMOT.ENTRANC.ESPECIAL PATOS DE MINAS - COMARCA; GAECO REGIONAL DE PATOS DE MINAS 1.978,00 1.146,58 3.571,05 0,00 17.855,23 0,00 0,00 0,00 545,58 31/01/2024
1227 459200 CLEIA ZILLE PEREIRA ANALISTA DO MP BELO HORIZONTE - COMARCA; BH-07PJ 01 TRIBUNAL DO JURI-GAB 059PJ 1.978,00 1.719,87 605,00 0,00 5.924,93 0,00 0,00 0,00 0,00 31/01/2024
1228 481800 CLEIDE CARDOSO DA SILVA ANALISTA DO MP MANHUAÇU - COMARCA; MANHUACU-PJ-04PJ 1.978,00 0,00 605,00 0,00 5.924,93 0,00 0,00 0,00 0,00 31/01/2024
1229 225000 CLEIDE PEREIRA DA SILVA PROMOT.ENTRANC.ESPECIAL BELO HORIZONTE - COMARCA; BH-09PJ AUDITORIA MILITAR-GAB 161PJ 1.978,00 0,00 1.600,61 0,00 12.556,24 0,00 0,00 0,00 0,00 31/01/2024
1230 347600 CLEIDIMAR DE OLIVEIRA SILVA OFICIAL DO MP PATOS DE MINAS - COMARCA; PATOS DE MINAS-PJ-03PJ 1.978,00 0,00 605,00 0,00 6.221,18 0,00 0,00 0,00 0,00 31/01/2024
1231 396500 CLEIDISON BATISTA DE ANDRADE OFICIAL DO MP RESPLENDOR - COMARCA; RESPLENDOR-PJ-UNPJ 1.978,00 0,00 605,00 0,00 6.020,33 0,00 0,00 0,00 0,00 31/01/2024
1232 535100 CLEISON ALVES DA SILVA ANALISTA DO MP BOA ESPERANÇA - COMARCA; BOA ESPERANCA-PJ-01PJ 1.978,00 0,00 605,00 0,00 5.776,81 0,00 0,00 0,00 0,00 31/01/2024
1233 298100 CLEONICE AUGUSTA BARROS DE OLIVEIRA ANALISTA DO MP JUIZ DE FORA - COMARCA; JUIZ DE FORA-PJ-08PJ 1.978,00 0,00 605,00 0,00 0,00 0,00 0,00 0,00 0,00 31/01/2024
1234 114301 CLERES PEREIRA DA SILVA JUNIOR ASSESSOR ADMINISTRATIVO I BELO HORIZONTE - COMARCA; GAECO - SECRETARIA 1.978,00 0,00 605,00 0,00 0,00 0,00 0,00 0,00 0,00 31/01/2024
1235 264100 CLETO HENRIQUE ANDRADE SILVA ANALISTA DO MP BELO HORIZONTE - COMARCA; DIRETORIA DE SISTEMAS DE INFORMACAO 1.978,00 0,00 605,00 0,00 5.167,75 0,00 0,00 0,00 473,71 31/01/2024
1236 334400 CLEUBA DE OLIVEIRA BARCELOS GONCALVES OFICIAL DO MP DIVINÓPOLIS - COMARCA; COORD REG SAUDE MACRORREGIAO SANITARIA OESTE 1.978,00 0,00 605,00 0,00 5.776,81 0,00 0,00 0,00 0,00 31/01/2024
1237 347500 CLEUSA CORDEIRO DA MATA PIMENTA OFICIAL DO MP CAMPO BELO - COMARCA; CAMPO BELO-PJ-01PJ 1.978,00 0,00 605,00 0,00 5.395,63 0,00 0,00 0,00 0,00 31/01/2024
1238 92400 CLEVERSON RAYMUNDO SBARZI GUEDES PROMOT.ENTRANC.ESPECIAL JUIZ DE FORA - COMARCA; JUIZ DE FORA-PJ-07PJ 1.978,00 0,00 3.571,05 0,00 24.043,95 0,00 0,00 0,00 734,68 31/01/2024
1239 675000 CLEVERTON FRANCISCO GONCALVES DA SILVA CAPITAO 1.978,00 0,00 0,00 0,00 0,00 0,00 0,00 0,00 0,00 31/01/2024
1240 510200 CLEZIO SALES SILVA OFICIAL DO MP BRASÓPOLIS - COMARCA; BRASOPOLIS-PJ-UNPJ 1.978,00 1.146,58 605,00 0,00 6.125,47 0,00 0,00 0,00 0,00 31/01/2024
1241 1514200 CLICIA LAIANE DE ASSIS BENTO ESTAGIARIO ERVALIA; ERVALIA-PJ-UNPJ 0,00 0,00 0,00 180,00 0,00 0,00 0,00 0,00 0,00 31/01/2024
1242 323000 CLOTILDE DE PADUA VIEIRA OFICIAL DO MP BELO HORIZONTE - COMARCA; BH-19PJ SAUDE-SECRETARIA 129PJ 1.978,00 0,00 605,00 0,00 0,00 0,00 0,00 0,00 0,00 31/01/2024
1243 285200 CLOVIS ANDRE LUDTKE OFICIAL DO MP BELO HORIZONTE - COMARCA; DIVISAO DE MANUTENCAO PREDIAL 1.978,00 0,00 605,00 0,00 6.087,86 0,00 0,00 0,00 0,00 31/01/2024
1244 381100 CONCEICAO APARECIDA TEIXEIRA ARANTES ANALISTA DO MP BELO HORIZONTE - COMARCA; BH-23PJ INFRACIONAL-ASS JURIDICA 1.978,00 1.146,58 605,00 0,00 0,00 0,00 0,00 0,00 3.961,61 31/01/2024
1245 249900 CONSTANTINO CEZAR GOMES MOTA OFICIAL DO MP MONTES CLAROS - COMARCA; COORD REG BACIA RIOS VERDE GRANDE E PARDO 1.978,00 2.293,16 605,00 0,00 6.221,18 0,00 0,00 0,00 0,00 31/01/2024
1246 594800 COSME COELHO TEIXEIRA 2O. SARGENTO BELO HORIZONTE - COMARCA; NUCLEO DE CONTRAINTELIGENCIA 1.978,00 0,00 0,00 0,00 0,00 0,00 0,00 0,00 0,00 31/01/2024
1247 481000 CRISHMA ANALIA LOMBELLO ANALISTA DO MP JUIZ DE FORA - COMARCA; JUIZ DE FORA-PJ-13PJ 1.978,00 0,00 605,00 0,00 5.924,93 0,00 0,00 0,00 543,12 31/01/2024
1248 523900 CRISTHYANE BAZOLI COSTA GUEDES COUTO OFICIAL DO MP BELO HORIZONTE - COMARCA; BH-04PJ JUIZO REG PÚBLICOS-SECRETARIA 1.978,00 0,00 605,00 0,00 6.057,50 0,00 0,00 0,00 0,00 31/01/2024
1249 731700 CRISTIAN DA SILVA BUENO ESTAGIARIO DIVINO; DIVINO-PJ-UNPJ 0,00 0,00 0,00 72,00 0,00 0,00 0,00 0,00 0,00 31/01/2024
1250 187000 CRISTIAN DAYVSON EVANGELISTA OFICIAL DO MP JUIZ DE FORA - COMARCA; JUIZ DE FORA-PJ-13PJ 1.978,00 0,00 605,00 0,00 5.065,09 0,00 1.771,66 0,00 0,00 31/01/2024
1251 245000 CRISTIAN LUCIO DA SILVA PROMOT.ENTRANC.ESPECIAL BELO HORIZONTE - COMARCA; BH-07PJ 03 TRIBUNAL DO JURI-GAB 064PJ 1.978,00 1.719,87 3.571,05 0,00 17.855,23 0,00 0,00 0,00 545,58 31/01/2024
1252 682100 CRISTIAN TRISTAO DE ANDRADE ASSESSOR PROMOTOR JUSTICA TRÊS CORACOES - COMARCA; TRES CORACOES-PJ-04PJ 1.978,00 0,00 605,00 0,00 3.524,36 0,00 0,00 0,00 0,00 31/01/2024
1253 319800 CRISTIANA GONCALVES DOS SANTOS GUSMAO OFICIAL DO MP SETE LAGOAS - COMARCA; SETE LAGOAS-PJ-04PJ 1.978,00 0,00 605,00 0,00 0,00 0,00 0,00 0,00 0,00 31/01/2024
1254 520600 CRISTIANA JANAINA BARBOZA JUVENCIO DOS SANTOS ANALISTA DO MP BELO HORIZONTE - COMARCA; BH-02PJ FAMILIA-SECRETARIA 1.978,00 0,00 605,00 0,00 5.924,93 0,00 0,00 0,00 0,00 31/01/2024
1255 195600 CRISTIANA SOARES HALABI OFICIAL DO MP UBERABA - COMARCA; UBERABA-PJ-01PJ 1.978,00 0,00 605,00 0,00 5.167,75 0,00 0,00 0,00 0,00 31/01/2024
1256 218900 CRISTIANE ALVES BELLES OFICIAL DO MP JUIZ DE FORA - COMARCA; JUIZ DE FORA-PJ-10PJ 1.978,00 1.719,87 605,00 0,00 5.885,25 0,00 0,00 0,00 0,00 31/01/2024
1257 1449100 CRISTIANE APARECIDA CALDEIRA SILVA ESTAGIARIO CONTAGEM; CONTAGEM-PJ-09PJ 0,00 0,00 0,00 180,00 0,00 0,00 0,00 0,00 0,00 31/01/2024
1258 291600 CRISTIANE CAMPOS AMORIM BARONY PROMOTOR 2A ENTRANCIA CARANGOLA - COMARCA; CARANGOLA-PJ-03PJ 1.978,00 0,00 3.392,49 0,00 16.962,48 0,00 0,00 0,00 518,30 31/01/2024
1259 263600 CRISTIANE CARVALHO COUTINHO OFICIAL DO MP BELO HORIZONTE - COMARCA; BH-23PJ INFRACIONAL-SEC EXP 1.978,00 0,00 605,00 0,00 0,00 0,00 0,00 0,00 0,00 31/01/2024
1260 541000 CRISTIANE COELHO ALVES OFICIAL DO MP ITABIRA - COMARCA; ITABIRA-PJ-03PJ 1.978,00 0,00 605,00 0,00 6.125,47 0,00 0,00 0,00 561,50 31/01/2024
1261 441700 CRISTIANE CORRADO DE ANDRADE ANALISTA DO MP BELO HORIZONTE - COMARCA; DIRETORIA DE SISTEMAS DE INFORMACAO 1.978,00 0,00 605,00 0,00 5.297,12 0,00 0,00 0,00 0,00 31/01/2024
1262 375100 CRISTIANE DAS DORES ERCIO DE LIMA OFICIAL DO MP GOVERNADOR VALADARES - COMARCA; COOR REG APOIO COM INC MOB VALE DO RIO DOCE 1.978,00 0,00 605,00 0,00 6.216,30 0,00 0,00 0,00 0,00 31/01/2024
1263 178800 CRISTIANE DE LIMA HOSKEN OFICIAL DO MP BELO HORIZONTE - COMARCA; DIRETORIA DE INTELIGENCIA 1.978,00 0,00 605,00 0,00 6.213,67 0,00 0,00 0,00 0,00 31/01/2024
1264 494000 CRISTIANE DE MELO MARQUEZ OLIVEIRA ANALISTA DO MP UBERLÂNDIA - COMARCA; UBERLANDIA-PJ-06PJ 1.978,00 1.146,58 605,00 0,00 5.627,11 0,00 0,00 0,00 515,82 31/01/2024
1265 266100 CRISTIANE DE OLIVEIRA CASTRO OFICIAL DO MP BELO HORIZONTE - COMARCA; BH-14PJ DEFESA CONSUMIDOR-SECRETARIA 1.978,00 0,00 605,00 0,00 0,00 0,00 1.771,66 0,00 0,00 31/01/2024
1266 329500 CRISTIANE DOS REIS SILVA OFICIAL DO MP ARAXÁ - COMARCA; ARAXA-PJ-04PJ 1.978,00 0,00 605,00 0,00 5.776,81 0,00 0,00 0,00 0,00 31/01/2024
1267 719100 CRISTIANE FERNANDES FERREIRA ESTAGIARIO ALPINOPOLIS; ALPINOPOLIS-PJ-UNPJ 0,00 0,00 0,00 162,00 0,00 0,00 0,00 0,00 0,00 31/01/2024
1268 301600 CRISTIANE GODINHO PIRES ANALISTA DO MP BETIM - COMARCA; BETIM-PJ-06PJ 1.978,00 0,00 605,00 0,00 5.998,28 0,00 0,00 0,00 0,00 31/01/2024
1269 406100 CRISTIANE GONCALVES CHAVES ANALISTA DO MP BELO HORIZONTE - COMARCA; BH-06PJ JUIZO CIVEL-SECRETARIA 1.978,00 0,00 605,00 0,00 0,00 0,00 0,00 0,00 0,00 31/01/2024
1270 487600 CRISTIANE LOPES DE OLIVEIRA OFICIAL DO MP DIVINÓPOLIS - COMARCA; DIVINOPOLIS-PJ-03PJ 1.978,00 0,00 605,00 0,00 6.113,73 0,00 0,00 0,00 0,00 31/01/2024
1271 502500 CRISTIANE MACIEL DE OLIVEIRA GOMES ANALISTA DO MP JUIZ DE FORA - COMARCA; JUIZ DE FORA-PJ-02PJ 1.978,00 1.146,58 605,00 0,00 5.924,93 0,00 0,00 0,00 0,00 31/01/2024
1272 285500 CRISTIANE MAGALHAES LOURENCO ANALISTA DO MP BELO HORIZONTE - COMARCA; CENTRAL DE APOIO TECNICO-SETOR CONTABIL 1.978,00 0,00 605,00 0,00 5.167,75 0,00 0,00 0,00 473,71 31/01/2024
1273 536500 CRISTIANE MICHELE DE SOUZA ANALISTA DO MP BARÃO DE COCAIS - COMARCA; BARAO DE COCAIS-PJ-UNPJ 1.978,00 0,00 605,00 0,00 0,00 0,00 0,00 0,00 0,00 31/01/2024
1274 346600 CRISTIANE NOGUEIRA ANDRADE ANALISTA DO MP BELO HORIZONTE - COMARCA; CENTRAL DE APOIO TECNICO-SETOR CONTABIL 1.978,00 0,00 605,00 0,00 0,00 0,00 0,00 0,00 0,00 31/01/2024
1275 234000 CRISTIANE OLIVEIRA TOSTES OFICIAL DO MP JUIZ DE FORA - COMARCA; JUIZ DE FORA-PJ-08PJ 1.978,00 1.146,58 605,00 0,00 5.749,43 0,00 0,00 0,00 0,00 31/01/2024
1276 445800 CRISTIANE ORZIL COSTA OFICIAL DO MP SANTA LUZIA - COMARCA; SANTA LUZIA-PJ-05PJ 1.978,00 1.146,58 605,00 0,00 6.249,73 0,00 0,00 0,00 0,00 31/01/2024
1277 616100 CRISTIANE PAES RODRIGUES MARCICANO ANALISTA DO MP CATAGUASES - COMARCA; CATAGUASES-PJ-05PJ 1.978,00 1.146,58 605,00 0,00 6.112,95 0,00 0,00 0,00 560,35 31/01/2024
1278 612300 CRISTIANE RIBEIRO DOS REIS ARCANJO OFICIAL DO MP BELO HORIZONTE - COMARCA; DIRETORIA DE PAGAMENTO DE PESSOAL-DPAG
1279 257700 CRISTIANE RODRIGUES PAES NUNES ANALISTA DO MP BELO HORIZONTE - COMARCA; BH-22PJ PES COM DEF E IDOSOS-ORIENTACAO PSIC 1.978,00 1.146,58 605,00 0,00 5.167,75 0,00 0,00 0,00 473,71 31/01/2024
1280 510800 CRISTIANE SANTOS FERNANDES ORNELES ANALISTA DO MP BELO HORIZONTE - COMARCA; BH-03PJ EMPRESARIAL-SECRETARIA 1.978,00 0,00 605,00 0,00 5.924,93 0,00 0,00 0,00 0,00 31/01/2024
1281 535701 CRISTIANE SANTOS MIRANDA ANALISTA DO MP CONTAGEM - COMARCA; CONTAGEM-PJ-03PJ 1.978,00 0,00 605,00 0,00 6.243,14 0,00 0,00 0,00 0,00 31/01/2024
1282 163400 CRISTIANO CASSIOLATO PROMOTOR 1A ENTRANCIA CARMO DO RIO CLARO - COMARCA; CARMO DO RIO CLARO-PJ-UNPJ 1.978,00 0,00 3.222,87 0,00 17.974,68 0,00 0,00 0,00 549,23 31/01/2024
1283 484000 CRISTIANO CESAR PIMENTA DAYRELL DA CUNHA PROMOT.ENTRANC.ESPECIAL SETE LAGOAS - COMARCA; SETE LAGOAS-PJ-05PJ 1.978,00 1.146,58 3.571,05 0,00 17.855,23 0,00 0,00 0,00 545,58 31/01/2024
1284 299901 CRISTIANO DA COSTA MATA PROMOT.ENTRANC.ESPECIAL IPATINGA - COMARCA; IPATINGA-PJ-10PJ 1.978,00 1.146,58 3.571,05 0,00 17.855,23 0,00 0,00 0,00 545,58 31/01/2024
1285 536200 CRISTIANO DE OLIVEIRA ANALISTA DO MP CONCEIÇÃO DO MATO DENTRO - COMARCA; CONCEICAO DO MATO DENTRO-PJ-UNPJ 1.978,00 2.293,16 605,00 0,00 5.924,93 0,00 0,00 0,00 0,00 31/01/2024
1286 1598700 CRISTIANO DE OLIVEIRA CORREA ESTAGIARIO ARAXA; ARAXA-PJ-03PJ 0,00 0,00 0,00 180,00 0,00 0,00 0,00 0,00 0,00 31/01/2024
1287 675100 CRISTIANO GERALDO CUNHA CABO BELO HORIZONTE - COMARCA; GAECO - SETOR POLICIAL MILITAR 1.978,00 0,00 0,00 0,00 0,00 0,00 0,00 0,00 0,00 31/01/2024
1288 1399200 CRISTIANO MORAIS COSTA ESTAGIARIO BELO HORIZONTE; DIVISAO DE MANUTENCAO PREDIAL 0,00 0,00 0,00 198,00 0,00 0,00 0,00 0,00 0,00 31/01/2024
1289 440000 CRISTIANO MOREIRA SILVA PROMOTOR 2A ENTRANCIA CAPELINHA - COMARCA; CAPELINHA-PJ-02PJ 1.978,00 1.146,58 2.250,10 0,00 16.962,48 0,00 0,00 0,00 518,30 31/01/2024
1290 167400 CRISTIANO ROCHA GAZAL PROMOTOR 1A ENTRANCIA CAMBUQUIRA - COMARCA; CAMBUQUIRA-PJ-UNPJ 1.978,00 0,00 2.543,37 0,00 17.974,68 0,00 0,00 0,00 549,23 31/01/2024
1291 477400 CRISTIANO SOARES ELEUTERIO ANALISTA DO MP BELO HORIZONTE - COMARCA; GABINETE DE PROCURADOR DE JUSTIÇA-SALA1109-T3 1.978,00 0,00 605,00 0,00 6.124,75 0,00 0,00 0,00 0,00 31/01/2024
1292 449400 CRISTIANO TEIXEIRA RODRIGUES LANA ANALISTA DO MP BELO HORIZONTE - COMARCA; BH-18PJ VIOLENCIA DOMESTICA-SECRETARIA 1.978,00 0,00 605,00 0,00 6.031,87 0,00 0,00 0,00 0,00 31/01/2024
1293 720400 CRISTIANO XAVIER RAMOS ESTAGIARIO SAO FRANCISCO; SAO FRANCISCO-PJ-01PJ 1.978,00 0,00 2.553,66 0,00 10.177,49 0,00 0,00 0,00 518,30 31/01/2024
1294 106600 CRISTINA BECHARA KALLAS PROMOTOR 2A ENTRANCIA PASSOS - COMARCA; PASSOS-PJ-03PJ 1.978,00 0,00 3.392,49 0,00 8.014,65 0,00 0,00 0,00 734,68 31/01/2024
1295 239400 CRISTINA DE FATIMA CRUZ E SILVA OFICIAL DO MP MONTE SANTO DE MINAS - COMARCA; MONTE SANTO DE MINAS-PJ-SECRETARIA 1.978,00 0,00 605,00 0,00 0,00 0,00 0,00 0,00 0,00 31/01/2024
1296 1647800 CRISTINA DE JESUS RODRIGUES DE CASTRO SOUZA ESTAGIARIO BELO HORIZONTE; CAO-FUNDACOES 0,00 0,00 0,00 180,00 0,00 0,00 0,00 0,00 0,00 31/01/2024
1297 544000 CRISTINA DE OLIVEIRA TERRA ANALISTA DO MP BELO HORIZONTE - COMARCA; BH-18PJ VIOLENCIA DOMESTICA-SECRETARIA 1.978,00 0,00 605,00 0,00 5.924,93 0,00 0,00 0,00 0,00 31/01/2024
1298 356800 CRISTINA DE PINHO BARROSO OFICIAL DO MP SABINÓPOLIS - COMARCA; SABINOPOLIS-PJ-UNPJ 1.978,00 1.146,58 605,00 0,00 0,00 0,00 0,00 0,00 0,00 31/01/2024
1299 649500 CRISTINA DO DIVINO ESPIRITO SANTOS OFICIAL DO MP DIVINÓPOLIS - COMARCA; DIVINOPOLIS-PJ-12PJ 1.978,00 0,00 605,00 0,00 6.077,78 0,00 0,00 0,00 0,00 31/01/2024
1300 727100 CRISTINA DORNELLES CLARET ASSESSOR ADMINISTRATIVO III BELO HORIZONTE - COMARCA; CAO-MEIO AMBIENTE 1.978,00 0,00 605,00 0,00 0,00 0,00 0,00 0,00 0,00 31/01/2024
1301 218500 CRISTINA FAGUNDES SIQUEIRA PROMOTOR 2A ENTRANCIA ARAGUARI - COMARCA; ARAGUARI-PJ-04PJ 1.978,00 0,00 3.392,49 0,00 14.353,28 0,00 0,00 0,00 548,22 31/01/2024
1302 484500 CRISTINA FERREIRA LABARRERE NASCIMENTO PROMOTOR SUBSTITUTO RIBEIRÃO DAS NEVES - COMARCA; RIBEIRAO DAS NEVES-PJ-09PJ 1.978,00 0,00 2.272,80 0,00 16.114,35 0,00 0,00 0,00 492,38 31/01/2024
1303 348201 CRISTINA MARIA DA SILVA ANALISTA DO MP BELO HORIZONTE - COMARCA; CENT ESTAD COOPERACAO TECNICO-JURIDICA 1.978,00 1.719,87 605,00 0,00 0,00 0,00 0,00 0,00 0,00 31/01/2024
1304 434900 CRISTINA MELO DE MADUREIRA ANALISTA DO MP BELO HORIZONTE - COMARCA; BH-07PJ 01 TRIBUNAL JURI-SECRETARIA 1.978,00 0,00 605,00 0,00 0,00 0,00 0,00 0,00 0,00 31/01/2024
1305 307700 CRISTINA TEIXEIRA MARQUES OFICIAL DO MP BELO HORIZONTE - COMARCA; CENTRAL DE APOIO TECNICO-SETOR CONTABIL 1.978,00 0,00 605,00 0,00 5.776,81 0,00 0,00 0,00 0,00 31/01/2024
1306 58700 CRISTOVAM JOAQUIM FERNANDES RAMOS FILHO PROCURADOR DE JUSTICA BELO HORIZONTE - COMARCA; PROC JUST ESP ACOES COMP ORIG CRIMINAL 0,00 0,00 1.623,43 0,00 0,00 0,00 0,00 0,00 0,00 31/01/2024
1307 743100 CRISTOVAO JOSE DOS SANTOS JUNIOR ANALISTA DO MP BELO HORIZONTE - COMARCA; CGMP-DIR ESTAGIO PROBATORIO E ORIENT 1.978,00 0,00 605,00 0,00 0,00 0,00 0,00 0,00 0,00 31/01/2024
1308 265300 CRISTOVAO SANCHES DE MEDEIROS ANALISTA DO MP BELO HORIZONTE - COMARCA; DIRETORIA DE CONTABILIDADE 1.978,00 0,00 605,00 0,00 0,00 0,00 0,00 0,00 0,00 31/01/2024
1309 349800 CROZEIR LUIZ DA SILVA OFICIAL DO MP UNAÍ - COMARCA; UNAI-PJ-SECRETARIA 1.978,00 1.146,58 605,00 0,00 5.776,81 0,00 0,00 0,00 529,54 31/01/2024
1310 490500 CYNTHIA CRISTINA DE SOUZA OLIVEIRA VALENTE ANALISTA DO MP BELO HORIZONTE - COMARCA; BH-09PJ AUDITORIA MILITAR-GAB 074PJ 1.978,00 0,00 605,00 0,00 0,00 0,00 0,00 0,00 0,00 31/01/2024